[[{"header":{"parameterUnit":"m.s-1","parameterCategory":1,"la1":30.6,"la2":29.2853,"lo1":-89.7004,"lo2":-87.6739,"dy":0.0162,"dx":0.0183,"nx":112,"ny":82,"refTime":"2023-06-14T06:00:00:Z","depth":0,"parameterNumber":2,"parameterNumberName":"U-component_of_WINDS"},"data":[0.0,0.0,0.0,0.0,0.0,0.0,0.0,0.0,0.0,0.0,0.0,0.0,0.0,0.0,0.0,0.0,0.0,0.0,0.0,0.0,0.0,0.0,0.0,0.0,0.0,0.0,0.0,0.0,0.0,0.0,0.0,0.0,0.0,0.0,0.0,0.0,0.0,0.0,0.0,0.0,0.0,0.0,0.0,0.0,0.0,0.0,0.0,0.0,0.0,0.0,0.0,0.0,0.0,0.0,0.0,0.0,0.0,0.0,0.0,0.0,0.0,0.0,0.0,0.0,0.0,0.0,0.0,0.0,0.0,0.0,0.0,0.0,0.0,0.0,0.0,0.0,0.0,0.0,0.0,0.0,0.0,0.0,0.0,0.0,0.0,0.0,0.0,0.0,0.0,0.0,-5.3188,-5.3851,-5.5149,-5.5763,-5.5218,-5.5189,-5.493,-5.4111,0.0,0.0,0.0,0.0,0.0,0.0,0.0,0.0,0.0,0.0,0.0,0.0,0.0,0.0,0.0,0.0,0.0,0.0,0.0,0.0,0.0,0.0,0.0,0.0,0.0,0.0,0.0,0.0,0.0,0.0,0.0,0.0,0.0,0.0,0.0,0.0,0.0,0.0,0.0,0.0,0.0,0.0,0.0,0.0,0.0,0.0,0.0,0.0,0.0,0.0,0.0,0.0,0.0,0.0,0.0,0.0,0.0,0.0,0.0,0.0,0.0,0.0,0.0,0.0,0.0,0.0,0.0,0.0,0.0,0.0,0.0,0.0,0.0,0.0,0.0,0.0,0.0,0.0,0.0,0.0,0.0,0.0,0.0,0.0,0.0,0.0,0.0,0.0,0.0,0.0,0.0,0.0,0.0,0.0,0.0,0.0,0.0,0.0,0.0,0.0,0.0,0.0,0.0,0.0,-5.4514,-5.4763,-5.543,-5.5485,-5.4532,-5.4818,-5.4575,-5.3421,0.0,0.0,0.0,0.0,0.0,0.0,0.0,0.0,0.0,0.0,0.0,0.0,0.0,0.0,0.0,0.0,0.0,0.0,0.0,0.0,0.0,0.0,0.0,0.0,0.0,0.0,0.0,0.0,0.0,0.0,0.0,0.0,0.0,0.0,0.0,0.0,0.0,0.0,0.0,0.0,0.0,0.0,0.0,0.0,0.0,0.0,0.0,0.0,0.0,0.0,0.0,0.0,0.0,0.0,0.0,0.0,0.0,0.0,0.0,0.0,0.0,0.0,0.0,0.0,0.0,0.0,0.0,0.0,0.0,0.0,0.0,0.0,0.0,0.0,0.0,0.0,0.0,0.0,0.0,0.0,0.0,0.0,0.0,0.0,0.0,0.0,0.0,0.0,0.0,0.0,0.0,0.0,0.0,0.0,0.0,0.0,0.0,0.0,0.0,0.0,0.0,0.0,0.0,-5.434,-5.4753,-5.4497,-5.5232,-5.5249,-5.4005,-5.411,-5.3962,-5.3223,-5.3473,0.0,0.0,0.0,0.0,0.0,0.0,0.0,0.0,0.0,0.0,0.0,0.0,0.0,0.0,0.0,0.0,0.0,0.0,0.0,0.0,0.0,0.0,0.0,0.0,0.0,0.0,0.0,0.0,0.0,0.0,0.0,0.0,0.0,0.0,0.0,0.0,0.0,0.0,0.0,0.0,0.0,0.0,0.0,0.0,0.0,0.0,0.0,0.0,0.0,0.0,0.0,0.0,0.0,0.0,0.0,0.0,0.0,0.0,0.0,0.0,0.0,0.0,0.0,0.0,0.0,0.0,0.0,0.0,0.0,0.0,0.0,0.0,0.0,0.0,0.0,0.0,0.0,0.0,0.0,0.0,0.0,0.0,0.0,0.0,0.0,0.0,0.0,0.0,0.0,0.0,0.0,0.0,0.0,0.0,0.0,0.0,0.0,0.0,0.0,0.0,0.0,0.0,-5.4173,-5.4479,-5.3861,-5.4515,-5.4453,-5.3235,-5.3092,-5.2918,-5.2725,-5.2725,0.0,0.0,0.0,0.0,0.0,0.0,0.0,0.0,0.0,0.0,0.0,0.0,0.0,0.0,0.0,0.0,0.0,0.0,0.0,0.0,0.0,0.0,0.0,0.0,0.0,0.0,0.0,0.0,0.0,0.0,0.0,0.0,0.0,0.0,0.0,0.0,0.0,0.0,0.0,0.0,0.0,0.0,0.0,0.0,0.0,0.0,0.0,0.0,0.0,0.0,0.0,0.0,0.0,0.0,0.0,0.0,0.0,0.0,0.0,0.0,0.0,0.0,0.0,0.0,0.0,0.0,0.0,0.0,0.0,0.0,0.0,0.0,0.0,0.0,0.0,0.0,0.0,0.0,0.0,0.0,0.0,0.0,0.0,0.0,0.0,0.0,0.0,0.0,0.0,0.0,0.0,0.0,0.0,0.0,0.0,0.0,0.0,0.0,0.0,0.0,0.0,0.0,-5.4057,-5.3624,-5.3391,-5.305,-5.2527,-5.183,-5.149,-5.1349,-5.1349,-5.1349,0.0,0.0,0.0,0.0,0.0,0.0,0.0,0.0,0.0,0.0,0.0,0.0,0.0,0.0,0.0,0.0,0.0,0.0,0.0,0.0,0.0,0.0,0.0,0.0,0.0,0.0,0.0,0.0,0.0,0.0,0.0,0.0,0.0,0.0,0.0,0.0,0.0,0.0,0.0,0.0,0.0,0.0,0.0,0.0,0.0,0.0,0.0,0.0,0.0,0.0,0.0,0.0,0.0,0.0,0.0,0.0,0.0,0.0,0.0,0.0,0.0,0.0,0.0,0.0,0.0,0.0,0.0,0.0,0.0,0.0,0.0,0.0,0.0,0.0,0.0,0.0,0.0,0.0,0.0,0.0,0.0,0.0,0.0,0.0,0.0,0.0,0.0,0.0,0.0,0.0,0.0,0.0,0.0,0.0,0.0,0.0,0.0,0.0,0.0,0.0,0.0,0.0,-5.3224,-5.3101,-5.2336,-5.2597,-5.2383,-5.1416,-5.1276,-5.1229,-5.1229,0.0,0.0,0.0,0.0,0.0,0.0,0.0,0.0,0.0,0.0,0.0,0.0,0.0,0.0,0.0,0.0,0.0,0.0,0.0,0.0,0.0,0.0,0.0,0.0,0.0,0.0,0.0,0.0,0.0,0.0,0.0,0.0,0.0,0.0,0.0,0.0,0.0,0.0,0.0,0.0,0.0,0.0,0.0,0.0,0.0,0.0,0.0,0.0,0.0,0.0,0.0,0.0,0.0,0.0,0.0,0.0,0.0,0.0,0.0,0.0,0.0,0.0,0.0,0.0,0.0,0.0,0.0,0.0,0.0,0.0,0.0,0.0,0.0,0.0,0.0,0.0,0.0,0.0,0.0,0.0,0.0,0.0,0.0,0.0,0.0,0.0,0.0,0.0,0.0,0.0,0.0,0.0,0.0,0.0,0.0,0.0,0.0,0.0,0.0,0.0,0.0,0.0,-5.2109,-5.2411,-5.2381,-5.1665,-5.2063,-5.2063,-5.1276,-5.1229,-5.1229,-5.1229,0.0,0.0,0.0,0.0,0.0,0.0,0.0,0.0,0.0,0.0,0.0,0.0,0.0,0.0,0.0,0.0,0.0,0.0,0.0,0.0,0.0,0.0,0.0,0.0,0.0,0.0,0.0,0.0,0.0,0.0,0.0,0.0,0.0,0.0,0.0,0.0,0.0,0.0,0.0,0.0,0.0,0.0,0.0,0.0,0.0,0.0,0.0,0.0,0.0,0.0,0.0,0.0,0.0,0.0,0.0,0.0,0.0,0.0,0.0,0.0,0.0,0.0,0.0,0.0,0.0,0.0,0.0,0.0,0.0,0.0,0.0,0.0,0.0,0.0,0.0,0.0,0.0,0.0,0.0,0.0,0.0,0.0,0.0,0.0,0.0,0.0,0.0,0.0,0.0,0.0,0.0,0.0,0.0,0.0,0.0,0.0,0.0,0.0,0.0,0.0,0.0,0.0,-5.2215,-5.1665,-5.1293,-5.1572,-5.1369,-5.1229,-5.1229,-5.1229,-5.1229,0.0,0.0,0.0,0.0,0.0,0.0,0.0,0.0,0.0,0.0,0.0,0.0,0.0,0.0,0.0,0.0,0.0,0.0,0.0,0.0,0.0,0.0,0.0,0.0,0.0,0.0,0.0,0.0,0.0,0.0,0.0,0.0,0.0,0.0,0.0,0.0,0.0,0.0,0.0,0.0,0.0,0.0,0.0,0.0,0.0,0.0,0.0,0.0,0.0,0.0,0.0,0.0,0.0,0.0,0.0,0.0,0.0,0.0,0.0,0.0,0.0,0.0,0.0,0.0,0.0,0.0,0.0,0.0,0.0,0.0,0.0,0.0,0.0,0.0,0.0,0.0,0.0,0.0,0.0,0.0,0.0,0.0,0.0,0.0,0.0,0.0,0.0,0.0,0.0,0.0,0.0,0.0,0.0,0.0,0.0,0.0,0.0,0.0,0.0,0.0,0.0,0.0,0.0,-5.1803,-5.1433,-5.1229,-5.1323,-5.1276,-5.1229,-5.1229,-5.1229,-5.1229,-5.1229,0.0,0.0,0.0,0.0,0.0,0.0,0.0,0.0,0.0,0.0,0.0,0.0,0.0,0.0,0.0,0.0,0.0,0.0,0.0,0.0,0.0,0.0,0.0,0.0,0.0,0.0,0.0,0.0,0.0,0.0,0.0,0.0,0.0,0.0,0.0,0.0,0.0,0.0,0.0,0.0,0.0,0.0,0.0,0.0,0.0,0.0,0.0,0.0,0.0,0.0,0.0,0.0,0.0,0.0,0.0,0.0,0.0,0.0,0.0,0.0,0.0,0.0,0.0,0.0,0.0,0.0,0.0,0.0,0.0,0.0,0.0,0.0,0.0,0.0,0.0,0.0,0.0,0.0,0.0,0.0,0.0,0.0,0.0,0.0,0.0,0.0,0.0,0.0,0.0,0.0,0.0,0.0,0.0,0.0,0.0,0.0,0.0,0.0,0.0,0.0,0.0,0.0,-5.1618,-5.1369,-5.1229,-5.1229,-5.1229,-5.1229,-5.1229,-5.1229,-5.1229,-5.1229,0.0,0.0,0.0,0.0,0.0,0.0,0.0,0.0,0.0,0.0,0.0,0.0,0.0,0.0,0.0,0.0,0.0,0.0,0.0,0.0,0.0,0.0,0.0,0.0,0.0,0.0,0.0,0.0,0.0,0.0,0.0,0.0,0.0,0.0,0.0,0.0,0.0,0.0,0.0,0.0,0.0,0.0,0.0,0.0,0.0,0.0,0.0,0.0,0.0,0.0,0.0,0.0,0.0,0.0,0.0,0.0,0.0,0.0,0.0,0.0,0.0,0.0,0.0,0.0,0.0,0.0,0.0,0.0,0.0,0.0,0.0,0.0,0.0,0.0,0.0,0.0,0.0,0.0,0.0,0.0,0.0,0.0,0.0,0.0,0.0,0.0,0.0,0.0,0.0,0.0,0.0,0.0,0.0,0.0,0.0,0.0,0.0,0.0,0.0,0.0,0.0,0.0,-5.1572,-5.1369,-5.1229,-5.1229,-5.1229,-5.1229,-5.1229,-5.1229,-5.1229,-5.1229,0.0,0.0,0.0,0.0,0.0,0.0,0.0,0.0,0.0,0.0,0.0,0.0,0.0,0.0,0.0,0.0,0.0,0.0,0.0,0.0,0.0,0.0,0.0,0.0,0.0,0.0,0.0,0.0,0.0,0.0,0.0,0.0,0.0,0.0,0.0,0.0,0.0,0.0,0.0,0.0,0.0,0.0,0.0,0.0,0.0,0.0,0.0,0.0,0.0,0.0,0.0,0.0,0.0,0.0,0.0,0.0,0.0,0.0,0.0,0.0,-6.0657,-6.0374,0.0,0.0,0.0,0.0,0.0,0.0,0.0,0.0,0.0,0.0,0.0,0.0,0.0,0.0,0.0,0.0,0.0,0.0,0.0,0.0,0.0,0.0,0.0,0.0,0.0,0.0,0.0,0.0,0.0,0.0,0.0,0.0,0.0,0.0,0.0,0.0,0.0,0.0,0.0,0.0,-5.1572,-5.1369,-5.1229,-5.1229,-5.1229,-5.1229,-5.1229,-5.1229,-5.1229,-5.1229,-5.1229,0.0,0.0,0.0,0.0,0.0,0.0,0.0,0.0,0.0,0.0,0.0,0.0,0.0,0.0,0.0,0.0,0.0,0.0,0.0,0.0,0.0,0.0,0.0,0.0,0.0,0.0,0.0,0.0,0.0,0.0,0.0,0.0,0.0,0.0,0.0,0.0,0.0,0.0,0.0,0.0,0.0,0.0,0.0,0.0,0.0,0.0,0.0,0.0,0.0,0.0,0.0,0.0,0.0,0.0,0.0,0.0,0.0,0.0,0.0,-6.1204,-6.1087,0.0,0.0,0.0,0.0,0.0,0.0,0.0,0.0,0.0,0.0,0.0,0.0,0.0,0.0,0.0,0.0,0.0,0.0,0.0,0.0,0.0,0.0,0.0,0.0,0.0,0.0,0.0,0.0,0.0,0.0,0.0,0.0,0.0,0.0,0.0,0.0,0.0,0.0,0.0,0.0,-5.1914,-5.1503,-5.1229,-5.1229,-5.1229,-5.1229,-5.1229,-5.1229,-5.1229,-5.1229,-5.1229,0.0,0.0,0.0,0.0,0.0,0.0,0.0,0.0,0.0,0.0,0.0,0.0,0.0,0.0,0.0,0.0,0.0,0.0,0.0,0.0,0.0,0.0,0.0,0.0,0.0,0.0,0.0,0.0,0.0,0.0,0.0,0.0,0.0,0.0,0.0,0.0,0.0,0.0,0.0,0.0,0.0,0.0,0.0,0.0,0.0,0.0,0.0,0.0,0.0,0.0,0.0,0.0,0.0,-5.9461,-5.9564,-6.022,-6.1116,-6.1388,-6.1242,-6.203,-6.1934,-6.1443,-6.2305,0.0,0.0,0.0,0.0,0.0,0.0,0.0,0.0,0.0,0.0,0.0,0.0,0.0,0.0,0.0,0.0,0.0,0.0,0.0,0.0,0.0,0.0,-5.681,-5.681,-5.681,-5.6656,-5.5992,0.0,0.0,0.0,0.0,0.0,0.0,0.0,0.0,0.0,0.0,0.0,-5.2264,-5.1618,-5.1229,-5.1229,-5.1229,-5.1229,-5.1229,-5.1229,-5.1229,-5.1229,-5.1229,-5.1229,0.0,0.0,0.0,0.0,0.0,0.0,0.0,0.0,0.0,0.0,0.0,0.0,0.0,0.0,0.0,0.0,0.0,0.0,0.0,0.0,0.0,0.0,0.0,0.0,0.0,0.0,0.0,0.0,0.0,0.0,0.0,0.0,-5.3518,-5.3518,0.0,0.0,0.0,0.0,0.0,0.0,0.0,0.0,0.0,0.0,0.0,0.0,0.0,-5.8461,-5.9288,-5.9219,-5.9185,-5.9185,-5.9771,-6.0082,-6.0254,-6.1668,-6.2215,-6.2064,-6.2635,0.0,-6.1601,-6.2193,0.0,0.0,0.0,0.0,0.0,0.0,0.0,0.0,0.0,0.0,0.0,0.0,0.0,0.0,0.0,0.0,0.0,0.0,0.0,0.0,0.0,0.0,-5.681,-5.681,-5.681,-5.6779,-5.6686,-5.6414,-5.6237,-5.6176,-5.5951,-5.5853,0.0,0.0,0.0,0.0,0.0,0.0,-5.2187,-5.1618,-5.1229,-5.1229,-5.1229,-5.1229,-5.1229,-5.1229,-5.1229,-5.1229,-5.1229,-5.1229,-5.1229,-5.1229,0.0,0.0,0.0,0.0,0.0,0.0,0.0,0.0,0.0,0.0,0.0,0.0,0.0,0.0,0.0,0.0,0.0,0.0,0.0,0.0,0.0,0.0,0.0,0.0,0.0,0.0,0.0,0.0,0.0,-5.3518,-5.3518,-5.3518,-5.3518,-5.3551,0.0,0.0,0.0,0.0,0.0,0.0,0.0,0.0,0.0,-5.8897,-5.8687,-5.9003,-6.0058,-5.9744,-5.9582,-5.9582,-5.9931,-6.0322,-6.084,-6.153,-6.2253,-6.3004,-6.3015,-6.2757,-6.237,-6.2402,-6.2381,-6.2381,0.0,0.0,0.0,0.0,-6.2381,-6.2341,-6.179,-6.0986,-6.0151,-5.9718,0.0,0.0,0.0,0.0,0.0,0.0,0.0,-5.681,-5.681,-5.681,-5.681,-5.681,-5.681,-5.6761,-5.6616,-5.6372,-5.6225,-5.6372,-5.6176,-5.6028,-5.6176,-5.5588,0.0,0.0,0.0,-5.3174,-5.2785,-5.2187,-5.1618,-5.1259,-5.1229,-5.1229,-5.1229,-5.1229,-5.1229,-5.1229,-5.1229,-5.1229,-5.1229,-5.1229,-5.0917,0.0,0.0,0.0,0.0,0.0,0.0,0.0,0.0,0.0,0.0,0.0,0.0,0.0,0.0,0.0,0.0,0.0,0.0,0.0,0.0,0.0,0.0,0.0,0.0,0.0,0.0,0.0,0.0,-5.3518,-5.3518,-5.3518,-5.3518,-5.3584,0.0,0.0,0.0,0.0,0.0,0.0,-5.6806,-5.7335,-5.8351,-6.0023,-5.9682,-5.9966,-6.0879,-6.0313,-6.0065,-6.0254,-6.0116,-6.0488,-6.1259,-6.1498,-6.222,-6.3324,-6.3087,-6.3,-6.2962,-6.2576,-6.2381,-6.2381,-6.2381,-6.2381,-6.2381,-6.2381,-6.2381,-6.2302,-6.1595,-6.0609,-5.9587,-5.9587,-5.8318,-5.6954,-5.7606,0.0,0.0,0.0,0.0,-5.681,-5.681,-5.681,-5.681,-5.681,-5.681,-5.6713,-5.647,-5.6225,-5.6127,-5.6176,-5.5979,-5.583,-5.588,-5.5681,0.0,-5.5581,-5.479,-5.3952,-5.3264,-5.2606,-5.1947,-5.1289,-5.1229,-5.1229,-5.1229,-5.1229,-5.1229,-5.1229,-5.1229,-5.1229,-5.1229,-5.1229,-5.0728,-4.9611,0.0,0.0,0.0,0.0,0.0,0.0,0.0,0.0,0.0,0.0,0.0,0.0,0.0,0.0,0.0,0.0,0.0,0.0,0.0,0.0,0.0,0.0,0.0,0.0,0.0,0.0,0.0,0.0,0.0,-5.3518,-5.3518,0.0,0.0,0.0,0.0,-5.4463,-5.5741,-5.6842,-5.7609,-5.8923,-6.0029,-6.0808,-6.082,-6.0855,-6.0879,-6.0313,-6.0282,-6.0855,-6.0414,-6.0495,-6.1134,-6.2022,-6.2461,-6.2565,-6.2881,-6.3,-6.2962,-6.2576,-6.2381,-6.2381,-6.2381,-6.2381,-6.2381,-6.2381,-6.2381,-6.2381,-6.2341,-6.1111,-5.9587,-5.9587,-5.8318,-5.681,-5.6858,-5.6858,0.0,0.0,-5.681,-5.681,-5.681,-5.681,-5.681,-5.681,-5.681,-5.6713,-5.647,-5.6372,-5.6225,-5.5731,-5.5431,-5.533,-5.5581,0.0,-5.528,-5.5581,-5.479,-5.3952,-5.3264,-5.2606,-5.1947,-5.1289,-5.1229,-5.1229,-5.1229,-5.1229,-5.1229,-5.1229,-5.1229,-5.1229,-5.1229,-5.1229,-5.0728,-4.9611,-4.9611,0.0,0.0,0.0,0.0,0.0,0.0,0.0,0.0,0.0,0.0,0.0,0.0,0.0,0.0,0.0,0.0,0.0,0.0,0.0,0.0,0.0,0.0,0.0,0.0,0.0,0.0,0.0,0.0,-5.3518,-5.3518,0.0,-5.3948,-5.398,-5.4507,-5.5776,-5.633,-5.7506,-5.9593,-5.9774,-6.0496,-6.2076,-6.1322,-6.1293,-6.2103,-6.1528,-6.1329,-6.1528,-6.093,-6.0794,-6.1095,-6.1016,-6.1565,-6.2496,-6.2333,-6.2522,-6.2962,-6.2576,-6.2381,-6.2381,-6.2381,-6.2381,-6.2381,-6.2381,-6.2381,-6.2381,-6.2381,-6.1152,-5.9411,-5.818,-5.7353,-5.681,-5.681,-5.681,-5.681,-5.681,-5.681,-5.681,-5.681,-5.681,-5.681,-5.681,-5.681,-5.6713,-5.647,-5.6274,-5.6028,-5.5681,-5.5531,-5.5481,-5.5581,-5.5381,-5.528,-5.5581,-5.52,-5.4431,-5.3324,-5.2965,-5.2426,-5.1319,-5.1229,-5.1229,-5.1229,-5.1229,-5.1229,-5.1229,-5.1229,-5.1229,-5.1229,-5.0508,-4.9659,-4.8596,-4.7892,-4.6816,0.0,0.0,0.0,0.0,0.0,0.0,0.0,0.0,0.0,0.0,0.0,0.0,0.0,0.0,0.0,0.0,0.0,0.0,0.0,0.0,0.0,0.0,0.0,0.0,0.0,-5.3518,-5.3518,-5.3518,-5.3518,-5.3618,-5.3948,-5.398,-5.4707,-5.646,-5.704,-5.8331,-6.0665,-6.082,-6.1398,-6.278,-6.1969,-6.1942,-6.278,-6.2229,-6.2005,-6.2166,-6.1322,-6.0925,-6.1027,-6.066,-6.0947,-6.1737,-6.1855,-6.2183,-6.2586,-6.2513,-6.2459,-6.2381,-6.2381,-6.2381,-6.2381,-6.2381,-6.2381,-6.2302,-6.1709,-6.0652,-5.9278,-5.7401,-5.681,-5.681,-5.681,-5.681,-5.681,-5.681,-5.681,-5.681,-5.681,-5.681,-5.681,-5.681,-5.681,-5.6713,-5.647,-5.6274,-5.6028,-5.5681,-5.5531,-5.5481,-5.5481,-5.533,-5.5229,-5.5431,-5.528,-5.47,-5.3354,-5.3174,-5.2665,-5.1349,-5.1229,-5.1229,-5.1229,-5.1229,-5.1229,-5.1229,-5.1229,-5.1011,-5.068,-4.9979,-4.8923,-4.7485,-4.6374,-4.5449,-4.4668,0.0,0.0,0.0,0.0,0.0,0.0,0.0,0.0,0.0,0.0,0.0,0.0,0.0,0.0,0.0,0.0,0.0,0.0,0.0,0.0,0.0,0.0,0.0,-5.3518,-5.3518,-5.3518,-5.3518,-5.3518,-5.3618,-5.3948,-5.4047,-5.4773,-5.6526,-5.7945,-5.9354,-6.0791,-6.2088,-6.278,-6.278,-6.278,-6.278,-6.278,-6.2229,-6.2229,-6.278,-6.152,-6.0879,-6.0885,-6.0995,-6.0731,-6.0289,-6.1555,-6.1987,-6.1835,-6.2429,-6.2576,-6.2381,-6.2381,-6.2381,-6.2381,-6.2381,-6.2381,-6.207,-6.0237,-5.9587,-5.9234,-5.737,-5.681,-5.681,-5.681,-5.681,-5.681,-5.681,-5.681,-5.681,-5.681,-5.681,-5.681,-5.681,-5.681,-5.6713,-5.647,-5.6421,-5.6225,-5.5731,-5.5381,-5.5179,-5.5179,-5.5179,-5.5179,-5.5179,-5.5179,0.0,-5.3354,-5.3174,-5.2665,-5.1349,-5.1229,-5.1229,-5.1229,-5.1229,-5.1182,-5.1152,-5.1152,-5.068,-4.9611,-4.9513,-4.8496,-4.6374,-4.5235,-4.4668,-4.4668,0.0,0.0,0.0,0.0,0.0,0.0,0.0,0.0,0.0,0.0,0.0,0.0,0.0,0.0,0.0,0.0,0.0,0.0,0.0,0.0,0.0,-5.3518,-5.3518,-5.3518,-5.3518,-5.3518,-5.3518,-5.3518,-5.3618,-5.3948,-5.4911,-5.6252,-5.801,-5.9418,-6.0818,-6.2186,-6.262,-6.278,-6.278,-6.278,-6.278,-6.278,-6.2654,-6.2654,-6.278,-6.152,-6.0879,-6.0885,-5.9986,-5.9805,-6.022,-6.0278,-6.0884,-6.1801,-6.1732,-6.1946,-6.2381,-6.2381,-6.2381,-6.2381,-6.2381,-6.1951,-6.1193,-6.0054,-5.9177,-5.8363,-5.7163,-5.681,-5.681,-5.681,-5.681,-5.681,-5.681,-5.681,-5.681,-5.681,-5.681,-5.681,-5.681,-5.681,-5.6761,-5.6713,-5.6519,-5.6323,-5.5979,-5.5681,-5.5431,-5.5229,-5.5179,-5.5179,-5.5179,-5.5179,-5.47,-5.3354,-5.3174,-5.2665,-5.1349,-5.1229,-5.1229,-5.1229,-5.1229,-5.087,-5.0076,-5.0028,-4.9562,-4.8496,-4.7689,-4.6635,-4.5181,-4.4884,-4.4668,0.0,0.0,0.0,0.0,0.0,0.0,0.0,0.0,0.0,0.0,0.0,0.0,0.0,0.0,0.0,0.0,0.0,0.0,0.0,0.0,0.0,0.0,-5.3518,-5.3518,-5.3518,-5.3518,-5.3518,-5.3518,-5.3551,-5.3919,-5.4812,-5.5664,-5.7127,-5.939,-6.0314,-6.1392,-6.2718,-6.278,-6.278,-6.278,-6.278,-6.278,-6.278,-6.278,-6.278,-6.278,-6.1806,-6.1178,-6.0885,-5.987,-5.9527,-5.9668,-5.9731,-6.0168,-6.0913,-6.1295,-6.1612,-6.1975,0.0,0.0,0.0,0.0,-6.183,-6.0861,-5.9935,-5.8998,-5.8026,-5.7115,-5.681,-5.681,-5.681,-5.681,-5.681,-5.681,-5.681,-5.681,-5.681,-5.681,-5.681,-5.681,-5.681,-5.681,-5.681,-5.6616,-5.6323,-5.6077,-5.578,0.0,-5.5229,-5.5179,-5.5179,-5.5179,-5.5179,-5.47,-5.3354,-5.3174,-5.2665,-5.1349,-5.1229,-5.1229,-5.1229,-5.1229,0.0,0.0,0.0,-4.8923,-4.7383,-4.6269,0.0,0.0,0.0,-4.4668,-4.4668,-4.4668,0.0,0.0,-4.4565,-4.4539,0.0,0.0,0.0,0.0,0.0,0.0,0.0,0.0,0.0,0.0,0.0,0.0,0.0,0.0,0.0,0.0,-5.3518,-5.3518,-5.3518,-5.3518,-5.3551,-5.3584,-5.3717,-5.4447,-5.6059,-5.647,-5.7788,-6.0602,-6.0917,-6.1553,-6.2743,-6.278,0.0,0.0,0.0,-6.278,-6.278,-6.278,-6.278,-6.278,-6.2112,-6.15,-6.0885,-6.0188,-5.9549,-5.9013,-5.9528,-5.9693,-5.9648,-6.0826,-6.1321,-6.1366,-6.211,-6.2381,-6.2381,-6.2381,-6.175,-6.0736,-5.9892,0.0,0.0,-5.7067,-5.681,-5.681,-5.681,-5.681,-5.681,-5.681,-5.681,-5.681,-5.681,-5.681,-5.681,-5.681,-5.681,-5.681,-5.6761,-5.6567,-5.6323,-5.6028,-5.578,-5.5501,-5.514,-5.5149,-5.5179,-5.5179,-5.5179,-5.47,-5.3354,-5.3174,-5.2665,-5.1349,-5.1229,0.0,-5.1011,-5.1011,-5.0508,-4.9317,-4.912,-4.8195,-4.6269,-4.5235,-4.4668,-4.4668,-4.4668,-4.4668,-4.4668,-4.4668,-4.4668,-4.4668,-4.4668,-4.4668,0.0,0.0,0.0,0.0,0.0,0.0,0.0,0.0,0.0,0.0,0.0,0.0,0.0,0.0,0.0,-5.3518,-5.3518,-5.3518,-5.3518,-5.3518,-5.3685,-5.4171,-5.4359,-5.5073,-5.6688,-5.7953,-5.9295,-6.0692,-6.1802,-6.2533,-6.278,-6.278,-6.278,-6.278,-6.278,-6.278,-6.278,-6.278,-6.278,-6.278,-6.1632,0.0,-6.0849,-5.9744,-5.9047,-5.884,-5.8768,-5.8965,-5.9397,-5.9448,-6.022,-6.1366,-6.211,-6.2381,-6.2381,-6.2381,-6.135,-5.9849,-5.9631,-5.8501,-5.705,-5.6858,-5.681,-5.681,-5.681,-5.681,0.0,-5.681,-5.681,-5.681,-5.681,-5.681,-5.681,-5.681,-5.681,-5.6761,-5.6519,-5.6421,-5.6274,-5.578,-5.5631,-5.535,-5.4541,-5.485,-5.5179,-5.5179,-5.5179,-5.47,-5.3354,-5.3174,-5.2665,-5.1349,-5.1229,-5.087,-4.9979,-4.9931,-4.9071,-4.7126,-4.6164,-4.5449,-4.5046,-4.483,-4.4668,-4.4668,-4.4668,-4.4668,-4.4668,-4.4668,-4.4668,-4.4668,-4.4668,-4.4668,0.0,0.0,0.0,0.0,0.0,0.0,0.0,0.0,0.0,0.0,0.0,-5.3518,-5.3518,0.0,-5.3518,-5.3518,-5.3518,-5.3518,-5.3518,-5.3518,-5.3717,-5.4328,-5.4953,-5.6059,-5.7889,-5.9267,-6.0554,-6.1704,-6.2434,-6.278,-6.278,-6.278,-6.278,-6.278,-6.278,-6.278,-6.278,-6.278,-6.2654,-6.2334,-6.135,-6.0736,-6.0437,-5.9383,-5.8875,-5.8771,-5.849,-5.8517,-5.8747,-5.8937,-5.9674,-6.0791,-6.1535,-6.2076,-6.2381,-6.2381,-6.1193,-5.9587,-5.9587,-5.8363,-5.681,-5.681,-5.681,-5.681,-5.681,-5.681,-5.681,-5.681,-5.681,-5.681,-5.681,-5.681,-5.6761,-5.6616,-5.6616,-5.6519,-5.6274,-5.5804,-5.5444,-5.5148,-5.4699,-5.422,-5.3792,-5.3982,-5.4192,-5.4192,-5.4192,-5.3832,-5.2815,-5.2695,-5.2306,-5.1319,-5.0728,-5.0172,-4.9659,-4.8596,-4.7536,-4.6478,-4.5342,-4.4668,-4.4668,-4.4668,-4.4668,-4.4668,-4.4668,-4.4668,-4.4668,-4.4668,-4.4668,-4.4668,-4.4668,-4.4668,0.0,0.0,0.0,0.0,0.0,0.0,0.0,-5.3348,-5.3518,-5.3518,-5.3518,-5.3518,-5.3518,-5.3518,-5.3518,-5.3518,-5.3518,-5.3518,-5.3518,-5.3584,-5.3949,-5.4724,-5.5618,-5.7081,-5.9295,-6.0366,-6.1444,-6.2718,-6.278,-6.278,-6.278,-6.278,-6.278,-6.278,-6.278,-6.278,-6.278,-6.278,-6.249,-6.1897,-6.1207,-6.0585,-5.9969,-5.9149,-5.8805,-5.8701,-5.8312,-5.8135,-5.8167,-5.873,-5.937,-5.9979,-6.0757,-6.1434,-6.1975,-6.2279,-6.1193,-5.9587,-5.9587,-5.8363,-5.681,-5.681,-5.681,-5.681,-5.681,-5.681,-5.681,-5.681,-5.681,-5.681,-5.681,-5.681,-5.673,-5.6335,-5.6207,-5.6079,-5.5713,-5.4964,-5.4405,-5.4356,-5.371,-5.3144,-5.3025,-5.2995,-5.3025,-5.3144,-5.3174,-5.2935,-5.2276,-5.2187,-5.1852,-5.0976,-5.0124,-4.9415,-4.9022,-4.7177,-4.6058,-4.6058,-4.5181,-4.4668,-4.4668,-4.4668,-4.4668,-4.4668,-4.4668,-4.4668,-4.4668,-4.4668,-4.4668,-4.4668,-4.4668,-4.4668,-4.7862,-4.9498,-5.1239,-5.1521,-5.2263,-5.2938,0.0,-5.3348,-5.3518,-5.3518,-5.3518,-5.3518,-5.3518,-5.3518,-5.3518,-5.3518,-5.3518,-5.3518,-5.3518,-5.3979,-5.479,-5.6129,-5.648,-5.7754,-6.0659,-6.1208,-6.1725,-6.2743,-6.278,-6.278,-6.278,-6.278,-6.278,-6.278,-6.278,-6.278,-6.278,-6.278,-6.249,-6.1897,-6.1207,-6.0585,-5.9969,-5.9149,-5.8701,-5.8525,-5.8099,-5.7918,-5.7986,-5.8693,-5.9066,-5.9201,-5.9945,-6.0283,-6.052,-6.1873,-6.1193,-5.9587,-5.9587,-5.8363,-5.681,-5.681,-5.681,-5.681,-5.681,-5.681,-5.681,-5.681,-5.681,-5.681,-5.681,-5.681,-5.6656,-5.5961,-5.5647,-5.5285,-5.4435,-5.3965,-5.3664,-5.3391,-5.3283,-5.2995,-5.2396,-5.2306,-5.2516,-5.3084,-5.3174,-5.2935,-5.2276,-5.2187,-5.1583,-4.9941,-4.9659,-4.8823,-4.6919,-4.5609,-4.4884,-4.4884,-4.4776,-4.4668,-4.4668,-4.4668,-4.4668,-4.4668,-4.4668,-4.4668,-4.4668,-4.4668,-4.4668,-4.4668,-4.4668,-4.4668,-4.893,-5.0424,-5.1728,-5.2334,-5.2772,-5.311,-5.3348,-5.3416,-5.3518,-5.3518,-5.3518,-5.3518,-5.3518,-5.3518,-5.3518,-5.3518,-5.3518,-5.3518,-5.3518,-5.3717,-5.4714,-5.6926,-5.7304,-5.8403,-6.0981,-6.181,-6.2363,-6.278,-6.278,-6.278,-6.278,-6.278,-6.278,-6.278,-6.278,-6.278,-6.278,-6.278,-6.2298,-6.1293,-6.0944,-6.0246,-5.9284,-5.8702,-5.8348,-5.8135,-5.7954,-5.7881,-5.7915,-5.822,-5.8355,-5.8423,-5.9167,-5.9471,-5.9532,-6.008,-5.9713,-5.8885,-5.8357,-5.7556,-5.681,-5.681,-5.681,-5.681,-5.681,-5.681,-5.6717,-5.6317,-5.6146,-5.6053,-5.5684,-5.5592,-5.5404,-5.4844,-5.464,-5.4357,-5.37,-5.3146,-5.278,-5.2654,-5.2306,-5.1947,-5.1678,-5.1618,-5.1708,-5.2007,-5.2037,-5.1947,-5.1648,-5.1065,-4.9901,-4.792,-4.774,-4.7126,-4.5555,-4.4992,-4.4668,-4.4668,-4.4668,-4.4668,-4.4668,-4.4668,-4.4668,-4.4668,-4.4668,-4.4668,-4.4668,-4.4668,-4.4668,-4.4668,-4.4668,-4.4668,-4.9622,-5.0888,-5.1732,-5.264,-5.3078,-5.3247,-5.345,-5.3518,-5.3518,-5.3518,-5.3518,-5.3518,-5.3518,-5.3518,-5.3518,-5.3518,-5.3518,-5.3518,-5.3518,-5.3651,-5.4722,-5.7381,-5.7977,-5.9066,-6.1308,-6.2274,-6.2755,-6.278,-6.278,-6.278,-6.278,-6.278,-6.278,-6.278,-6.278,-6.278,-6.278,-6.278,-6.2166,-6.0879,-6.0766,-6.003,-5.8805,-5.8384,-5.8063,-5.7881,-5.7881,-5.7881,-5.7881,-5.7881,-5.7881,-5.7949,-5.849,-5.8545,-5.8278,-5.7932,-5.7961,-5.8066,-5.7134,-5.6559,-5.6207,-5.6207,-5.6207,-5.6207,-5.6207,-5.6207,-5.6084,-5.5561,-5.5438,-5.5315,-5.4806,-5.4683,-5.4528,-5.3922,-5.3749,-5.3546,-5.2906,-5.2324,-5.1917,-5.1917,-5.1558,-5.1229,-5.1229,-5.0964,-5.0775,-5.0775,-5.0508,-5.0412,-5.0728,-4.9562,-4.8094,-4.6583,-4.6111,-4.5609,-4.4776,-4.4668,-4.4668,-4.4668,-4.4668,-4.4668,-4.4668,-4.4668,-4.4668,-4.4668,-4.4668,-4.4668,-4.4668,-4.4668,-4.4668,-4.4668,-4.4668,-4.4668,-4.916,-5.0158,-5.0961,-5.19,-5.2674,-5.3247,-5.345,-5.3518,-5.3518,-5.3518,-5.3518,-5.3518,-5.3518,-5.3518,-5.3518,-5.3518,-5.3518,-5.3518,-5.3518,-5.4011,-5.5196,-5.7443,-5.8394,-5.9771,-6.2136,-6.2526,-6.2654,-6.278,-6.278,-6.278,-6.278,-6.278,-6.278,-6.278,-6.278,-6.278,-6.278,-6.278,-6.2166,-6.0879,-6.0766,-6.003,-5.8805,-5.8384,-5.8063,-5.7881,-5.7881,-5.7881,-5.7881,-5.7881,-5.7881,-5.7881,-5.7915,-5.7402,-5.6569,-5.5741,-5.6293,-5.729,-5.6447,-5.5527,-5.4745,-5.4745,-5.4745,-5.4745,-5.4745,-5.4745,-5.4745,-5.4714,-5.4714,-5.4714,-5.4683,-5.4683,-5.4452,-5.3545,-5.319,-5.2805,-5.183,-5.1446,-5.1259,-5.1259,-5.1229,-5.1229,-5.1229,-5.0316,-4.9659,-4.9659,-4.8745,-4.8496,-4.9513,-4.7791,-4.6478,-4.6426,-4.5395,-4.4722,-4.4668,-4.4668,-4.4668,-4.4668,-4.4668,-4.4668,-4.4668,-4.4668,-4.4668,-4.4668,-4.4668,-4.4668,-4.4668,-4.4668,-4.4668,-4.4668,-4.4668,-4.4668,-5.0353,-5.1191,-5.1966,-5.2808,-5.3247,-5.3416,-5.345,-5.3518,-5.3518,-5.3518,-5.3518,-5.3518,-5.3518,-5.3518,-5.3518,-5.3518,-5.3518,-5.3518,-5.3518,-5.4454,-5.5848,-5.7478,-5.8973,-6.0521,-6.2209,-6.2526,-6.2654,-6.278,-6.278,-6.278,-6.278,-6.278,-6.278,-6.278,-6.278,-6.278,-6.278,-6.2271,-6.1576,-6.0766,-5.9576,-5.8737,-5.8171,-5.8063,-5.7954,-5.7881,-5.7881,-5.7881,-5.7881,-5.7881,-5.7881,-5.7881,-5.7881,-5.7368,-5.6498,-5.5636,-5.5233,-5.508,-5.4652,-5.4606,-5.4683,-5.4683,-5.4683,-5.4683,-5.4683,-5.4683,-5.4591,-5.4129,-5.4006,-5.3914,-5.3498,-5.3375,-5.3223,-5.2749,-5.249,-5.2199,-5.1725,-5.1386,-5.1229,-5.1229,-5.0632,-5.0124,-5.0124,-4.9268,-4.8546,-4.8546,-4.8217,-4.7864,-4.7536,-4.6843,-4.6111,-4.5342,-4.4938,-4.4668,-4.4668,-4.4668,-4.4668,-4.4668,-4.4668,-4.4668,-4.4668,-4.4668,-4.4668,-4.4668,-4.4668,-4.4668,-4.4668,-4.4668,-4.4668,-4.4668,-4.4668,-4.4668,-5.1288,-5.1961,-5.2503,-5.3315,-5.3518,-5.3518,-5.3518,-5.3518,-5.3518,-5.3518,-5.3518,-5.3518,-5.3518,-5.3518,-5.3518,-5.3518,-5.3518,-5.3585,-5.3856,-5.4666,-5.5941,-5.7868,-5.9159,-6.0524,-6.2245,-6.2526,-6.2654,-6.278,-6.278,-6.278,-6.278,-6.278,-6.278,-6.278,-6.278,-6.278,-6.273,-6.1969,-6.1113,-6.0117,-5.8806,-5.8063,-5.7881,-5.7881,-5.7881,-5.7881,-5.7881,-5.7881,-5.7881,-5.7881,-5.7881,-5.7881,-5.7554,-5.6882,-5.6034,-5.519,-5.4274,-5.354,-5.3371,-5.3607,-5.3976,-5.3976,-5.3976,-5.3976,-5.3976,-5.3976,-5.3883,-5.3468,-5.3345,-5.3252,-5.2821,-5.2698,-5.2608,-5.2291,-5.2109,-5.191,-5.1556,-5.1323,-5.1058,-5.0728,-5.0076,-4.9464,-4.9092,-4.8145,-4.728,-4.6867,-4.6816,-4.6712,-4.6426,-4.6006,-4.5502,-4.4776,-4.4668,-4.4668,-4.4668,-4.4668,-4.4668,-4.4668,-4.4668,-4.4668,-4.4668,-4.4668,-4.4668,-4.4668,-4.4668,-4.4668,-4.4668,-4.4668,-4.4668,-4.4668,-4.4668,-4.4668,-5.1895,-5.2334,-5.2536,-5.3315,-5.3518,-5.3518,-5.3518,-5.3518,-5.3518,-5.3518,-5.3518,-5.3518,-5.3518,-5.3518,-5.3518,-5.3518,-5.3518,-5.3754,-5.4499,-5.4669,-5.5755,-5.8472,-5.9091,-6.0071,-6.2192,-6.2526,-6.2654,-6.278,-6.278,-6.278,-6.278,-6.278,-6.278,-6.278,-6.278,-6.2705,-6.2578,-6.1824,-6.0665,-5.901,-5.8457,-5.8063,-5.7881,-5.7881,-5.7881,-5.7881,-5.7881,-5.7881,-5.7881,-5.7881,-5.7881,-5.7808,-5.692,-5.6074,-5.5158,-5.4317,-5.3434,-5.2698,-5.2698,-5.2698,-5.2698,-5.2698,-5.2698,-5.2698,-5.2698,-5.2698,-5.2698,-5.2698,-5.2698,-5.2698,-5.2698,-5.2698,-5.2563,-5.2139,-5.2002,-5.1864,-5.1323,-5.1229,-5.0917,-4.9883,-4.9611,-4.917,-4.8016,-4.6971,-4.5953,-4.4884,-4.4668,-4.51,-4.6164,-4.5342,-4.4668,-4.4668,-4.4668,-4.4668,-4.4668,-4.4668,-4.4668,-4.4668,-4.4668,-4.4668,-4.4668,-4.4668,-4.4668,-4.4668,-4.4668,-4.4668,-4.4668,-4.4668,-4.4668,-4.4668,-4.4668,-4.4668,-5.2198,-5.2739,-5.3247,-5.345,-5.3518,-5.3518,-5.3518,-5.3518,-5.3518,-5.3518,-5.3518,-5.3518,-5.3518,-5.3518,-5.3518,-5.3518,-5.3518,-5.3754,-5.4499,-5.5949,-5.7377,-5.8667,-6.0331,-6.1661,-6.2344,-6.2526,-6.2654,-6.278,-6.278,-6.278,-6.278,-6.278,-6.278,-6.278,-6.2705,-6.2412,-6.1888,-6.0453,-5.9211,-5.8174,-5.8063,-5.7954,-5.7881,-5.7881,-5.7881,-5.7881,-5.7881,-5.7881,-5.7881,-5.7881,-5.7881,-5.7808,-5.692,-5.6074,-5.5158,-5.4317,-5.3434,-5.2698,-5.2698,-5.2698,-5.2698,-5.2698,-5.2698,-5.2698,-5.2698,-5.2698,-5.2698,-5.2698,-5.2698,-5.2698,-5.2698,-5.2698,-5.2608,-5.2306,-5.2109,-5.191,-5.1602,-5.1339,-5.1135,-5.087,-4.9484,-4.7791,-4.59,-4.5288,-4.5046,-4.4722,-4.4668,-4.4776,-4.51,-4.4884,-4.4668,-4.4668,-4.4668,-4.4668,-4.4668,-4.4668,-4.4668,-4.4668,-4.4668,-4.4668,-4.4668,-4.4668,-4.4668,-4.4668,-4.4668,-4.4668,-4.4668,-4.4668,-4.4668,-4.4668,-4.4668,-4.4668,-5.2739,-5.3179,-5.3518,-5.3518,-5.3518,-5.3518,-5.3518,-5.3518,-5.3518,-5.3518,-5.3518,-5.3518,-5.3518,-5.3518,-5.3619,-5.3923,-5.3991,-5.4363,-5.5412,-5.6576,-5.7821,-5.9162,-6.0517,-6.1592,-6.2238,-6.2423,-6.2578,-6.2705,-6.2755,-6.278,-6.278,-6.273,-6.2705,-6.2705,-6.2308,-6.1548,-6.0514,-5.9541,-5.8633,-5.7881,-5.7881,-5.7881,-5.7881,-5.7881,-5.7881,-5.7881,-5.7881,-5.7881,-5.7881,-5.7881,-5.7698,-5.7256,-5.6348,-5.5515,-5.4611,-5.375,-5.3113,-5.2698,-5.2698,-5.2698,-5.2698,-5.2698,-5.2698,-5.2698,-5.2698,-5.2698,-5.2698,-5.2698,-5.2698,-5.2653,-5.2563,-5.2518,-5.2397,-5.2079,-5.1926,-5.1741,-5.1509,-5.1323,-5.0917,-4.9999,-4.8016,-4.6137,-4.4938,-4.4668,-4.4668,-4.4668,-4.4668,-4.4668,-4.4668,-4.4668,-4.4668,-4.4668,-4.4668,-4.4668,-4.4668,-4.4668,-4.4668,-4.4668,-4.4668,-4.4668,-4.4668,-4.4668,-4.4668,-4.4668,-4.4668,-4.4668,-4.4668,-4.4668,-4.4668,-4.4668,-4.4668,-4.4668,-5.3315,-5.3518,-5.3518,-5.3518,-5.3518,-5.3518,-5.3518,-5.3518,-5.3518,-5.3518,-5.3518,-5.3518,-5.3518,-5.3518,-5.3754,-5.4465,-5.46,-5.5108,-5.6596,-5.6943,-5.781,-5.9768,-6.0282,-6.0891,-6.2078,-6.2328,-6.2423,-6.2552,-6.2679,-6.2755,-6.2755,-6.2654,-6.2552,-6.2412,-6.1556,-6.0458,-5.9077,-5.8875,-5.8493,-5.7881,-5.7881,-5.7881,-5.7881,-5.7881,-5.7881,-5.7881,-5.7881,-5.7881,-5.7881,-5.7772,-5.7293,-5.6498,-5.5515,-5.4694,-5.3891,-5.3024,-5.2698,-5.2698,-5.2698,-5.2698,-5.2698,-5.2698,-5.2698,-5.2698,-5.2698,-5.2698,-5.2698,-5.2698,-5.2698,-5.2653,-5.2352,-5.2306,-5.217,-5.1711,-5.1572,-5.1526,-5.1276,-5.1058,-5.0364,-4.8167,-4.6242,-4.4884,-4.4722,-4.4668,-4.4668,-4.4668,-4.4668,-4.4668,-4.4668,-4.4668,-4.4668,-4.4668,-4.4668,-4.4668,-4.4668,-4.4668,-4.4668,-4.4668,-4.4668,-4.4668,-4.4668,-4.4668,-4.4668,-4.4668,-4.4668,-4.4668,-4.4668,-4.4668,-4.4668,-4.4668,-4.4668,-4.4696,-5.345,-5.3518,-5.3518,-5.3518,-5.3518,-5.3518,-5.3518,-5.3518,-5.3518,-5.3518,-5.3518,-5.3518,-5.3518,-5.3518,-5.3754,-5.4465,-5.46,-5.5108,-5.6596,-5.7772,-5.8835,-5.9896,-6.0986,-6.1832,-6.2158,-6.2212,-6.2265,-6.2423,-6.2449,-6.25,-6.2629,-6.2603,-6.2255,-6.1479,-6.018,-5.9311,-5.8943,-5.8352,-5.8027,-5.7881,-5.7881,-5.7881,-5.7881,-5.7881,-5.7881,-5.7881,-5.7881,-5.7881,-5.7845,-5.7143,-5.6729,-5.6459,-5.4861,-5.4147,-5.3891,-5.3024,-5.2698,-5.2698,-5.2698,-5.2698,-5.2698,-5.2698,-5.2698,-5.2698,-5.2698,-5.2698,-5.2698,-5.2698,-5.2698,-5.2653,-5.2352,-5.2306,-5.217,-5.1711,-5.1572,-5.1526,-5.1276,-5.0508,-4.9268,-4.7074,-4.6374,-4.5821,-4.4884,-4.4668,-4.4668,-4.4668,-4.4668,-4.4668,-4.4668,-4.4668,-4.4668,-4.4668,-4.4668,-4.4668,-4.4668,-4.4668,-4.4668,-4.4668,-4.4668,-4.4668,-4.4668,-4.4668,-4.4668,-4.4668,-4.4668,-4.4668,-4.4668,-4.4668,-4.4668,-4.4668,-4.4668,-4.446,-5.3518,-5.3518,-5.3518,-5.3518,-5.3518,-5.3518,-5.3518,-5.3518,-5.3518,-5.3518,-5.3518,-5.3619,-5.3991,-5.4059,-5.4431,-5.5547,-5.575,-5.6122,-5.7205,-5.7945,-5.8731,-5.9867,-6.0595,-6.1257,-6.2033,-6.2114,-6.2168,-6.2301,-6.2328,-6.2344,-6.2475,-6.2122,-6.1329,-6.0023,-5.9379,-5.8806,-5.8388,-5.8029,-5.7881,-5.7881,-5.7881,-5.7881,-5.7881,-5.7881,-5.7881,-5.7881,-5.7881,-5.7881,-5.7845,-5.6958,-5.6309,-5.5796,-5.4527,-5.3707,-5.3258,-5.2877,-5.2698,-5.2698,-5.2698,-5.2698,-5.2698,-5.2698,-5.2698,-5.2698,-5.2698,-5.2698,-5.2698,-5.2698,-5.2698,-5.2608,-5.2246,-5.2155,-5.2017,-5.1509,-5.0964,-5.0508,-5.0412,-4.912,-4.7638,-4.6583,-4.59,-4.5342,-4.4776,-4.4668,-4.4668,-4.4668,-4.4668,-4.4668,-4.4668,-4.4668,-4.4668,-4.4668,-4.4668,-4.4668,-4.4668,-4.4668,-4.4668,-4.4668,-4.4668,-4.4668,-4.4668,-4.4668,-4.4668,-4.4668,-4.4668,-4.4668,-4.4668,-4.4668,-4.4668,-4.4668,-4.4668,-4.4408,-5.3518,-5.3518,-5.3518,-5.3518,-5.3518,-5.3518,-5.3518,-5.3518,-5.3518,-5.3518,-5.3619,-5.3923,-5.4465,-5.4735,-5.5312,-5.6775,-5.6906,-5.7107,-5.7963,-5.8244,-5.8772,-5.987,-6.0251,-6.0777,-6.1692,-6.1923,-6.1978,-6.1969,-6.1969,-6.2024,-6.2158,-6.1243,-6.0153,-5.8909,-5.8772,-5.8423,-5.7918,-5.7881,-5.7881,-5.7881,-5.7881,-5.7881,-5.7881,-5.7881,-5.7881,-5.7881,-5.7881,-5.7881,-5.7808,-5.6768,-5.5915,-5.519,-5.4105,-5.3302,-5.2698,-5.2698,-5.2698,-5.2698,-5.2698,-5.2698,-5.2698,-5.2698,-5.2698,-5.2698,-5.2698,-5.2698,-5.2698,-5.2698,-5.2698,-5.2563,-5.2139,-5.2002,-5.1787,-5.1058,-5.0076,-4.9219,-4.8944,-4.7587,-4.6321,-4.6058,-4.5288,-4.4668,-4.4668,-4.4668,-4.4668,-4.4668,-4.4668,-4.4668,-4.4668,-4.4668,-4.4668,-4.4668,-4.4668,-4.4668,-4.4668,-4.4668,-4.4668,-4.4668,-4.4668,-4.4668,-4.4668,-4.4668,-4.4668,-4.4668,-4.4668,-4.4668,-4.4668,-4.4668,-4.4668,-4.4668,-4.4591,-4.4225,-5.3518,-5.3518,-5.3518,-5.3518,-5.3518,-5.3518,-5.3518,-5.3518,-5.3518,-5.3518,-5.4025,-5.4499,-5.4566,-5.5141,-5.6062,-5.7465,-5.7224,-5.7286,-5.8634,-5.938,-5.9838,-5.9966,-6.1045,-6.1636,-6.1133,-6.1636,-6.1748,-6.1163,-6.1104,-6.1192,-6.1272,-5.9931,-5.9044,-5.8875,-5.8281,-5.7954,-5.7881,-5.7881,-5.7881,-5.7881,-5.7881,-5.7881,-5.7881,-5.7881,-5.7881,-5.7881,-5.7881,-5.7881,-5.7772,-5.6113,-5.5393,-5.5149,-5.3477,-5.2743,-5.2698,-5.2698,-5.2698,-5.2698,-5.2698,-5.2698,-5.2698,-5.2698,-5.2698,-5.2698,-5.2698,-5.2698,-5.2698,-5.2698,-5.2698,-5.2563,-5.2139,-5.2002,-5.1602,-5.0124,-4.8944,-4.7892,-4.6867,-4.6531,-4.6058,-4.5046,-4.4776,-4.4668,-4.4668,-4.4668,-4.4668,-4.4668,-4.4668,-4.4668,-4.4668,-4.4668,-4.4668,-4.4668,-4.4668,-4.4668,-4.4668,-4.4668,-4.4668,-4.4668,-4.4668,-4.4668,-4.4668,-4.4668,-4.4668,-4.4668,-4.4668,-4.4668,-4.4668,-4.4668,-4.4668,-4.4668,-4.4199,-4.365,-5.3518,-5.3518,-5.3518,-5.3518,-5.3518,-5.3518,-5.3518,-5.3518,-5.3619,-5.4059,-5.4397,-5.4871,-5.575,-5.6156,-5.6703,-5.77,-5.7978,-5.8255,-5.8806,-5.9546,-5.9998,-5.9998,-6.0468,-6.0867,-6.0986,-6.0897,-6.0686,-6.0406,-5.9963,-5.9771,-5.9835,-5.9246,-5.8703,-5.8281,-5.8063,-5.7881,-5.7881,-5.7881,-5.7881,-5.7881,-5.7881,-5.7881,-5.7881,-5.7881,-5.7881,-5.7881,-5.7881,-5.7881,-5.7772,-5.6034,-5.5312,-5.5149,-5.3346,-5.2698,-5.2698,-5.2698,-5.2698,-5.2698,-5.2698,-5.2698,-5.2698,-5.2698,-5.2698,-5.2698,-5.2698,-5.2698,-5.2698,-5.2698,-5.2563,-5.2382,-5.2094,-5.1293,-5.0239,-4.8944,-4.7841,-4.6919,-4.6478,-4.5874,-4.5235,-4.4776,-4.4668,-4.4668,-4.4668,-4.4668,-4.4668,-4.4668,-4.4668,-4.4668,-4.4668,-4.4668,-4.4668,-4.4668,-4.4668,-4.4668,-4.4668,-4.4668,-4.4668,-4.4668,-4.4668,-4.4668,-4.4668,-4.4668,-4.4668,-4.4668,-4.4668,-4.4668,-4.4668,-4.4668,-4.4539,-4.4199,-4.3964,-4.3389,-5.3518,-5.3518,-5.3518,-5.3518,-5.3518,-5.3518,-5.3518,-5.3687,-5.3957,-5.4465,-5.4938,-5.5547,-5.6596,-5.6968,-5.7345,0.0,-5.8423,-5.8668,-5.8875,-5.9546,-5.9998,-5.9998,-6.0344,-6.0626,-6.0681,-6.0093,-5.9676,-5.9676,-5.9179,-5.8806,-5.8599,-5.8599,-5.8388,-5.7918,-5.7881,-5.7881,-5.7881,-5.7881,-5.7881,-5.7881,-5.7881,-5.7881,-5.7881,-5.7881,-5.7881,-5.7881,-5.7625,-5.7517,-5.7368,-5.5603,-5.4943,-5.4778,-5.329,-5.2698,-5.2698,-5.2698,-5.2698,-5.2698,-5.2698,-5.2698,-5.2698,-5.2698,-5.2698,-5.2698,-5.2608,-5.2653,-5.2653,-5.2608,-5.2352,-5.2079,-5.1926,-5.0745,-4.9317,-4.8267,-4.7177,-4.6321,-4.5953,-4.5288,-4.4668,-4.4668,-4.4668,-4.4668,-4.4668,-4.4668,-4.4668,-4.4668,-4.4668,-4.4668,-4.4668,-4.4668,-4.4668,-4.4668,-4.4668,-4.4668,-4.4668,-4.4668,-4.4668,-4.4668,-4.4668,-4.4668,-4.4668,-4.4668,-4.4668,-4.4668,-4.4668,-4.4668,-4.4668,-4.4668,-4.4434,-4.3912,-4.3702,-4.2997,-5.3518,-5.3518,-5.3518,-5.3518,-5.3518,-5.3518,-5.3518,-5.4059,-5.4566,-5.46,-5.575,-5.6799,-5.6799,-5.7408,-5.8101,-5.8772,-5.8317,-5.8137,-5.8806,-5.9546,-5.9998,-5.9998,-6.1169,-6.143,-6.0125,-5.9313,-5.8943,-5.8943,-5.8875,-5.8599,-5.7954,-5.7918,-5.7918,-5.7881,-5.7881,-5.7881,-5.7881,-5.7881,-5.7881,-5.7881,-5.7881,-5.7881,-5.7881,-5.7881,-5.7881,-5.7845,-5.6958,-5.6614,-5.6498,-5.4736,-5.4019,-5.3934,-5.3024,-5.2698,-5.2698,-5.2698,-5.2698,-5.2698,-5.2698,-5.2698,-5.2698,-5.2698,-5.2698,-5.2653,-5.2397,-5.2518,-5.2653,-5.2397,-5.1987,-5.1618,-5.1572,-5.0603,-4.9317,-4.8267,-4.7177,-4.6058,-4.4992,-4.4722,-4.4668,-4.4668,-4.4668,-4.4668,-4.4668,-4.4668,-4.4668,-4.4668,-4.4668,-4.4668,-4.4668,-4.4668,-4.4668,-4.4668,-4.4668,-4.4668,-4.4668,-4.4668,-4.4668,-4.4668,-4.4668,-4.4668,-4.4668,-4.4668,-4.4668,-4.4668,-4.4668,-4.4668,-4.4668,-4.4668,-4.4434,-4.3912,-4.3284,-4.2422,-5.3518,-5.3518,-5.3619,-5.4126,-5.4262,-5.4363,-5.4905,-5.5209,-5.5513,-5.5987,-5.6461,-5.6934,-5.7442,-5.7712,-5.7991,-5.8173,-5.8423,-5.8633,-5.8875,-5.9546,-5.9806,-5.9314,-5.9609,-5.9511,-5.8633,-5.8772,-5.8703,-5.828,-5.8209,-5.8101,-5.7918,-5.7881,-5.7881,-5.7881,-5.7881,-5.7881,-5.7881,-5.7881,-5.7881,-5.7881,-5.7881,-5.7881,-5.7881,-5.7881,-5.7881,-5.7845,-5.6958,-5.6614,-5.6459,-5.4736,-5.3976,-5.3891,-5.3024,-5.2698,-5.2698,-5.2698,-5.2698,-5.2698,-5.2698,-5.2698,-5.2698,-5.2698,-5.2698,-5.2653,-5.2608,-5.2518,-5.2352,-5.1941,-5.1711,-5.1386,-5.046,-4.9902,-4.9317,-4.8267,-4.7177,-4.6321,-4.5953,-4.5235,-4.4668,-4.4668,-4.4668,-4.4668,-4.4668,-4.4668,-4.4668,-4.4668,-4.4668,-4.4668,-4.4668,-4.4668,-4.4668,-4.4668,-4.4668,-4.4668,-4.4668,-4.4668,-4.4668,-4.4668,-4.4668,-4.4668,-4.4668,-4.4668,-4.4668,-4.4668,-4.4668,-4.4668,-4.4668,-4.433,-4.365,-4.2735,-4.2108,-4.1664,0.0,-5.3687,-5.4025,-5.4465,-5.4803,-5.5141,-5.5615,-5.5919,0.0,0.0,0.0,0.0,-5.7814,-5.7881,-5.7881,-5.7881,-5.828,-5.8528,-5.8528,-5.9146,-5.9546,-5.9347,-5.9079,-5.8737,-5.8317,-5.8423,-5.8352,-5.7918,-5.7881,-5.7881,-5.7881,-5.7881,-5.7881,-5.7881,-5.7881,-5.7881,-5.7881,-5.7881,-5.7881,-5.7881,-5.7881,-5.7881,-5.7881,-5.7881,-5.7735,-5.7368,-5.6498,-5.5915,0.0,-5.4062,-5.3521,-5.3477,-5.2922,-5.2698,-5.2698,-5.2698,-5.2698,-5.2698,-5.2698,-5.2698,-5.2698,-5.2698,-5.2608,-5.2563,-5.2563,-5.2382,-5.2079,-5.1711,-5.1526,-5.1152,-4.9902,-4.9611,-4.9219,-4.774,-4.6867,-4.6269,-4.5874,-4.5181,-4.4668,-4.4668,-4.4668,-4.4668,-4.4668,-4.4668,-4.4668,-4.4668,-4.4668,-4.4668,-4.4668,-4.4668,-4.4668,-4.4668,-4.4668,-4.4668,-4.4668,-4.4668,-4.4668,-4.4668,-4.4668,-4.4668,-4.4668,-4.4668,-4.4668,-4.4668,-4.4668,-4.4617,-4.4408,-4.3624,-4.2918,-4.2211,-4.1585,-4.1324,0.0,-5.4093,-5.46,-5.4735,-5.5277,-5.5818,-5.5817,0.0,0.0,0.0,0.0,0.0,-5.7881,-5.7881,-5.7881,-5.7881,-5.7881,-5.7881,-5.7881,-5.8423,-5.9113,-5.9774,-5.9247,-5.8841,-5.8841,-5.828,-5.7881,-5.7881,-5.7881,-5.7881,-5.7881,-5.7881,-5.7881,-5.7881,-5.7881,-5.7881,-5.7881,-5.7881,-5.7881,-5.7881,-5.7881,-5.7881,-5.7808,-5.7808,-5.7331,-5.6459,-5.5595,-5.4778,-5.3934,-5.3069,-5.2698,-5.2698,-5.2698,-5.2698,-5.2698,-5.2698,-5.2698,-5.2698,-5.2698,-5.2698,-5.2698,-5.2698,-5.2518,-5.2306,-5.2306,-5.2155,-5.1956,-5.1695,-5.1463,-5.1011,-5.0028,-4.9659,-4.912,-4.7074,-4.6531,-4.6111,-4.5046,-4.4776,-4.4668,-4.4668,-4.4668,-4.4668,-4.4668,-4.4668,-4.4668,-4.4668,-4.4668,-4.4668,-4.4668,-4.4668,-4.4668,-4.4668,-4.4668,-4.4668,-4.4668,-4.4668,-4.4668,-4.4668,-4.4668,-4.4668,-4.4668,-4.4668,-4.4642,-4.467,-4.4563,-4.433,-4.3808,-4.2735,-4.2185,-4.2133,-4.1559,-4.1324,-5.4329,0.0,-5.4871,-5.5987,-5.6427,-5.6697,0.0,0.0,0.0,0.0,0.0,0.0,0.0,-5.7881,-5.7881,-5.7881,-5.7881,-5.7881,-5.7881,-5.8063,-5.8209,-5.8386,-5.8244,-5.8137,-5.8137,-5.7991,-5.7881,-5.7881,-5.7881,-5.7881,-5.7881,-5.7881,-5.7881,-5.7881,-5.7881,-5.7881,-5.7881,-5.7881,-5.7881,-5.7881,-5.7881,-5.7554,-5.6882,-5.6882,-5.6426,-5.5555,-5.4694,-5.419,-5.3934,-5.3069,-5.2698,-5.2698,-5.2698,-5.2698,-5.2698,-5.2698,-5.2698,-5.2698,-5.2698,-5.2698,-5.2698,-5.2698,-5.2653,-5.2563,-5.2352,-5.2155,-5.2002,-5.1926,-5.1695,-5.1433,-5.1199,-5.0364,-4.9464,-4.8972,-4.7587,-4.6321,-4.6058,-4.5342,-4.4668,-4.4668,-4.4668,-4.4668,-4.4668,-4.4668,-4.4668,-4.4668,-4.4668,-4.4668,-4.4668,-4.4668,-4.4668,-4.4668,-4.4668,-4.4668,-4.4668,-4.4668,-4.4668,-4.4668,-4.4668,-4.4668,-4.4668,-4.4668,-4.4513,-4.4095,-4.365,-4.3154,-4.263,-4.2342,-4.1951,-4.1507,-4.1376,-4.1324,-5.5513,-5.5615,-5.5784,-5.6596,-5.7036,-5.7408,-5.7814,0.0,0.0,0.0,0.0,0.0,0.0,-5.7881,-5.7881,-5.7881,-5.7881,-5.7881,-5.7881,-5.7881,-5.7881,-5.7881,-5.7881,-5.7881,-5.7881,-5.7881,-5.7881,-5.7881,-5.7881,-5.7881,-5.7881,-5.7881,-5.7881,-5.7881,-5.7881,-5.7881,-5.7881,-5.7881,-5.7881,-5.7881,-5.7881,-5.7443,-5.6614,-5.6614,-5.5915,-5.4694,-5.419,-5.3793,-5.339,-5.2922,-5.2698,-5.2698,-5.2698,-5.2698,-5.2698,-5.2698,-5.2698,-5.2698,-5.2698,-5.2698,-5.2698,-5.2698,-5.2698,-5.2653,-5.2518,-5.2427,-5.2276,-5.2048,-5.188,-5.1649,-5.1028,-5.0335,-4.9513,-4.8396,-4.7229,-4.6269,-4.5715,-4.5127,-4.4668,-4.4668,-4.4668,-4.4668,-4.4668,-4.4668,-4.4668,-4.4668,-4.4668,-4.4668,-4.4668,-4.4668,-4.4668,-4.4668,-4.4668,-4.4668,-4.4668,-4.4668,-4.4668,-4.4668,-4.4668,-4.4668,-4.4668,-4.446,-4.4068,-4.3493,-4.2918,-4.2474,-4.2211,-4.1899,-4.1611,-4.1324,-4.1324,-4.1324,-5.663,-5.6867,-5.6968,-5.6968,-5.7442,-5.7881,-5.7881,0.0,0.0,0.0,0.0,0.0,0.0,-5.7881,-5.7881,-5.7881,-5.7881,-5.7881,-5.7881,-5.7881,-5.7881,-5.7881,-5.7881,-5.7881,-5.7881,-5.7881,-5.7881,-5.7881,-5.7881,-5.7881,-5.7881,-5.7881,-5.7881,-5.7881,-5.7881,-5.7881,-5.7881,-5.7881,-5.7881,-5.7881,-5.7772,-5.7256,-5.642,-5.6231,-5.5312,-5.3793,-5.3793,-5.339,-5.2698,-5.2698,-5.2698,-5.2698,-5.2698,-5.2698,-5.2698,-5.2698,-5.2698,-5.2698,-5.2698,-5.2698,-5.2698,-5.2698,-5.2698,-5.2698,-5.2698,-5.2698,-5.2639,-5.2155,-5.2048,-5.1787,-5.0621,-5.0143,-4.9484,-4.7383,-4.6791,-4.6321,-4.5181,-4.4992,-4.4938,-4.4722,-4.4668,-4.4668,-4.4668,-4.4668,-4.4668,-4.4668,-4.4668,-4.4668,-4.4668,-4.4668,-4.4668,-4.4668,-4.4668,-4.4668,-4.4668,-4.4589,-4.4591,-4.4591,-4.4591,-4.4565,-4.4407,-4.3912,-4.3389,-4.2892,-4.2317,-4.2081,-4.2081,-4.1559,-4.1324,-4.1324,-4.1324,-4.1324,-5.6765,-5.7273,-5.7712,-5.7712,-5.7814,-5.7881,-5.7881,0.0,0.0,0.0,0.0,0.0,0.0,-5.7881,-5.7881,-5.7881,-5.7881,-5.7881,-5.7881,-5.7881,-5.7881,-5.7881,-5.7881,-5.7881,-5.7881,-5.7881,-5.7881,-5.7881,-5.7881,-5.7881,-5.7881,-5.7881,-5.7881,-5.7881,-5.7881,-5.7881,-5.7881,-5.7881,-5.7881,-5.7881,-5.7181,-5.6309,-5.5474,-5.4736,-5.3836,-5.2922,-5.2922,-5.2833,-5.2698,-5.2698,-5.2698,-5.2698,-5.2698,-5.2698,-5.2698,-5.2698,-5.2698,-5.2698,-5.2698,-5.2698,-5.2698,-5.2698,-5.2698,-5.2698,-5.2698,-5.2698,-5.2608,-5.2306,-5.2261,-5.217,-5.1787,-5.084,-4.9824,-4.9268,-4.8396,-4.7485,-4.6374,-4.6111,-4.5874,-4.4884,-4.4668,-4.4668,-4.4668,-4.4668,-4.4668,-4.4668,-4.4668,-4.4668,-4.4668,-4.4668,-4.4668,-4.4668,-4.4668,-4.4668,-4.4668,-4.4278,-4.399,-4.399,-4.399,-4.3781,-4.331,-4.2735,-4.2447,-4.2291,-4.1742,-4.1455,-4.1455,-4.135,-4.1324,-4.1324,-4.1324,-4.1324,-5.7374,-5.7645,-5.7881,-5.7881,-5.7881,-5.7881,-5.7881,0.0,0.0,0.0,0.0,0.0,0.0,-5.7881,-5.7881,-5.7881,-5.7881,-5.7881,-5.7881,-5.7881,-5.7881,-5.7881,-5.7881,-5.7881,-5.7881,-5.7881,-5.7881,-5.7881,-5.7881,-5.7881,-5.7881,-5.7881,-5.7881,-5.7881,-5.7881,-5.7881,-5.7881,-5.7443,-5.7218,-5.7218,-5.6768,-5.5915,-5.4611,-5.419,-5.349,-5.2698,0.0,-5.2698,-5.2698,-5.2698,-5.2698,-5.2698,-5.2698,-5.2698,-5.2698,-5.2698,-5.2698,-5.2698,-5.2698,-5.2698,-5.2653,-5.2518,-5.2473,-5.2473,-5.2337,-5.2322,-5.2322,-5.2155,-5.2215,-5.2215,-5.188,-5.1339,-5.065,-4.9805,-4.9219,-4.8396,-4.6791,-4.6374,-4.6058,-4.4938,-4.4668,-4.4668,-4.4668,-4.4668,-4.4668,-4.4668,-4.4668,-4.4668,-4.4668,-4.4668,-4.4668,-4.4668,-4.446,-4.4278,-4.4278,-4.3729,-4.3415,-4.3415,-4.3415,-4.3154,-4.2579,-4.2342,-4.2081,-4.1716,-4.1455,-4.1324,-4.1324,-4.1324,-4.1324,-4.1324,-4.1324,-4.1324,-5.7881,-5.7881,-5.7881,-5.7881,0.0,0.0,-5.7881,-5.7881,-5.7881,-5.7881,-5.7881,0.0,0.0,-5.7881,-5.7881,-5.7881,-5.7881,-5.7881,-5.7881,-5.7881,-5.7881,-5.7881,-5.7881,-5.7881,-5.7881,-5.7881,-5.7881,-5.7881,-5.7881,-5.7881,-5.7881,-5.7881,-5.7881,-5.7881,-5.7881,-5.7808,-5.7625,-5.692,-5.6614,-5.6614,-5.6192,-5.5312,-5.3976,-5.3793,-5.3346,-5.2698,-5.2698,-5.2698,-5.2698,-5.2698,-5.2698,-5.2698,-5.2698,-5.2698,-5.2698,-5.2698,-5.2698,-5.2698,-5.2698,-5.2698,-5.2653,-5.2442,-5.2397,-5.2352,-5.2155,-5.2063,-5.2017,-5.1926,-5.2017,-5.2033,-5.1665,-5.1572,-5.1339,-5.022,-4.9979,-4.9464,-4.7536,-4.6919,-4.6426,-4.5342,-4.4884,-4.4668,-4.4668,-4.4668,-4.4668,-4.4668,-4.4617,-4.4539,-4.4539,-4.4408,-4.4276,-4.4276,-4.3938,-4.3624,-4.3493,-4.3075,-4.2762,-4.2631,-4.2735,-4.2579,-4.2004,-4.1977,-4.1768,-4.1324,-4.1324,-4.1324,-4.1324,-4.1324,-4.1324,-4.1324,-4.1324,-4.1324,-5.7881,-5.7881,-5.7881,-5.7881,-5.7881,0.0,-5.7881,-5.7881,-5.7881,-5.7881,-5.7881,-5.7881,-5.7881,-5.7881,-5.7881,-5.7881,-5.7881,-5.7881,-5.7881,-5.7881,-5.7881,-5.7881,-5.7881,-5.7881,-5.7881,-5.7881,-5.7881,-5.7881,-5.7881,-5.7881,-5.7881,-5.7881,-5.7881,-5.7881,-5.7881,-5.7517,-5.6691,-5.6614,-5.6614,-5.6575,-5.4985,-5.4105,-5.3976,-5.3157,-5.2743,-5.2698,-5.2698,-5.2698,-5.2698,-5.2698,-5.2698,-5.2698,-5.2698,-5.2698,-5.2698,-5.2698,-5.2698,-5.2698,-5.2698,-5.2698,-5.2698,-5.2653,-5.2653,-5.2608,-5.2352,-5.2261,-5.217,-5.1757,-5.1618,-5.1618,-5.1618,-5.1572,-5.1479,-5.1152,-5.1058,-5.0775,-4.9611,-4.8596,-4.7587,-4.6478,-4.5395,-4.4668,-4.4668,-4.4668,-4.4668,-4.4668,-4.4278,-4.3938,-4.3938,-4.3467,-4.3154,-4.3154,-4.3101,-4.2866,-4.2395,-4.229,-4.2004,-4.1481,-4.1925,-4.1977,-4.1402,-4.1376,-4.135,-4.1324,-4.1324,-4.1324,-4.1324,-4.1324,-4.1324,-4.1324,-4.1324,-4.1324,-5.7881,-5.748,-5.7218,-5.7772,-5.748,0.0,0.0,-5.7881,-5.7881,-5.7881,-5.7881,-5.8017,-5.849,-5.8592,-5.8727,-5.9201,-5.9268,-5.9099,-5.866,-5.8592,-5.8423,-5.7949,-5.7881,-5.7881,-5.7881,-5.7881,-5.7881,-5.7881,-5.7881,-5.7881,-5.7881,-5.7881,-5.7662,-5.7105,-5.7072,-5.6691,-5.5796,-5.5271,-5.4952,-5.4985,-5.4317,-5.3707,-5.3201,-5.2833,-5.2698,-5.2698,-5.2698,-5.2698,-5.2698,-5.2698,-5.2698,-5.2698,-5.2698,-5.2698,-5.2698,-5.2698,-5.2698,-5.2698,-5.2698,-5.2698,-5.2653,-5.2518,-5.2442,-5.2427,-5.22,-5.2017,-5.1712,-5.1136,-5.0878,-5.0829,-5.1249,-5.1339,-5.1323,-5.1229,-5.1229,-5.0798,-4.928,-4.8146,-4.6991,-4.552,-4.4359,-4.3676,-4.3676,-4.3676,-4.3676,-4.3676,-4.3493,-4.3337,-4.3337,-4.3154,-4.3023,-4.3023,-4.2709,-4.2265,-4.169,-4.1638,-4.1533,-4.1324,-4.1507,-4.1533,-4.1324,-4.1324,-4.1324,-4.1324,-4.1324,-4.1324,-4.1324,-4.1324,-4.1324,-4.1324,-4.1324,-4.1324,-5.748,-5.7034,-5.6729,-5.7331,0.0,0.0,-5.7772,-5.7881,-5.7949,-5.8186,-5.8423,-5.8761,-5.9268,-5.937,-5.9505,-6.0013,-6.0114,-5.9844,-5.9133,-5.9032,-5.8727,-5.7983,-5.7881,-5.7881,-5.7881,-5.7881,-5.7881,-5.7881,-5.7881,-5.7881,-5.7881,-5.7662,-5.7218,-5.6614,-5.6309,-5.5756,-5.4902,-5.4317,-5.3879,-5.3577,-5.3577,-5.3258,-5.2698,-5.2698,-5.2698,-5.2698,-5.2698,-5.2698,-5.2698,-5.2608,-5.2563,-5.2563,-5.2653,-5.2698,-5.2698,-5.2608,-5.2563,-5.2563,-5.2473,-5.235,-5.2121,-5.1955,-5.1758,-5.1529,-5.1289,-5.1107,-5.0879,-5.0336,-5.0079,-5.0032,-5.0481,-5.0601,-5.0601,-5.0601,-5.0601,-5.0266,-4.9063,-4.8,-4.6841,-4.5288,-4.4178,-4.336,-4.3075,-4.3023,-4.3023,-4.3023,-4.2866,-4.2762,-4.2762,-4.2605,-4.2474,-4.2474,-4.2134,-4.1742,-4.135,-4.1324,-4.1324,-4.1324,-4.1324,-4.1324,-4.1324,-4.1324,-4.1324,-4.1324,-4.1324,-4.1324,-4.1324,-4.1324,-4.1324,-4.1324,-4.1324,-4.1324,-5.6614,-5.6614,-5.6575,0.0,0.0,0.0,-5.7881,-5.7915,-5.8118,-5.8863,-5.9607,-6.0114,-6.0114,-6.0114,-6.0114,-6.0114,-6.0114,-5.9877,-5.9133,-5.9032,-5.8761,-5.7983,-5.7881,-5.7881,-5.7881,-5.7881,-5.7881,-5.7881,-5.7881,-5.7881,-5.7881,-5.7067,-5.6575,-5.6575,-5.5756,-5.4902,-5.3976,-5.3976,-5.3533,-5.2698,-5.2698,-5.2698,-5.2698,-5.2698,-5.2729,-5.2698,-5.2729,-5.2729,-5.2653,-5.2397,-5.2276,-5.2352,-5.2577,-5.2698,-5.2653,-5.2397,-5.2276,-5.223,-5.2063,-5.1547,-5.1,-5.1,-5.0514,-4.9968,-4.9702,-4.9613,-4.9568,-4.9344,-4.9299,-4.9299,-4.9299,-4.9299,-4.9299,-4.9299,-4.9299,-4.9299,-4.9299,-4.842,-4.7289,-4.6256,-4.5228,-4.4151,-4.3153,-4.2997,-4.2997,-4.2997,-4.2526,-4.2211,-4.2211,-4.1664,-4.1324,-4.1324,-4.1324,-4.1324,-4.1324,-4.1324,-4.1324,-4.1324,-4.1324,-4.1324,-4.1324,-4.1324,-4.1324,-4.1324,-4.1324,-4.1324,-4.1324,-4.1324,-4.1324,-4.1324,-4.1324,-4.1324,-5.7517,-5.6614,0.0,-5.6459,0.0,0.0,0.0,-5.7763,0.0,-5.9641,-5.9945,-6.0283,-6.0858,-6.0926,-6.1129,-6.1637,-6.1704,-6.1467,-6.0723,-6.0148,-5.9505,-5.8761,-5.822,-5.7881,-5.7881,-5.7881,-5.7662,-5.703,-5.6992,-5.6729,-5.6113,-5.5836,-5.5393,-5.4819,-5.4527,-5.3965,-5.3113,-5.3069,-5.2966,-5.2698,-5.2518,-5.2397,-5.2397,-5.2397,-5.2337,-5.2231,-5.2382,-5.2337,-5.217,-5.1772,-5.1603,-5.1587,-5.1379,-5.1195,-5.0988,-5.0944,-5.0812,-5.0678,-5.0589,-5.0468,-5.0316,-5.0316,-5.0164,-5.0012,-4.9924,-4.9747,-4.9523,-4.8952,-4.8699,-4.8476,-4.7997,-4.7878,-4.8117,-4.909,-4.9299,-4.9179,-4.8686,-4.7772,-4.6633,-4.5119,-4.3987,-4.2991,-4.1972,-4.1821,-4.1821,-4.1821,-4.1664,-4.1559,-4.1559,-4.1428,-4.1324,-4.1324,-4.1324,-4.1324,-4.1324,-4.1324,-4.1324,-4.1324,-4.1324,-4.1324,-4.1324,-4.1324,-4.1324,-4.1324,-4.1324,-4.1324,-4.1324,-4.1324,-4.1324,-4.1324,-4.1324,-4.1324,-5.6426,0.0,0.0,-5.5434,-5.5219,-5.5325,-5.6828,-5.8327,-5.9477,-5.9951,-6.056,-6.1163,-6.1637,-6.1738,-6.1873,-6.2313,-6.2381,-6.2144,-6.14,-6.0622,-5.9844,-5.9099,-5.8025,-5.7368,-5.7368,-5.7072,-5.6619,-5.6113,-5.6074,-5.5836,-5.5353,-5.4985,-5.4569,-5.4019,-5.3664,-5.317,-5.2563,-5.2563,-5.2518,-5.2413,-5.2246,-5.2124,-5.2033,-5.2124,-5.2109,-5.1972,-5.188,-5.1668,-5.1379,-5.0983,-5.0723,-5.0603,-5.0472,-5.0319,-5.0157,-5.007,-4.9968,-4.9835,-4.9747,-4.9521,-4.9309,-4.9309,-4.9128,-4.8917,-4.8917,-4.8829,-4.8607,-4.8216,-4.7995,-4.7818,-4.7399,-4.7309,-4.7489,-4.8297,-4.8476,-4.8386,-4.7967,-4.7437,-4.6573,-4.5184,-4.405,-4.3081,-4.2065,-4.1547,-4.1324,-4.1324,-4.1324,-4.1324,-4.1324,-4.1324,-4.1324,-4.1324,-4.1324,-4.1324,-4.1324,-4.1324,-4.1324,-4.1324,-4.1324,-4.1324,-4.1324,-4.1324,-4.1324,-4.1324,-4.1324,-4.1324,-4.1324,-4.1324,-4.1324,-4.1324,-4.1324,-4.1324,0.0,0.0,0.0,-5.4071,-5.5155,0.0,-5.7969,-5.9011,-5.9779,-5.9862,-6.1046,-6.211,-6.211,-6.211,-6.211,-6.211,-6.211,-6.1908,-6.1234,-6.0391,-5.9616,-5.8942,-5.7458,-5.6498,-5.6498,-5.5756,-5.5271,-5.519,-5.519,-5.5149,-5.5067,-5.4317,-5.3848,-5.3848,-5.3113,-5.2563,-5.2306,-5.2306,-5.22,-5.2002,-5.1941,-5.1743,-5.1528,-5.1743,-5.1835,-5.1744,-5.1137,-5.0698,-5.0502,-5.0061,-4.9744,-4.9523,-4.9742,-4.983,-4.9742,-4.9521,-4.9432,-4.9343,-4.9164,-4.8686,-4.8207,-4.8207,-4.7788,-4.7309,-4.7309,-4.7309,-4.7309,-4.7309,-4.7309,-4.7309,-4.7309,-4.7309,-4.7309,-4.7309,-4.7309,-4.7309,-4.7309,-4.7309,-4.7019,-4.6003,-4.5007,-4.3984,-4.2985,-4.1967,-4.1324,-4.1324,-4.1324,-4.1324,-4.1324,-4.1324,-4.1324,-4.1324,-4.1324,-4.1324,-4.1324,-4.1324,-4.1324,-4.1324,-4.1324,-4.1324,-4.1324,-4.1324,-4.1324,-4.1324,-4.1324,-4.1324,-4.1324,-4.1324,-4.1324,-4.1324,-4.1324,-4.1324,0.0,-5.4369,0.0,0.0,-5.5198,-5.5891,-5.6248,-5.7456,-5.8774,-5.9491,-5.9924,-6.0194,-6.0194,-6.0194,-6.0194,-6.0194,-6.0194,-6.0161,-5.9997,-5.882,-5.7936,-5.7773,-5.6466,-5.5595,-5.5595,-5.5434,-5.5026,-5.4317,-5.4274,-5.4008,-5.329,-5.3069,-5.298,-5.298,-5.2577,-5.2352,-5.2306,-5.2155,-5.2017,-5.2002,-5.1273,-5.0864,-5.0819,-5.0864,-5.0608,-5.0125,-4.9824,-4.9734,-4.9764,-4.9145,-4.8873,-4.8769,-4.8516,-4.8304,-4.8089,-4.8046,-4.7946,-4.7772,-4.7772,-4.7638,-4.7519,-4.7519,-4.7429,-4.7309,-4.7309,-4.7309,-4.7309,-4.7309,-4.7309,-4.7309,-4.7309,-4.7309,-4.7309,-4.7309,-4.7309,-4.7309,-4.7309,-4.7309,-4.7019,-4.6003,-4.5007,-4.3984,-4.2985,-4.1967,-4.1324,-4.1324,-4.1324,-4.1324,-4.1324,-4.1324,-4.1324,-4.1324,-4.1324,-4.1324,-4.1324,-4.1324,-4.1324,-4.1324,-4.1324,-4.1324,-4.1324,-4.1324,-4.1324,-4.1324,-4.1324,-4.1324,-4.1324,-4.1324,-4.1324,-4.1324,-4.1324,-4.1324,0.0,0.0,0.0,0.0,0.0,-5.5776,-5.6115,-5.6884,-5.7653,-5.8133,-5.8966,-5.9587,-5.9587,-5.9587,-5.9587,-5.9587,-5.9587,-5.9587,-5.9587,-5.8324,-5.7385,-5.7385,-5.578,-5.4694,-5.4694,-5.4274,-5.3879,-5.3434,-5.339,-5.3201,-5.2698,-5.2563,-5.2518,-5.2518,-5.2291,-5.2079,-5.1987,-5.188,-5.159,-5.112,-5.0621,-5.0095,-4.9539,-4.984,-4.9809,-4.9404,-4.9014,-4.8895,-4.8923,-4.8263,-4.7992,-4.7932,-4.7731,-4.7581,-4.7482,-4.7482,-4.7396,-4.7309,-4.7309,-4.7309,-4.7309,-4.7309,-4.7309,-4.7309,-4.7309,-4.7309,-4.7309,-4.7309,-4.7309,-4.7309,-4.7309,-4.7309,-4.7309,-4.7309,-4.7309,-4.7309,-4.7309,-4.7309,-4.7149,-4.6638,-4.5326,-4.4125,-4.3606,-4.2284,-4.1324,-4.1324,-4.1324,-4.1324,-4.1324,-4.1324,-4.1324,-4.1324,-4.1324,-4.1324,-4.1324,-4.1324,-4.1324,-4.1324,-4.1324,-4.1324,-4.1324,-4.1324,-4.1324,-4.1324,-4.1324,-4.1324,-4.1324,-4.1324,-4.1324,-4.1324,-4.1324,-4.1324,0.0,0.0,0.0,0.0,0.0,0.0,-5.6686,-5.681,-5.681,-5.681,-5.8041,-5.91,-5.91,-5.91,-5.91,-5.91,-5.91,-5.91,-5.91,-5.7944,-5.7077,-5.6948,-5.5185,-5.3919,-5.3793,-5.3113,-5.2698,-5.2698,-5.2653,-5.2608,-5.2608,-5.2397,-5.2261,-5.2261,-5.2063,-5.1834,-5.1572,-5.1435,-5.0966,-5.0196,-4.9956,-4.9284,-4.8147,-4.8686,-4.897,-4.894,-4.8356,-4.8117,-4.8087,-4.7519,-4.7309,-4.7309,-4.7309,-4.7309,-4.7309,-4.7309,-4.7309,-4.7309,-4.7309,-4.7309,-4.7309,-4.7309,-4.7309,-4.7309,-4.7309,-4.7309,-4.7309,-4.7309,-4.7309,-4.7309,-4.7309,-4.7309,-4.7309,-4.7309,-4.7309,-4.7309,-4.7309,-4.7309,-4.7309,-4.7309,-4.5673,-4.4266,-4.4078,-4.2528,-4.1324,-4.1324,-4.1324,-4.1324,-4.1324,-4.1324,-4.1324,-4.1324,-4.1324,-4.1324,-4.1324,-4.1324,-4.1324,-4.1324,-4.1324,-4.1324,-4.1324,-4.1324,-4.1324,-4.1324,-4.1324,-4.1324,-4.1324,-4.1324,-4.1324,-4.1324,-4.1324,-4.1324,0.0,0.0,0.0,0.0,0.0,-5.6686,0.0,0.0,-5.681,-5.681,-5.7002,-5.7163,-5.7163,-5.7163,-5.7163,-5.7163,-5.7163,-5.7163,-5.7163,-5.645,-5.569,-5.5132,-5.4297,-5.3526,-5.2939,-5.2743,-5.2698,-5.2698,-5.2473,-5.2352,-5.2352,-5.2155,-5.2017,-5.2017,-5.1787,-5.1618,-5.1572,-5.0799,-5.0331,-5.0196,-4.9075,-4.8147,-4.7429,-4.7519,-4.7578,-4.7549,-4.7489,-4.7429,-4.7429,-4.7339,-4.7309,-4.7309,-4.7309,-4.7309,-4.7309,-4.7309,-4.7309,-4.7309,-4.7309,-4.7309,-4.7309,-4.7309,-4.7309,-4.7309,-4.7309,-4.7309,-4.7309,-4.7309,-4.7309,-4.7309,-4.7309,-4.7309,-4.7309,-4.7309,-4.7309,-4.7309,-4.7309,-4.7309,-4.7309,-4.7309,-4.5673,-4.4031,-4.3177,-4.2065,-4.1324,-4.1324,-4.1324,-4.1324,-4.1324,-4.1324,-4.1324,-4.1324,-4.1324,-4.1324,-4.1324,-4.1324,-4.1324,-4.1324,-4.1324,-4.1324,-4.1324,-4.1324,-4.1324,-4.1324,-4.1324,-4.1324,-4.1324,-4.1324,-4.1324,-4.1324,-4.1324,-4.1324,-5.4422,0.0,0.0,0.0,0.0,0.0,-5.6902,-5.681,-5.681,-5.681,-5.681,-5.681,-5.681,-5.681,-5.681,-5.681,-5.681,-5.681,-5.681,-5.5838,-5.5037,-5.4714,-5.3806,-5.3037,-5.2729,-5.2698,-5.2653,-5.2518,-5.2352,-5.2261,-5.2155,-5.1926,-5.1787,-5.1787,-5.1509,-5.1189,-5.0799,-5.0437,-4.9837,-4.9134,-4.8177,-4.7578,-4.7309,-4.7309,-4.7309,-4.7309,-4.7309,-4.7309,-4.7309,-4.7309,-4.7309,-4.7309,-4.7309,-4.7309,-4.7309,-4.7309,-4.7309,-4.7309,-4.7309,-4.7309,-4.7309,-4.7309,-4.7309,-4.7309,-4.7309,-4.7309,-4.7309,-4.7309,-4.7309,-4.7309,-4.7309,-4.7309,-4.7309,-4.7309,-4.7309,-4.7309,-4.7309,-4.7309,-4.7106,-4.6594,-4.5281,-4.3984,-4.2985,-4.1967,-4.1324,-4.1324,-4.1324,-4.1324,-4.1324,-4.1324,-4.1324,-4.1324,-4.1324,-4.1324,-4.1324,-4.1324,-4.1324,-4.1324,-4.1324,-4.1324,-4.1324,-4.1324,-4.1324,-4.1324,-4.1324,-4.1324,-4.1324,-4.1324,-4.1324,-4.1324,-4.1324,-4.1198,0.0,0.0,0.0,0.0,0.0,0.0,0.0,0.0,-5.6928,-5.6744,-5.6713,-5.6713,-5.6713,-5.6761,-5.681,-5.681,-5.681,-5.681,-5.681,-5.5715,-5.4914,-5.4714,-5.3591,-5.2793,-5.2729,-5.2563,-5.2473,-5.2306,-5.2215,-5.2033,-5.188,-5.1649,-5.1479,-5.1479,-5.1143,-5.0674,-5.0196,-4.9867,-4.9164,-4.8027,-4.7549,-4.7309,-4.7309,-4.7309,-4.7309,-4.7309,-4.7309,-4.7309,-4.7309,-4.7309,-4.7309,-4.7309,-4.7309,-4.7309,-4.7309,-4.7309,-4.7309,-4.7309,-4.7309,-4.7309,-4.7309,-4.7309,-4.7309,-4.7309,-4.7309,-4.7309,-4.7309,-4.7309,-4.7309,-4.7309,-4.7309,-4.7309,-4.7309,-4.7309,-4.7309,-4.7309,-4.7309,-4.7309,-4.7062,-4.6344,-4.5144,-4.4078,-4.3321,-4.2164,-4.1324,-4.1324,-4.1324,-4.1324,-4.1324,-4.1324,-4.1324,-4.1324,-4.1324,-4.1324,-4.1324,-4.1324,-4.1324,-4.1324,-4.1324,-4.1324,-4.1324,-4.1324,-4.1324,-4.1324,-4.1324,-4.1324,-4.1324,-4.1324,-4.1274,-4.1198,-4.1198,-4.1047,-5.6532,-5.7734,0.0,0.0,0.0,0.0,0.0,0.0,-5.7186,-5.6543,-5.6421,-5.6421,-5.6421,-5.6616,-5.681,-5.681,-5.681,-5.681,-5.681,-5.6115,-5.5407,-5.4745,-5.3852,-5.3101,-5.2715,-5.2322,-5.2109,-5.2306,-5.1895,-5.1618,-5.1618,-5.1369,-5.1229,-5.1229,-5.0554,-5.0226,-5.0196,-4.9015,-4.8027,-4.7369,-4.7309,-4.7309,-4.7309,-4.7309,-4.7309,-4.7309,-4.7309,-4.7309,-4.7309,-4.7309,-4.7309,-4.7309,-4.7309,-4.7309,-4.7309,-4.7309,-4.7309,-4.7309,-4.7309,-4.7309,-4.7309,-4.7309,-4.7309,-4.7309,-4.7309,-4.7309,-4.7309,-4.7309,-4.7309,-4.7309,-4.7309,-4.7309,-4.7309,-4.7309,-4.7309,-4.7309,-4.7309,-4.7309,-4.7266,-4.7222,-4.5673,-4.4266,-4.4219,-4.2577,-4.1324,-4.1324,-4.1324,-4.1324,-4.1324,-4.1324,-4.1324,-4.1324,-4.1324,-4.1324,-4.1324,-4.1324,-4.1324,-4.1324,-4.1324,-4.1324,-4.1324,-4.1324,-4.1324,-4.1324,-4.1324,-4.1324,-4.1324,-4.1324,-4.1147,-4.0946,-4.0946,-4.0795,-5.7148,0.0,0.0,0.0,0.0,-5.8879,-5.7775,-5.7301,-5.6888,-5.6248,-5.6274,-5.6421,-5.6421,-5.6616,-5.681,-5.681,-5.681,-5.6656,-5.6146,-5.5499,-5.4728,-5.3883,-5.3117,-5.2536,-5.2276,-5.2094,-5.1972,-5.1849,-5.1665,-5.1526,-5.1339,-5.1246,-5.1229,-5.1229,-5.0524,-4.9777,-4.8985,-4.8087,-4.7549,-4.7309,-4.7309,-4.7309,-4.7309,-4.7309,-4.7309,-4.7309,-4.7309,-4.7309,-4.7309,-4.7309,-4.7309,-4.7309,-4.7309,-4.7309,-4.7309,-4.7309,-4.7309,-4.7309,-4.7309,-4.7309,-4.7309,-4.7309,-4.7309,-4.7309,-4.7309,-4.7309,-4.7309,-4.7309,-4.7309,-4.7309,-4.7309,-4.7309,-4.7309,-4.7309,-4.7309,-4.7309,-4.7309,-4.7309,-4.7106,-4.6462,-4.5235,-4.4078,-4.3464,-4.2186,-4.1324,-4.1324,-4.1324,-4.1324,-4.1324,-4.1324,-4.1324,-4.1324,-4.1324,-4.1324,-4.1324,-4.1324,-4.1324,-4.1324,-4.1324,-4.1324,-4.1324,-4.1324,-4.1324,-4.1324,-4.1147,-4.1147,-4.1324,-4.1147,-4.0997,-4.0896,-4.0744,-4.0491,-5.7469,-5.827,0.0,0.0,0.0,-5.9246,-5.8112,-5.7637,-5.7222,-5.6583,-5.6427,-5.6421,-5.6421,-5.6616,-5.681,-5.681,-5.6594,-5.6238,-5.5681,-5.4804,-5.3975,-5.3283,-5.252,-5.2033,-5.2002,-5.1864,-5.1695,-5.1602,-5.1526,-5.1416,-5.1229,-5.1229,-5.102,-5.0571,-4.9912,-4.9075,-4.7967,-4.7519,-4.7309,-4.7309,-4.7309,-4.7309,-4.7309,-4.7309,-4.7309,-4.7309,-4.7309,-4.7309,-4.7309,-4.7309,-4.7309,-4.7309,-4.7309,-4.7309,-4.7309,-4.7309,-4.7309,-4.7309,-4.7309,-4.7309,-4.7309,-4.7309,-4.7309,-4.7309,-4.7309,-4.7309,-4.7309,-4.7309,-4.7309,-4.7309,-4.7309,-4.7309,-4.7309,-4.7309,-4.7309,-4.7309,-4.7309,-4.7309,-4.7019,-4.6003,-4.5007,-4.3984,-4.2985,-4.1967,-4.1324,-4.1324,-4.1324,-4.1324,-4.1324,-4.1324,-4.1324,-4.1324,-4.1324,-4.1324,-4.1324,-4.1324,-4.1324,-4.1324,-4.1324,-4.1324,-4.1324,-4.1324,-4.1274,-4.1147,-4.0997,-4.0946,-4.1023,-4.0846,-4.0744,-4.0643,-4.044,-4.0236,0.0,0.0,0.0,-5.8793,-5.9285,0.0,-5.8885,0.0,-5.8115,-5.7412,-5.6819,-5.636,-5.636,-5.6554,-5.6748,-5.6748,-5.6146,-5.5589,-5.535,-5.414,-5.3222,-5.302,-5.2134,-5.1695,-5.1956,-5.1509,-5.1323,-5.1572,-5.1369,-5.1229,-5.1229,-5.1199,-5.0601,-4.9359,-4.8626,-4.7967,-4.7309,-4.7309,-4.7309,-4.7309,-4.7309,-4.7309,-4.7309,-4.7309,-4.7309,-4.7309,-4.7309,-4.7309,-4.7309,-4.7309,-4.7309,-4.7309,-4.7309,-4.7309,-4.7309,-4.7309,-4.7309,-4.7309,-4.7309,-4.7309,-4.7309,-4.7309,-4.7309,-4.7309,-4.7309,-4.7309,-4.7309,-4.7309,-4.7309,-4.7309,-4.7309,-4.7309,-4.7309,-4.7309,-4.7309,-4.7309,-4.7309,-4.7266,-4.6975,-4.5958,-4.4961,-4.3984,-4.2937,-4.1967,-4.1324,-4.1324,-4.1324,-4.1324,-4.1324,-4.1324,-4.1324,-4.1324,-4.1324,-4.1324,-4.1324,-4.1324,-4.1324,-4.1324,-4.1324,-4.1324,-4.1324,-4.1274,-4.1147,-4.0896,-4.087,-4.0744,-4.0517,-4.0517,-4.0338,-4.0083,-4.0083,-3.9929,-5.7641,0.0,0.0,0.0,0.0,0.0,-5.7346,0.0,-5.629,-5.5104,-5.4853,-5.4874,-5.4874,-5.5,-5.5047,-5.5047,-5.5323,-5.5092,-5.4018,-5.342,-5.2791,-5.2074,-5.1739,-5.1526,-5.1416,-5.1276,-5.1229,-5.1323,-5.1229,-5.1229,-5.1229,-5.0734,-5.0122,-4.9329,-4.8626,-4.7967,-4.7309,-4.7309,-4.7309,-4.7309,-4.7309,-4.7309,-4.7309,-4.7309,-4.7309,-4.7309,-4.7309,-4.7309,-4.7309,-4.7309,-4.7309,-4.7309,-4.7309,-4.7309,-4.7309,-4.7309,-4.7309,-4.7309,-4.7309,-4.7309,-4.7309,-4.7309,-4.7309,-4.7309,-4.7309,-4.7309,-4.7309,-4.7309,-4.7309,-4.7309,-4.7309,-4.7309,-4.7309,-4.7309,-4.7309,-4.7309,-4.7309,-4.6726,-4.5943,-4.4915,-4.4499,-4.3748,-4.2016,-4.1498,-4.1324,-4.1324,-4.1324,-4.1324,-4.1324,-4.1324,-4.1324,-4.1324,-4.1324,-4.1324,-4.1324,-4.1324,-4.1324,-4.1324,-4.1324,-4.1324,-4.1324,-4.1097,-4.0997,-4.0896,-4.0542,-4.0287,-4.0236,-4.0236,-4.0185,-4.0083,-3.9878,-3.98,-5.7303,-5.7395,-5.7487,-5.7888,0.0,0.0,-5.6605,-5.6061,-5.5439,-5.4522,-5.4253,-5.4182,-5.4182,-5.4213,-5.4121,-5.3847,-5.4027,-5.3949,-5.3128,-5.2684,-5.2164,-5.1493,-5.1433,-5.1369,-5.1229,-5.1229,-5.1229,-5.1229,-5.1229,-5.1229,-5.1229,-5.0331,-4.9643,-4.9329,-4.8356,-4.7698,-4.7309,-4.7309,-4.7309,-4.7309,-4.7309,-4.7309,-4.7309,-4.7309,-4.7309,-4.7309,-4.7309,-4.7309,-4.7309,-4.7309,-4.7309,-4.7309,-4.7309,-4.7309,-4.7309,-4.7309,-4.7309,-4.7309,-4.7309,-4.7309,-4.7309,-4.7309,-4.7309,-4.7309,-4.7309,-4.7309,-4.7309,-4.7309,-4.7309,-4.7309,-4.7309,-4.7309,-4.7309,-4.7309,-4.7309,-4.7309,-4.7309,-4.6506,-4.5508,-4.4499,-4.3984,-4.3177,-4.1597,-4.1324,-4.1324,-4.1324,-4.1324,-4.1324,-4.1324,-4.1324,-4.1324,-4.1324,-4.1324,-4.1324,-4.1324,-4.1324,-4.1324,-4.1324,-4.1198,-4.1147,-4.1324,-4.0946,-4.0744,-4.0744,-4.0338,-4.0032,-3.9929,-3.9929,-3.9929,-3.9929,-3.98,-3.9697,-5.681,-5.681,-5.681,-5.681,-5.6748,0.0,-5.6255,-5.5656,-5.5119,-5.4818,-5.4283,-5.3857,-5.381,-5.381,-5.358,-5.2926,-5.2618,-5.2446,-5.2446,-5.1964,-5.1463,-5.1229,-5.1229,-5.1229,-5.1229,-5.1229,-5.1229,-5.1229,-5.1229,-5.1199,-5.1109,-4.9942,-4.9269,-4.9209,-4.7967,-4.7309,-4.7309,-4.7309,-4.7309,-4.7309,-4.7309,-4.7309,-4.7309,-4.7309,-4.7309,-4.7309,-4.7309,-4.7309,-4.7309,-4.7309,-4.7309,-4.7309,-4.7309,-4.7309,-4.7309,-4.7309,-4.7309,-4.7309,-4.7309,-4.7309,-4.7309,-4.7309,-4.7309,-4.7309,-4.7309,-4.7309,-4.7309,-4.7309,-4.7309,-4.7309,-4.7309,-4.7309,-4.7309,-4.7309,-4.7309,-4.7309,-4.7309,-4.6506,-4.5508,-4.4499,-4.3511,-4.2479,-4.1448,-4.1324,-4.1324,-4.1324,-4.1324,-4.1324,-4.1324,-4.1324,-4.1324,-4.1324,-4.1324,-4.1324,-4.1324,-4.1274,-4.1274,-4.1324,-4.1047,-4.1047,-4.1274,-4.0744,-4.0517,-4.0517,-4.0185,-3.9929,-3.9697,-3.9697,-3.9697,-3.9697,-3.9697,-3.9697,-5.681,-5.681,-5.681,-5.681,-5.633,0.0,-5.5159,-5.4513,-5.3868,-5.3269,-5.3054,-5.2871,-5.2658,-5.2505,-5.229,-5.1953,-5.1643,-5.155,-5.1783,-5.1476,-5.1276,-5.1229,-5.1229,-5.1229,-5.1229,-5.1229,-5.1229,-5.1229,-5.1229,-5.0943,-5.0405,-4.9703,-4.906,-4.8506,-4.7728,-4.7309,-4.7309,-4.7309,-4.7309,-4.7309,-4.7309,-4.7309,-4.7309,-4.7309,-4.7309,-4.7309,-4.7309,-4.7309,-4.7309,-4.7309,-4.7309,-4.7309,-4.7309,-4.7309,-4.7309,-4.7309,-4.7309,-4.7309,-4.7309,-4.7309,-4.7309,-4.7309,-4.7309,-4.7309,-4.7309,-4.7309,-4.7309,-4.7309,-4.7309,-4.7309,-4.7309,-4.7309,-4.7309,-4.7309,-4.7309,-4.7309,-4.7309,-4.6506,-4.5508,-4.4499,-4.3511,-4.2479,-4.1448,-4.1324,-4.1324,-4.1324,-4.1324,-4.1324,-4.1324,-4.1324,-4.1324,-4.1324,-4.1324,-4.1324,-4.1324,-4.1097,-4.1047,-4.1274,-4.1047,-4.1047,-4.1274,-4.0744,-4.0517,-4.0517,-4.0032,-3.9749,-3.9697,-3.9697,-3.9697,-3.9697,-3.9697,-3.9697,-5.681,-5.681,-5.6717,-5.633,-5.5715,0.0,0.0,-5.3407,-5.2719,-5.2261,-5.2063,-5.1926,-5.1757,-5.1695,-5.1556,-5.1416,-5.1323,-5.1276,-5.1386,-5.1246,-5.1229,-5.1229,-5.1229,-5.1229,-5.1229,-5.1229,-5.1229,-5.1229,-5.0853,-5.0524,-5.0196,-4.9314,-4.8626,-4.8297,-4.7638,-4.7309,-4.7309,-4.7309,-4.7309,-4.7309,-4.7309,-4.7309,-4.7309,-4.7309,-4.7309,-4.7309,-4.7309,-4.7309,-4.7309,-4.7309,-4.7309,-4.7309,-4.7309,-4.7309,-4.7309,-4.7309,-4.7309,-4.7309,-4.7309,-4.7309,-4.7309,-4.7309,-4.7309,-4.7309,-4.7309,-4.7309,-4.7309,-4.7309,-4.7309,-4.7309,-4.7309,-4.7309,-4.7309,-4.7309,-4.7309,-4.7309,-4.7309,-4.6506,-4.5644,-4.5144,-4.3815,-4.2479,-4.1448,-4.1324,-4.1324,-4.1324,-4.1324,-4.1324,-4.1324,-4.1324,-4.1324,-4.1324,-4.1324,-4.1324,-4.1324,-4.1147,-4.1147,-4.1274,-4.0896,-4.0846,-4.1097,-4.044,-4.0108,-4.0108,-3.9852,-3.9697,-3.9697,-3.9697,-3.9697,-3.9697,-3.9697,-3.9697,-5.681,-5.6717,-5.6471,-5.5838,-5.5052,-5.4252,0.0,0.0,0.0,-5.1741,-5.1509,-5.1369,-5.1323,-5.1276,-5.1276,-5.1229,-5.1229,-5.1229,-5.1229,-5.1229,-5.1229,-5.1229,-5.1229,-5.1229,-5.1229,-5.1229,-5.1229,-5.1229,-5.0554,-5.0136,-5.0016,-4.8925,-4.8237,-4.8087,-4.7578,-4.7309,-4.7309,-4.7309,-4.7309,-4.7309,-4.7309,-4.7309,-4.7309,-4.7309,-4.7309,-4.7309,-4.7309,-4.7309,-4.7309,-4.7309,-4.7309,-4.7309,-4.7309,-4.7309,-4.7309,-4.7309,-4.7309,-4.7309,-4.7309,-4.7309,-4.7309,-4.7309,-4.7309,-4.7309,-4.7309,-4.7309,-4.7309,-4.7309,-4.7309,-4.7309,-4.7309,-4.7309,-4.7309,-4.7309,-4.7309,-4.7309,-4.7309,-4.6638,-4.6032,-4.5824,-4.4331,-4.2744,-4.1769,-4.1448,-4.1324,-4.1324,-4.1324,-4.1324,-4.1324,-4.1324,-4.1324,-4.1324,-4.1324,-4.1324,-4.1324,-4.1274,-4.1198,-4.1198,-4.0744,-4.0593,-4.0795,-4.0134,-3.9749,-3.9697,-3.9697,-3.9697,-3.9697,-3.9697,-3.9697,-3.9697,-3.9697,-3.9697,-5.681,-5.6347,-5.5807,-5.5715,-5.4589,-5.3453,-5.3315,0.0,-5.2002,-5.1956,0.0,-5.1834,-5.1602,0.0,0.0,-5.1229,-5.1229,-5.1229,-5.1229,-5.1229,-5.1229,-5.1229,-5.1229,-5.1229,-5.1229,-5.1229,-5.1229,-5.1229,-5.0554,-5.0002,-4.9449,-4.8686,-4.8027,-4.7429,-4.7339,-4.7309,-4.7309,-4.7309,-4.7309,-4.7309,-4.7309,-4.7309,-4.7309,-4.7309,-4.7309,-4.7309,-4.7309,-4.7309,-4.7309,-4.7309,-4.7309,-4.7309,-4.7309,-4.7309,-4.7309,-4.7309,-4.7309,-4.7309,-4.7309,-4.7309,-4.7309,-4.7309,-4.7309,-4.7309,-4.7309,-4.7309,-4.7309,-4.7309,-4.7309,-4.7309,-4.7309,-4.7309,-4.7309,-4.7309,-4.7309,-4.7309,-4.7309,-4.7222,-4.6887,-4.5958,-4.4915,-4.3796,-4.2792,-4.1868,-4.1324,-4.1324,-4.1324,-4.1324,-4.1324,-4.1324,-4.1324,-4.1324,-4.1324,-4.1324,-4.1324,-4.1097,-4.0946,-4.0946,-4.0643,-4.0517,-4.0542,-4.0236,-3.9929,-3.9697,-3.9697,-3.9697,-3.9697,-3.9697,-3.9697,-3.9697,-3.9697,-3.9697,-5.5449,-5.5282,-5.4944,-5.431,-5.3743,-5.3147,-5.2642,-5.2108,-5.1787,-5.1787,0.0,0.0,0.0,0.0,0.0,0.0,-5.1229,-5.1229,-5.1229,-5.1229,-5.1229,-5.1229,-5.1229,-5.1229,-5.1229,-5.1229,-5.105,-5.0644,-5.0032,-4.9404,-4.8745,-4.8087,-4.7578,-4.7309,-4.7309,-4.7309,-4.7309,-4.7309,-4.7309,-4.7309,-4.7309,-4.7309,-4.7309,-4.7309,-4.7309,-4.7309,-4.7309,-4.7309,-4.7309,-4.7309,-4.7309,-4.7309,-4.7309,-4.7309,-4.7309,-4.7309,-4.7309,-4.7309,-4.7309,-4.7309,-4.7309,-4.7309,-4.7309,-4.7309,-4.7309,-4.7309,-4.7309,-4.7309,-4.7309,-4.7309,-4.7309,-4.7309,-4.7309,-4.7309,-4.7309,-4.7309,-4.7309,-4.7309,-4.7149,-4.6726,-4.5372,-4.4172,-4.3748,-4.2333,-4.1324,-4.1324,-4.1324,-4.1324,-4.1324,-4.1324,-4.1324,-4.1324,-4.1324,-4.1274,-4.1097,-4.0946,-4.0846,-4.0694,-4.044,-4.0185,-4.0057,-3.9955,-3.98,-3.9697,-3.9697,-3.9697,-3.9697,-3.9697,-3.9697,-3.9697,-3.9697,-3.9697,-5.4449,-5.4373,-5.4097,-5.3188,-5.2915,-5.2687,-5.2047,-5.1695,-5.1479,-5.1479,-5.1369,0.0,0.0,0.0,-5.1229,-5.1229,0.0,-5.1229,-5.1229,-5.1229,-5.1229,-5.1229,-5.1229,-5.1229,-5.1229,-5.1229,-5.0913,-5.0255,-4.9643,-4.903,-4.8327,-4.7668,-4.7309,-4.7309,-4.7309,-4.7309,-4.7309,-4.7309,-4.7309,-4.7309,-4.7309,-4.7309,-4.7309,-4.7309,-4.7309,-4.7309,-4.7309,-4.7309,-4.7309,-4.7309,-4.7309,-4.7309,-4.7309,-4.7309,-4.7309,-4.7309,-4.7309,-4.7309,-4.7309,-4.7309,-4.7309,-4.7309,-4.7309,-4.7309,-4.7309,-4.7309,-4.7309,-4.7309,-4.7309,-4.7309,-4.7309,-4.7309,-4.7309,-4.7309,-4.7309,-4.7309,-4.7309,-4.7309,-4.7222,-4.6931,-4.5492,-4.4219,-4.3937,-4.2431,-4.1324,-4.1324,-4.1324,-4.1324,-4.1324,-4.1324,-4.1324,-4.1324,-4.1324,-4.1198,-4.1047,-4.0997,-4.0846,-4.0491,-4.0185,-3.9878,-3.9697,-3.9697,-3.9697,-3.9697,-3.9697,-3.9697,-3.9697,-3.9697,-3.9697,-3.9697,-3.9697,-3.9697,-5.4449,-5.3912,-5.3299,-5.3067,-5.2302,-5.1649,-5.1649,-5.1416,-5.1229,-5.1229,-5.1229,-5.1229,-5.1229,-5.1229,-5.1229,-5.1229,-5.1229,0.0,0.0,-5.1229,-5.1229,-5.1229,-5.1229,-5.1229,-5.1229,-5.1229,-5.0913,-5.0255,-4.9643,-4.903,-4.8327,-4.7668,-4.7309,-4.7309,-4.7309,-4.7309,-4.7309,-4.7309,-4.7309,-4.7309,-4.7309,-4.7309,-4.7309,-4.7309,-4.7309,-4.7309,-4.7309,-4.7309,-4.7309,-4.7309,-4.7309,-4.7309,-4.7309,-4.7309,-4.7309,-4.7309,-4.7309,-4.7309,-4.7309,-4.7309,-4.7309,-4.7309,-4.7309,-4.7309,-4.7309,-4.7309,-4.7309,-4.7309,-4.7309,-4.7309,-4.7309,-4.7309,-4.7309,-4.7309,-4.7309,-4.7309,-4.7309,-4.7309,-4.7019,-4.6032,-4.5007,-4.3984,-4.3033,-4.2016,-4.1324,-4.1324,-4.1324,-4.1324,-4.1324,-4.1324,-4.1324,-4.1324,-4.1324,-4.1324,-4.1274,-4.1274,-4.1073,-4.0542,-4.0006,-3.9697,-3.9697,-3.9697,-3.9697,-3.9697,-3.9697,-3.9697,-3.9697,-3.9697,-3.9697,-3.9697,-3.9697,-3.9697,-5.2855,-5.2626,-5.2352,-5.1887,-5.1706,-5.1526,-5.1369,-5.1276,-5.1229,-5.1229,-5.1229,-5.1229,-5.1229,-5.1229,-5.1229,-5.1229,-5.1229,-5.1229,0.0,-5.1229,-5.1229,-5.1229,-5.1229,-5.1229,-5.1229,-5.1229,-5.0913,-5.0255,-4.9643,-4.903,-4.8327,-4.7668,-4.7309,-4.7309,-4.7309,-4.7309,-4.7309,-4.7309,-4.7309,-4.7309,-4.7309,-4.7309,-4.7309,-4.7309,-4.7309,-4.7309,-4.7309,-4.7309,-4.7309,-4.7309,-4.7309,-4.7309,-4.7309,-4.7309,-4.7309,-4.7309,-4.7309,-4.7309,-4.7309,-4.7309,-4.7309,-4.7309,-4.7309,-4.7309,-4.7309,-4.7309,-4.7309,-4.7309,-4.7309,-4.7309,-4.7309,-4.7309,-4.7309,-4.7309,-4.7309,-4.7309,-4.7309,-4.7309,-4.7019,-4.6003,-4.5007,-4.3984,-4.2985,-4.1967,-4.1324,-4.1324,-4.1324,-4.1324,-4.1324,-4.1324,-4.1198,-4.1047,-4.1047,-4.0896,-4.0542,-4.0338,-4.0134,-4.0006,-3.98,-3.9697,-3.9697,-3.9697,-3.9697,-3.9697,-3.9697,-3.9697,-3.9697,-3.9697,-3.9697,-3.9697,-3.9697,-3.9697,-5.1926,-5.1834,-5.1741,-5.1323,-5.1323,-5.1386,-5.1229,-5.1229,-5.1229,-5.1229,-5.1229,-5.1229,-5.1229,-5.1229,-5.1229,-5.1229,-5.1229,-5.1229,0.0,-5.1229,-5.1229,-5.1229,-5.1229,-5.1229,-5.1229,-5.1229,-5.0913,-5.0255,-4.9853,-4.9224,-4.8327,-4.7878,-4.7549,-4.7309,-4.7309,-4.7309,-4.7309,-4.7309,-4.7309,-4.7309,-4.7309,-4.7309,-4.7309,-4.7309,-4.7309,-4.7309,-4.7309,-4.7309,-4.7309,-4.7309,-4.7309,-4.7309,-4.7309,-4.7309,-4.7309,-4.7309,-4.7309,-4.7309,-4.7309,-4.7309,-4.7309,-4.7309,-4.7309,-4.7309,-4.7309,-4.7309,-4.7249,-4.701,-4.713,-4.7249,-4.701,-4.713,-4.7309,-4.7309,-4.7309,-4.7309,-4.7309,-4.7019,-4.6462,-4.5463,-4.4424,-4.3464,-4.2431,-4.172,-4.1324,-4.1324,-4.1324,-4.1324,-4.1324,-4.1324,-4.1198,-4.0946,-4.0997,-4.0846,-4.044,-4.0134,-3.9955,-3.9826,-3.9749,-3.9697,-3.9697,-3.9697,-3.9597,-3.9396,-3.9597,-3.9597,-3.9396,-3.9597,-3.9697,-3.9697,-3.9697,-3.9697]},{"header":{"parameterUnit":"m.s-1","parameterCategory":1,"la1":30.6,"la2":29.2853,"lo1":-89.7004,"lo2":-87.6739,"dy":0.0162,"dx":0.0183,"nx":112,"ny":82,"refTime":"2023-06-14T06:00:00:Z","depth":0,"parameterNumber":3,"parameterNumberName":"V-component_of_WINDS"},"data":[0.0,0.0,0.0,0.0,0.0,0.0,0.0,0.0,0.0,0.0,0.0,0.0,0.0,0.0,0.0,0.0,0.0,0.0,0.0,0.0,0.0,0.0,0.0,0.0,0.0,0.0,0.0,0.0,0.0,0.0,0.0,0.0,0.0,0.0,0.0,0.0,0.0,0.0,0.0,0.0,0.0,0.0,0.0,0.0,0.0,0.0,0.0,0.0,0.0,0.0,0.0,0.0,0.0,0.0,0.0,0.0,0.0,0.0,0.0,0.0,0.0,0.0,0.0,0.0,0.0,0.0,0.0,0.0,0.0,0.0,0.0,0.0,0.0,0.0,0.0,0.0,0.0,0.0,0.0,0.0,0.0,0.0,0.0,0.0,0.0,0.0,0.0,0.0,0.0,0.0,-4.2879,-4.179,-4.1181,-4.1074,-4.161,-4.1777,-4.282,-4.5204,0.0,0.0,0.0,0.0,0.0,0.0,0.0,0.0,0.0,0.0,0.0,0.0,0.0,0.0,0.0,0.0,0.0,0.0,0.0,0.0,0.0,0.0,0.0,0.0,0.0,0.0,0.0,0.0,0.0,0.0,0.0,0.0,0.0,0.0,0.0,0.0,0.0,0.0,0.0,0.0,0.0,0.0,0.0,0.0,0.0,0.0,0.0,0.0,0.0,0.0,0.0,0.0,0.0,0.0,0.0,0.0,0.0,0.0,0.0,0.0,0.0,0.0,0.0,0.0,0.0,0.0,0.0,0.0,0.0,0.0,0.0,0.0,0.0,0.0,0.0,0.0,0.0,0.0,0.0,0.0,0.0,0.0,0.0,0.0,0.0,0.0,0.0,0.0,0.0,0.0,0.0,0.0,0.0,0.0,0.0,0.0,0.0,0.0,0.0,0.0,0.0,0.0,0.0,0.0,-4.2209,-4.0522,-4.0736,-4.1057,-4.1093,-4.1685,-4.2831,-4.4627,0.0,0.0,0.0,0.0,0.0,0.0,0.0,0.0,0.0,0.0,0.0,0.0,0.0,0.0,0.0,0.0,0.0,0.0,0.0,0.0,0.0,0.0,0.0,0.0,0.0,0.0,0.0,0.0,0.0,0.0,0.0,0.0,0.0,0.0,0.0,0.0,0.0,0.0,0.0,0.0,0.0,0.0,0.0,0.0,0.0,0.0,0.0,0.0,0.0,0.0,0.0,0.0,0.0,0.0,0.0,0.0,0.0,0.0,0.0,0.0,0.0,0.0,0.0,0.0,0.0,0.0,0.0,0.0,0.0,0.0,0.0,0.0,0.0,0.0,0.0,0.0,0.0,0.0,0.0,0.0,0.0,0.0,0.0,0.0,0.0,0.0,0.0,0.0,0.0,0.0,0.0,0.0,0.0,0.0,0.0,0.0,0.0,0.0,0.0,0.0,0.0,0.0,0.0,-4.1603,-4.1447,-4.1912,-4.1526,-4.1633,-4.267,-4.3041,-4.36,-4.456,-4.4869,0.0,0.0,0.0,0.0,0.0,0.0,0.0,0.0,0.0,0.0,0.0,0.0,0.0,0.0,0.0,0.0,0.0,0.0,0.0,0.0,0.0,0.0,0.0,0.0,0.0,0.0,0.0,0.0,0.0,0.0,0.0,0.0,0.0,0.0,0.0,0.0,0.0,0.0,0.0,0.0,0.0,0.0,0.0,0.0,0.0,0.0,0.0,0.0,0.0,0.0,0.0,0.0,0.0,0.0,0.0,0.0,0.0,0.0,0.0,0.0,0.0,0.0,0.0,0.0,0.0,0.0,0.0,0.0,0.0,0.0,0.0,0.0,0.0,0.0,0.0,0.0,0.0,0.0,0.0,0.0,0.0,0.0,0.0,0.0,0.0,0.0,0.0,0.0,0.0,0.0,0.0,0.0,0.0,0.0,0.0,0.0,0.0,0.0,0.0,0.0,0.0,0.0,-4.1757,-4.1615,-4.3228,-4.24,-4.2352,-4.3689,-4.3863,-4.4011,-4.4242,-4.4242,0.0,0.0,0.0,0.0,0.0,0.0,0.0,0.0,0.0,0.0,0.0,0.0,0.0,0.0,0.0,0.0,0.0,0.0,0.0,0.0,0.0,0.0,0.0,0.0,0.0,0.0,0.0,0.0,0.0,0.0,0.0,0.0,0.0,0.0,0.0,0.0,0.0,0.0,0.0,0.0,0.0,0.0,0.0,0.0,0.0,0.0,0.0,0.0,0.0,0.0,0.0,0.0,0.0,0.0,0.0,0.0,0.0,0.0,0.0,0.0,0.0,0.0,0.0,0.0,0.0,0.0,0.0,0.0,0.0,0.0,0.0,0.0,0.0,0.0,0.0,0.0,0.0,0.0,0.0,0.0,0.0,0.0,0.0,0.0,0.0,0.0,0.0,0.0,0.0,0.0,0.0,0.0,0.0,0.0,0.0,0.0,0.0,0.0,0.0,0.0,0.0,0.0,-4.3482,-4.3521,-4.2564,-4.2864,-4.3012,-4.263,-4.2918,-4.3087,-4.3087,-4.3087,0.0,0.0,0.0,0.0,0.0,0.0,0.0,0.0,0.0,0.0,0.0,0.0,0.0,0.0,0.0,0.0,0.0,0.0,0.0,0.0,0.0,0.0,0.0,0.0,0.0,0.0,0.0,0.0,0.0,0.0,0.0,0.0,0.0,0.0,0.0,0.0,0.0,0.0,0.0,0.0,0.0,0.0,0.0,0.0,0.0,0.0,0.0,0.0,0.0,0.0,0.0,0.0,0.0,0.0,0.0,0.0,0.0,0.0,0.0,0.0,0.0,0.0,0.0,0.0,0.0,0.0,0.0,0.0,0.0,0.0,0.0,0.0,0.0,0.0,0.0,0.0,0.0,0.0,0.0,0.0,0.0,0.0,0.0,0.0,0.0,0.0,0.0,0.0,0.0,0.0,0.0,0.0,0.0,0.0,0.0,0.0,0.0,0.0,0.0,0.0,0.0,0.0,-4.1958,-4.1861,-4.2381,-4.1931,-4.1948,-4.2762,-4.293,-4.2986,-4.2986,0.0,0.0,0.0,0.0,0.0,0.0,0.0,0.0,0.0,0.0,0.0,0.0,0.0,0.0,0.0,0.0,0.0,0.0,0.0,0.0,0.0,0.0,0.0,0.0,0.0,0.0,0.0,0.0,0.0,0.0,0.0,0.0,0.0,0.0,0.0,0.0,0.0,0.0,0.0,0.0,0.0,0.0,0.0,0.0,0.0,0.0,0.0,0.0,0.0,0.0,0.0,0.0,0.0,0.0,0.0,0.0,0.0,0.0,0.0,0.0,0.0,0.0,0.0,0.0,0.0,0.0,0.0,0.0,0.0,0.0,0.0,0.0,0.0,0.0,0.0,0.0,0.0,0.0,0.0,0.0,0.0,0.0,0.0,0.0,0.0,0.0,0.0,0.0,0.0,0.0,0.0,0.0,0.0,0.0,0.0,0.0,0.0,0.0,0.0,0.0,0.0,0.0,-4.1915,-4.1411,-4.1386,-4.24,-4.1785,-4.1785,-4.293,-4.2986,-4.2986,-4.2986,0.0,0.0,0.0,0.0,0.0,0.0,0.0,0.0,0.0,0.0,0.0,0.0,0.0,0.0,0.0,0.0,0.0,0.0,0.0,0.0,0.0,0.0,0.0,0.0,0.0,0.0,0.0,0.0,0.0,0.0,0.0,0.0,0.0,0.0,0.0,0.0,0.0,0.0,0.0,0.0,0.0,0.0,0.0,0.0,0.0,0.0,0.0,0.0,0.0,0.0,0.0,0.0,0.0,0.0,0.0,0.0,0.0,0.0,0.0,0.0,0.0,0.0,0.0,0.0,0.0,0.0,0.0,0.0,0.0,0.0,0.0,0.0,0.0,0.0,0.0,0.0,0.0,0.0,0.0,0.0,0.0,0.0,0.0,0.0,0.0,0.0,0.0,0.0,0.0,0.0,0.0,0.0,0.0,0.0,0.0,0.0,0.0,0.0,0.0,0.0,0.0,0.0,-4.172,-4.24,-4.2849,-4.2513,-4.2818,-4.2986,-4.2986,-4.2986,-4.2986,0.0,0.0,0.0,0.0,0.0,0.0,0.0,0.0,0.0,0.0,0.0,0.0,0.0,0.0,0.0,0.0,0.0,0.0,0.0,0.0,0.0,0.0,0.0,0.0,0.0,0.0,0.0,0.0,0.0,0.0,0.0,0.0,0.0,0.0,0.0,0.0,0.0,0.0,0.0,0.0,0.0,0.0,0.0,0.0,0.0,0.0,0.0,0.0,0.0,0.0,0.0,0.0,0.0,0.0,0.0,0.0,0.0,0.0,0.0,0.0,0.0,0.0,0.0,0.0,0.0,0.0,0.0,0.0,0.0,0.0,0.0,0.0,0.0,0.0,0.0,0.0,0.0,0.0,0.0,0.0,0.0,0.0,0.0,0.0,0.0,0.0,0.0,0.0,0.0,0.0,0.0,0.0,0.0,0.0,0.0,0.0,0.0,0.0,0.0,0.0,0.0,0.0,0.0,-4.2231,-4.2681,-4.2986,-4.2874,-4.293,-4.2986,-4.2986,-4.2986,-4.2986,-4.2986,0.0,0.0,0.0,0.0,0.0,0.0,0.0,0.0,0.0,0.0,0.0,0.0,0.0,0.0,0.0,0.0,0.0,0.0,0.0,0.0,0.0,0.0,0.0,0.0,0.0,0.0,0.0,0.0,0.0,0.0,0.0,0.0,0.0,0.0,0.0,0.0,0.0,0.0,0.0,0.0,0.0,0.0,0.0,0.0,0.0,0.0,0.0,0.0,0.0,0.0,0.0,0.0,0.0,0.0,0.0,0.0,0.0,0.0,0.0,0.0,0.0,0.0,0.0,0.0,0.0,0.0,0.0,0.0,0.0,0.0,0.0,0.0,0.0,0.0,0.0,0.0,0.0,0.0,0.0,0.0,0.0,0.0,0.0,0.0,0.0,0.0,0.0,0.0,0.0,0.0,0.0,0.0,0.0,0.0,0.0,0.0,0.0,0.0,0.0,0.0,0.0,0.0,-4.2457,-4.2818,-4.2986,-4.2986,-4.2986,-4.2986,-4.2986,-4.2986,-4.2986,-4.2986,0.0,0.0,0.0,0.0,0.0,0.0,0.0,0.0,0.0,0.0,0.0,0.0,0.0,0.0,0.0,0.0,0.0,0.0,0.0,0.0,0.0,0.0,0.0,0.0,0.0,0.0,0.0,0.0,0.0,0.0,0.0,0.0,0.0,0.0,0.0,0.0,0.0,0.0,0.0,0.0,0.0,0.0,0.0,0.0,0.0,0.0,0.0,0.0,0.0,0.0,0.0,0.0,0.0,0.0,0.0,0.0,0.0,0.0,0.0,0.0,0.0,0.0,0.0,0.0,0.0,0.0,0.0,0.0,0.0,0.0,0.0,0.0,0.0,0.0,0.0,0.0,0.0,0.0,0.0,0.0,0.0,0.0,0.0,0.0,0.0,0.0,0.0,0.0,0.0,0.0,0.0,0.0,0.0,0.0,0.0,0.0,0.0,0.0,0.0,0.0,0.0,0.0,-4.2513,-4.2818,-4.2986,-4.2986,-4.2986,-4.2986,-4.2986,-4.2986,-4.2986,-4.2986,0.0,0.0,0.0,0.0,0.0,0.0,0.0,0.0,0.0,0.0,0.0,0.0,0.0,0.0,0.0,0.0,0.0,0.0,0.0,0.0,0.0,0.0,0.0,0.0,0.0,0.0,0.0,0.0,0.0,0.0,0.0,0.0,0.0,0.0,0.0,0.0,0.0,0.0,0.0,0.0,0.0,0.0,0.0,0.0,0.0,0.0,0.0,0.0,0.0,0.0,0.0,0.0,0.0,0.0,0.0,0.0,0.0,0.0,0.0,0.0,-3.302,-3.3294,0.0,0.0,0.0,0.0,0.0,0.0,0.0,0.0,0.0,0.0,0.0,0.0,0.0,0.0,0.0,0.0,0.0,0.0,0.0,0.0,0.0,0.0,0.0,0.0,0.0,0.0,0.0,0.0,0.0,0.0,0.0,0.0,0.0,0.0,0.0,0.0,0.0,0.0,0.0,0.0,-4.2513,-4.2818,-4.2986,-4.2986,-4.2986,-4.2986,-4.2986,-4.2986,-4.2986,-4.2986,-4.2986,0.0,0.0,0.0,0.0,0.0,0.0,0.0,0.0,0.0,0.0,0.0,0.0,0.0,0.0,0.0,0.0,0.0,0.0,0.0,0.0,0.0,0.0,0.0,0.0,0.0,0.0,0.0,0.0,0.0,0.0,0.0,0.0,0.0,0.0,0.0,0.0,0.0,0.0,0.0,0.0,0.0,0.0,0.0,0.0,0.0,0.0,0.0,0.0,0.0,0.0,0.0,0.0,0.0,0.0,0.0,0.0,0.0,0.0,0.0,-3.3404,-3.3861,0.0,0.0,0.0,0.0,0.0,0.0,0.0,0.0,0.0,0.0,0.0,0.0,0.0,0.0,0.0,0.0,0.0,0.0,0.0,0.0,0.0,0.0,0.0,0.0,0.0,0.0,0.0,0.0,0.0,0.0,0.0,0.0,0.0,0.0,0.0,0.0,0.0,0.0,0.0,0.0,-4.308,-4.3025,-4.2986,-4.2986,-4.2986,-4.2986,-4.2986,-4.2986,-4.2986,-4.2986,-4.2986,0.0,0.0,0.0,0.0,0.0,0.0,0.0,0.0,0.0,0.0,0.0,0.0,0.0,0.0,0.0,0.0,0.0,0.0,0.0,0.0,0.0,0.0,0.0,0.0,0.0,0.0,0.0,0.0,0.0,0.0,0.0,0.0,0.0,0.0,0.0,0.0,0.0,0.0,0.0,0.0,0.0,0.0,0.0,0.0,0.0,0.0,0.0,0.0,0.0,0.0,0.0,0.0,0.0,-3.1616,-3.1671,-3.2019,-3.2496,-3.2899,-3.3252,-3.3767,-3.4507,-3.5296,-3.552,0.0,0.0,0.0,0.0,0.0,0.0,0.0,0.0,0.0,0.0,0.0,0.0,0.0,0.0,0.0,0.0,0.0,0.0,0.0,0.0,0.0,0.0,-4.4285,-4.4285,-4.4285,-4.4165,-4.3746,0.0,0.0,0.0,0.0,0.0,0.0,0.0,0.0,0.0,0.0,0.0,-4.3758,-4.3313,-4.2986,-4.2986,-4.2986,-4.2986,-4.2986,-4.2986,-4.2986,-4.2986,-4.2986,-4.2986,0.0,0.0,0.0,0.0,0.0,0.0,0.0,0.0,0.0,0.0,0.0,0.0,0.0,0.0,0.0,0.0,0.0,0.0,0.0,0.0,0.0,0.0,0.0,0.0,0.0,0.0,0.0,0.0,0.0,0.0,0.0,0.0,-3.0898,-3.0898,0.0,0.0,0.0,0.0,0.0,0.0,0.0,0.0,0.0,0.0,0.0,0.0,0.0,-3.1084,-3.1524,-3.1488,-3.1469,-3.1469,-3.1781,-3.1946,-3.2038,-3.279,-3.3342,-3.3786,-3.4451,0.0,-3.4941,-3.5636,0.0,0.0,0.0,0.0,0.0,0.0,0.0,0.0,0.0,0.0,0.0,0.0,0.0,0.0,0.0,0.0,0.0,0.0,0.0,0.0,0.0,0.0,-4.4285,-4.4285,-4.4285,-4.4261,-4.4189,-4.4473,-4.4633,-4.4585,-4.4805,-4.4927,0.0,0.0,0.0,0.0,0.0,0.0,-4.379,-4.3313,-4.2986,-4.2986,-4.2986,-4.2986,-4.2986,-4.2986,-4.2986,-4.2986,-4.2986,-4.2986,-4.2986,-4.2986,0.0,0.0,0.0,0.0,0.0,0.0,0.0,0.0,0.0,0.0,0.0,0.0,0.0,0.0,0.0,0.0,0.0,0.0,0.0,0.0,0.0,0.0,0.0,0.0,0.0,0.0,0.0,0.0,0.0,-3.0898,-3.0898,-3.0898,-3.0898,-3.0762,0.0,0.0,0.0,0.0,0.0,0.0,0.0,0.0,0.0,-2.8409,-3.0145,-3.047,-2.8969,-2.9787,-3.0195,-3.0195,-3.0372,-3.1151,-3.2349,-3.2716,-3.3188,-3.3853,-3.4571,-3.4876,-3.4929,-3.5665,-3.6016,-3.6016,0.0,0.0,0.0,0.0,-3.6016,-3.6084,-3.6944,-3.8109,-3.9343,-3.9997,0.0,0.0,0.0,0.0,0.0,0.0,0.0,-4.4285,-4.4285,-4.4285,-4.4285,-4.4285,-4.4285,-4.4347,-4.4532,-4.484,-4.5025,-4.484,-4.5086,-4.527,-4.5086,-4.5316,0.0,0.0,0.0,-4.4618,-4.4292,-4.379,-4.3313,-4.3011,-4.2986,-4.2986,-4.2986,-4.2986,-4.2986,-4.2986,-4.2986,-4.2986,-4.2986,-4.2986,-4.3295,0.0,0.0,0.0,0.0,0.0,0.0,0.0,0.0,0.0,0.0,0.0,0.0,0.0,0.0,0.0,0.0,0.0,0.0,0.0,0.0,0.0,0.0,0.0,0.0,0.0,0.0,0.0,0.0,-3.0898,-3.0898,-3.0898,-3.0898,-3.0704,0.0,0.0,0.0,0.0,0.0,0.0,-2.7706,-2.8664,-2.846,-2.6724,-2.9028,-2.9248,-2.7105,-2.8526,-2.9134,-2.874,-2.9564,-3.0654,-3.1889,-3.2527,-3.3083,-3.367,-3.4521,-3.4921,-3.499,-3.5675,-3.6016,-3.6016,-3.6016,-3.6016,-3.6016,-3.6016,-3.6016,-3.6152,-3.7193,-3.8705,-4.0192,-4.0192,-4.2079,-4.4099,-4.3114,0.0,0.0,0.0,0.0,-4.4285,-4.4285,-4.4285,-4.4285,-4.4285,-4.4285,-4.4409,-4.4717,-4.5025,-4.5147,-4.5086,-4.5331,-4.5514,-4.5453,-4.5696,0.0,-4.5817,-4.567,-4.5271,-4.4694,-4.4141,-4.3589,-4.3037,-4.2986,-4.2986,-4.2986,-4.2986,-4.2986,-4.2986,-4.2986,-4.2986,-4.2986,-4.2986,-4.3517,-4.467,0.0,0.0,0.0,0.0,0.0,0.0,0.0,0.0,0.0,0.0,0.0,0.0,0.0,0.0,0.0,0.0,0.0,0.0,0.0,0.0,0.0,0.0,0.0,0.0,0.0,0.0,0.0,0.0,0.0,-3.0898,-3.0898,0.0,0.0,0.0,0.0,-2.9035,-2.8096,-2.7723,-2.802,-2.7164,-2.6805,-2.7073,-2.7238,-2.7254,-2.7105,-2.8526,-2.8592,-2.7254,-3.0368,-3.1241,-3.0148,-3.2201,-3.3211,-3.3266,-3.4408,-3.4921,-3.499,-3.5675,-3.6016,-3.6016,-3.6016,-3.6016,-3.6016,-3.6016,-3.6016,-3.6016,-3.6084,-3.7909,-4.0192,-4.0192,-4.2079,-4.4285,-4.4223,-4.4223,0.0,0.0,-4.4285,-4.4285,-4.4285,-4.4285,-4.4285,-4.4285,-4.4285,-4.4409,-4.4717,-4.484,-4.5025,-4.5635,-4.5999,-4.612,-4.5817,0.0,-4.618,-4.5817,-4.567,-4.5271,-4.4694,-4.4141,-4.3589,-4.3037,-4.2986,-4.2986,-4.2986,-4.2986,-4.2986,-4.2986,-4.2986,-4.2986,-4.2986,-4.2986,-4.3517,-4.467,-4.467,0.0,0.0,0.0,0.0,0.0,0.0,0.0,0.0,0.0,0.0,0.0,0.0,0.0,0.0,0.0,0.0,0.0,0.0,0.0,0.0,0.0,0.0,0.0,0.0,0.0,0.0,0.0,0.0,-3.0898,-3.0898,0.0,-2.9981,-2.9922,-2.9365,-2.8114,-2.7702,-2.6968,-2.5758,-2.6223,-2.5835,-2.4452,-2.6188,-2.6254,-2.4385,-2.5801,-2.627,-2.5801,-2.7848,-2.9242,-2.9963,-3.1679,-3.2735,-3.323,-3.4108,-3.4656,-3.499,-3.5675,-3.6016,-3.6016,-3.6016,-3.6016,-3.6016,-3.6016,-3.6016,-3.6016,-3.6016,-3.7842,-4.0452,-4.227,-4.3514,-4.4285,-4.4285,-4.4285,-4.4285,-4.4285,-4.4285,-4.4285,-4.4285,-4.4285,-4.4285,-4.4285,-4.4285,-4.4409,-4.4717,-4.4963,-4.527,-4.5696,-4.5878,-4.5939,-4.5817,-4.6059,-4.618,-4.5817,-4.591,-4.5673,-4.4744,-4.4443,-4.3991,-4.3062,-4.2986,-4.2986,-4.2986,-4.2986,-4.2986,-4.2986,-4.2986,-4.2986,-4.2986,-4.3713,-4.4615,-4.5714,-4.6451,-4.7536,0.0,0.0,0.0,0.0,0.0,0.0,0.0,0.0,0.0,0.0,0.0,0.0,0.0,0.0,0.0,0.0,0.0,0.0,0.0,0.0,0.0,0.0,0.0,0.0,0.0,-3.0898,-3.0898,-3.0898,-3.0898,-3.0645,-2.9981,-2.9922,-2.9241,-2.7614,-2.7131,-2.62,-2.451,-2.4959,-2.4573,-2.2928,-2.4723,-2.4791,-2.2928,-2.4278,-2.4738,-2.4331,-2.6188,-2.7765,-2.9027,-3.0575,-3.1812,-3.2826,-3.376,-3.438,-3.4781,-3.5549,-3.5879,-3.6016,-3.6016,-3.6016,-3.6016,-3.6016,-3.6016,-3.6152,-3.7079,-3.8639,-4.0646,-4.3451,-4.4285,-4.4285,-4.4285,-4.4285,-4.4285,-4.4285,-4.4285,-4.4285,-4.4285,-4.4285,-4.4285,-4.4285,-4.4285,-4.4409,-4.4717,-4.4963,-4.527,-4.5696,-4.5878,-4.5939,-4.5939,-4.612,-4.624,-4.5999,-4.618,-4.5899,-4.4769,-4.4618,-4.4192,-4.3087,-4.2986,-4.2986,-4.2986,-4.2986,-4.2986,-4.2986,-4.2986,-4.3184,-4.3572,-4.4315,-4.5422,-4.6867,-4.8021,-4.8951,-4.9717,0.0,0.0,0.0,0.0,0.0,0.0,0.0,0.0,0.0,0.0,0.0,0.0,0.0,0.0,0.0,0.0,0.0,0.0,0.0,0.0,0.0,0.0,0.0,-3.0898,-3.0898,-3.0898,-3.0898,-3.0898,-3.0645,-2.9981,-2.9882,-2.92,-2.7569,-2.6484,-2.5424,-2.4407,-2.3446,-2.2928,-2.2928,-2.2928,-2.2928,-2.2928,-2.4278,-2.4278,-2.2928,-2.5719,-2.7105,-2.7187,-2.9093,-3.0694,-3.2056,-3.3248,-3.4007,-3.4364,-3.5141,-3.5675,-3.6016,-3.6016,-3.6016,-3.6016,-3.6016,-3.6016,-3.6471,-3.9212,-4.0192,-4.071,-4.3428,-4.4285,-4.4285,-4.4285,-4.4285,-4.4285,-4.4285,-4.4285,-4.4285,-4.4285,-4.4285,-4.4285,-4.4285,-4.4285,-4.4409,-4.4717,-4.4779,-4.5025,-4.5635,-4.6059,-4.6301,-4.6301,-4.6301,-4.6301,-4.6301,-4.6301,0.0,-4.4769,-4.4618,-4.4192,-4.3087,-4.2986,-4.2986,-4.2986,-4.2986,-4.3042,-4.3017,-4.3017,-4.3572,-4.467,-4.4778,-4.582,-4.8021,-4.9149,-4.9717,-4.9717,0.0,0.0,0.0,0.0,0.0,0.0,0.0,0.0,0.0,0.0,0.0,0.0,0.0,0.0,0.0,0.0,0.0,0.0,0.0,0.0,0.0,-3.0898,-3.0898,-3.0898,-3.0898,-3.0898,-3.0898,-3.0898,-3.0645,-2.9981,-2.9273,-2.8123,-2.6437,-2.5375,-2.4341,-2.3405,-2.3024,-2.2928,-2.2928,-2.2928,-2.2928,-2.2928,-2.327,-2.327,-2.2928,-2.5719,-2.7105,-2.7187,-2.9826,-3.1382,-3.2019,-3.2899,-3.3662,-3.4345,-3.5104,-3.5675,-3.6016,-3.6016,-3.6016,-3.6016,-3.6016,-3.6674,-3.7775,-3.9561,-4.0862,-4.2016,-4.3764,-4.4285,-4.4285,-4.4285,-4.4285,-4.4285,-4.4285,-4.4285,-4.4285,-4.4285,-4.4285,-4.4285,-4.4285,-4.4285,-4.4347,-4.4409,-4.4656,-4.4902,-4.5331,-4.5696,-4.5999,-4.624,-4.6301,-4.6301,-4.6301,-4.6301,-4.5899,-4.4769,-4.4618,-4.4192,-4.3087,-4.2986,-4.2986,-4.2986,-4.2986,-4.3351,-4.4206,-4.4261,-4.4724,-4.582,-4.666,-4.7768,-4.9198,-4.9522,-4.9717,0.0,0.0,0.0,0.0,0.0,0.0,0.0,0.0,0.0,0.0,0.0,0.0,0.0,0.0,0.0,0.0,0.0,0.0,0.0,0.0,0.0,0.0,-3.0898,-3.0898,-3.0898,-3.0898,-3.0898,-3.0898,-3.0762,-3.0351,-2.9375,-2.8592,-2.7402,-2.5439,-2.4752,-2.3951,-2.2983,-2.2928,-2.2928,-2.2928,-2.2928,-2.2928,-2.2928,-2.2928,-2.2928,-2.2928,-2.5128,-2.6522,-2.7187,-2.9444,-3.0988,-3.1809,-3.2516,-3.318,-3.3852,-3.4767,-3.5393,-3.5781,0.0,0.0,0.0,0.0,-3.6876,-3.8308,-3.967,-4.1119,-4.2546,-4.3826,-4.4285,-4.4285,-4.4285,-4.4285,-4.4285,-4.4285,-4.4285,-4.4285,-4.4285,-4.4285,-4.4285,-4.4285,-4.4285,-4.4285,-4.4285,-4.4532,-4.4902,-4.5208,-4.5574,0.0,-4.624,-4.6301,-4.6301,-4.6301,-4.6301,-4.5899,-4.4769,-4.4618,-4.4192,-4.3087,-4.2986,-4.2986,-4.2986,-4.2986,0.0,0.0,0.0,-4.5422,-4.6971,-4.8122,0.0,0.0,0.0,-4.9717,-4.9717,-4.9717,0.0,0.0,-4.9494,-4.9465,0.0,0.0,0.0,0.0,0.0,0.0,0.0,0.0,0.0,0.0,0.0,0.0,0.0,0.0,0.0,0.0,-3.0898,-3.0898,-3.0898,-3.0898,-3.084,-3.0704,-3.0392,-2.9639,-2.8333,-2.7771,-2.664,-2.4562,-2.4303,-2.3859,-2.2914,-2.2928,0.0,0.0,0.0,-2.2928,-2.2928,-2.2928,-2.2928,-2.2928,-2.4467,-2.5868,-2.7187,-2.8789,-3.026,-3.146,-3.2153,-3.2748,-3.3234,-3.4326,-3.4959,-3.543,-3.5859,-3.6016,-3.6016,-3.6016,-3.7011,-3.8507,-3.9736,0.0,0.0,-4.3888,-4.4285,-4.4285,-4.4285,-4.4285,-4.4285,-4.4285,-4.4285,-4.4285,-4.4285,-4.4285,-4.4285,-4.4285,-4.4285,-4.4285,-4.4347,-4.4594,-4.4902,-4.527,-4.5574,-4.5853,-4.6165,-4.6276,-4.6301,-4.6301,-4.6301,-4.5899,-4.4769,-4.4618,-4.4192,-4.3087,-4.2986,0.0,-4.3184,-4.3184,-4.3713,-4.4993,-4.5208,-4.6137,-4.8122,-4.9149,-4.9717,-4.9717,-4.9717,-4.9717,-4.9717,-4.9717,-4.9717,-4.9717,-4.9717,-4.9717,0.0,0.0,0.0,0.0,0.0,0.0,0.0,0.0,0.0,0.0,0.0,0.0,0.0,0.0,0.0,-3.0898,-3.0898,-3.0898,-3.0898,-3.0898,-3.0528,-2.9412,-2.8979,-2.8289,-2.6963,-2.5802,-2.4864,-2.4444,-2.3646,-2.3147,-2.2928,-2.2928,-2.2928,-2.2928,-2.2928,-2.2928,-2.2928,-2.2928,-2.2928,-2.2928,-2.545,0.0,-2.7172,-2.9787,-3.1313,-3.1864,-3.2241,-3.2853,-3.352,-3.4063,-3.468,-3.543,-3.5859,-3.6016,-3.6016,-3.6016,-3.7595,-3.9801,-4.0127,-4.1824,-4.3974,-4.4223,-4.4285,-4.4285,-4.4285,-4.4285,0.0,-4.4285,-4.4285,-4.4285,-4.4285,-4.4285,-4.4285,-4.4285,-4.4285,-4.4347,-4.4656,-4.4779,-4.4963,-4.5574,-4.5757,-4.5729,-4.5664,-4.6024,-4.6301,-4.6301,-4.6301,-4.5899,-4.4769,-4.4618,-4.4192,-4.3087,-4.2986,-4.3351,-4.4315,-4.437,-4.5262,-4.7229,-4.8223,-4.8951,-4.9375,-4.9571,-4.9717,-4.9717,-4.9717,-4.9717,-4.9717,-4.9717,-4.9717,-4.9717,-4.9717,-4.9717,0.0,0.0,0.0,0.0,0.0,0.0,0.0,0.0,0.0,0.0,0.0,-3.0898,-3.0898,0.0,-3.0898,-3.0898,-3.0898,-3.0898,-3.0898,-3.0898,-3.0392,-2.9039,-2.8607,-2.7721,-2.585,-2.4929,-2.4159,-2.3686,-2.3188,-2.2928,-2.2928,-2.2928,-2.2928,-2.2928,-2.2928,-2.2928,-2.2928,-2.2928,-2.327,-2.4006,-2.6121,-2.7519,-2.8262,-3.0584,-3.1717,-3.191,-3.2422,-3.2855,-3.3322,-3.3856,-3.4453,-3.5098,-3.5527,-3.584,-3.6016,-3.6016,-3.7775,-4.0192,-4.0192,-4.2016,-4.4285,-4.4285,-4.4285,-4.4285,-4.4285,-4.4285,-4.4285,-4.4285,-4.4285,-4.4285,-4.4285,-4.4285,-4.4347,-4.4532,-4.4532,-4.4656,-4.4963,-4.4988,-4.4998,-4.536,-4.5291,-4.5194,-4.5037,-4.5296,-4.5472,-4.5472,-4.5472,-4.5171,-4.4317,-4.4217,-4.389,-4.3062,-4.3517,-4.4097,-4.4615,-4.5714,-4.6816,-4.792,-4.905,-4.9717,-4.9717,-4.9717,-4.9717,-4.9717,-4.9717,-4.9717,-4.9717,-4.9717,-4.9717,-4.9717,-4.9717,-4.9717,0.0,0.0,0.0,0.0,0.0,0.0,0.0,-3.1112,-3.0898,-3.0898,-3.0898,-3.0898,-3.0898,-3.0898,-3.0898,-3.0898,-3.0898,-3.0898,-3.0898,-3.0704,-3.0058,-2.8792,-2.8339,-2.7226,-2.4864,-2.4313,-2.3817,-2.2983,-2.2928,-2.2928,-2.2928,-2.2928,-2.2928,-2.2928,-2.2928,-2.2928,-2.2928,-2.2928,-2.3597,-2.5008,-2.6455,-2.785,-2.933,-3.112,-3.1929,-3.2038,-3.274,-3.2975,-3.3077,-3.3823,-3.4277,-3.4629,-3.5078,-3.5469,-3.5781,-3.5957,-3.7775,-4.0192,-4.0192,-4.2016,-4.4285,-4.4285,-4.4285,-4.4285,-4.4285,-4.4285,-4.4285,-4.4285,-4.4285,-4.4285,-4.4285,-4.4285,-4.4323,-4.451,-4.4609,-4.4707,-4.4914,-4.4907,-4.4848,-4.4908,-4.4769,-4.4593,-4.4493,-4.4468,-4.4493,-4.4593,-4.4618,-4.4418,-4.3865,-4.379,-4.3702,-4.3346,-4.4152,-4.4886,-4.5315,-4.7177,-4.8324,-4.8324,-4.9198,-4.9717,-4.9717,-4.9717,-4.9717,-4.9717,-4.9717,-4.9717,-4.9717,-4.9717,-4.9717,-4.9717,-4.9717,-4.9717,-3.5335,-3.3702,-3.2329,-3.1804,-3.1714,-3.173,0.0,-3.1112,-3.0898,-3.0898,-3.0898,-3.0898,-3.0898,-3.0898,-3.0898,-3.0898,-3.0898,-3.0898,-3.0898,-2.9844,-2.875,-2.7756,-2.7395,-2.6244,-2.3894,-2.3342,-2.3078,-2.2914,-2.2928,-2.2928,-2.2928,-2.2928,-2.2928,-2.2928,-2.2928,-2.2928,-2.2928,-2.2928,-2.3597,-2.5008,-2.6455,-2.785,-2.933,-3.112,-3.2038,-3.2358,-3.3038,-3.3355,-3.3394,-3.3887,-3.4101,-3.418,-3.4609,-3.4805,-3.4941,-3.5723,-3.7775,-4.0192,-4.0192,-4.2016,-4.4285,-4.4285,-4.4285,-4.4285,-4.4285,-4.4285,-4.4285,-4.4285,-4.4285,-4.4285,-4.4285,-4.4285,-4.4165,-4.3721,-4.3869,-4.4074,-4.3885,-4.4092,-4.4335,-4.4602,-4.4611,-4.4468,-4.3966,-4.389,-4.4066,-4.4543,-4.4618,-4.4418,-4.3865,-4.379,-4.3959,-4.4476,-4.4615,-4.5529,-4.7434,-4.8802,-4.9522,-4.9522,-4.962,-4.9717,-4.9717,-4.9717,-4.9717,-4.9717,-4.9717,-4.9717,-4.9717,-4.9717,-4.9717,-4.9717,-4.9717,-4.9717,-3.4182,-3.259,-3.1466,-3.1445,-3.1474,-3.1441,-3.1112,-3.0995,-3.0898,-3.0898,-3.0898,-3.0898,-3.0898,-3.0898,-3.0898,-3.0898,-3.0898,-3.0898,-3.0898,-3.0392,-2.9476,-2.7996,-2.7486,-2.6232,-2.3714,-2.3187,-2.293,-2.2928,-2.2928,-2.2928,-2.2928,-2.2928,-2.2928,-2.2928,-2.2928,-2.2928,-2.2928,-2.2928,-2.3992,-2.6254,-2.7055,-2.8575,-3.0861,-3.1955,-3.2676,-3.2975,-3.3292,-3.3418,-3.3437,-3.3613,-3.3691,-3.373,-3.416,-3.4336,-3.4544,-3.5922,-3.7858,-3.9905,-4.0673,-4.2395,-4.4285,-4.4285,-4.4285,-4.4285,-4.4285,-4.4285,-4.4213,-4.3901,-4.3866,-4.3794,-4.3505,-4.3433,-4.3482,-4.3625,-4.3755,-4.3919,-4.4169,-4.4103,-4.3994,-4.4084,-4.389,-4.3589,-4.3363,-4.3313,-4.3388,-4.3639,-4.3664,-4.3589,-4.3338,-4.3904,-4.4931,-4.6478,-4.6608,-4.7229,-4.8852,-4.9424,-4.9717,-4.9717,-4.9717,-4.9717,-4.9717,-4.9717,-4.9717,-4.9717,-4.9717,-4.9717,-4.9717,-4.9717,-4.9717,-4.9717,-4.9717,-4.9717,-3.2533,-3.1491,-3.093,-3.1085,-3.1187,-3.1208,-3.0937,-3.0898,-3.0898,-3.0898,-3.0898,-3.0898,-3.0898,-3.0898,-3.0898,-3.0898,-3.0898,-3.0898,-3.0898,-3.0587,-2.9789,-2.822,-2.7344,-2.599,-2.3842,-2.3283,-2.2996,-2.2928,-2.2928,-2.2928,-2.2928,-2.2928,-2.2928,-2.2928,-2.2928,-2.2928,-2.2928,-2.2928,-2.4331,-2.7105,-2.7453,-2.9117,-3.1929,-3.2613,-3.3102,-3.3418,-3.3418,-3.3418,-3.3418,-3.3418,-3.3418,-3.3457,-3.3769,-3.4142,-3.4672,-3.6288,-3.791,-3.9443,-4.0848,-4.2427,-4.3914,-4.3914,-4.3914,-4.3914,-4.3914,-4.3914,-4.3818,-4.3409,-4.3313,-4.3216,-4.2916,-4.2819,-4.289,-4.3277,-4.3428,-4.3555,-4.3904,-4.3808,-4.3564,-4.3564,-4.3263,-4.2986,-4.2986,-4.324,-4.3462,-4.3462,-4.3713,-4.3823,-4.3517,-4.4724,-4.6242,-4.7819,-4.8274,-4.8802,-4.962,-4.9717,-4.9717,-4.9717,-4.9717,-4.9717,-4.9717,-4.9717,-4.9717,-4.9717,-4.9717,-4.9717,-4.9717,-4.9717,-4.9717,-4.9717,-4.9717,-4.9717,-3.0125,-3.0213,-3.0545,-3.0571,-3.095,-3.1208,-3.0937,-3.0898,-3.0898,-3.0898,-3.0898,-3.0898,-3.0898,-3.0898,-3.0898,-3.0898,-3.0898,-3.0898,-3.0898,-2.9785,-2.8733,-2.8094,-2.6535,-2.5141,-2.4085,-2.3611,-2.327,-2.2928,-2.2928,-2.2928,-2.2928,-2.2928,-2.2928,-2.2928,-2.2928,-2.2928,-2.2928,-2.2928,-2.4331,-2.7105,-2.7453,-2.9117,-3.1929,-3.2613,-3.3102,-3.3418,-3.3418,-3.3418,-3.3418,-3.3418,-3.3418,-3.3418,-3.3437,-3.4235,-3.552,-3.6807,-3.7881,-3.8916,-4.0263,-4.1653,-4.2867,-4.2867,-4.2867,-4.2867,-4.2867,-4.2867,-4.2867,-4.2843,-4.2843,-4.2843,-4.2819,-4.2819,-4.2734,-4.2496,-4.269,-4.2856,-4.263,-4.2787,-4.3011,-4.3011,-4.2986,-4.2986,-4.2986,-4.3932,-4.4615,-4.4615,-4.5555,-4.582,-4.4778,-4.6556,-4.792,-4.7971,-4.9001,-4.9669,-4.9717,-4.9717,-4.9717,-4.9717,-4.9717,-4.9717,-4.9717,-4.9717,-4.9717,-4.9717,-4.9717,-4.9717,-4.9717,-4.9717,-4.9717,-4.9717,-4.9717,-4.9717,-2.9734,-3.0004,-3.0381,-3.072,-3.0897,-3.0995,-3.0937,-3.0898,-3.0898,-3.0898,-3.0898,-3.0898,-3.0898,-3.0898,-3.0898,-3.0898,-3.0898,-3.0898,-3.0898,-2.9952,-2.8918,-2.8112,-2.6488,-2.5069,-2.4114,-2.3611,-2.327,-2.2928,-2.2928,-2.2928,-2.2928,-2.2928,-2.2928,-2.2928,-2.2928,-2.2928,-2.2928,-2.406,-2.5584,-2.7453,-2.9947,-3.1726,-3.2912,-3.3102,-3.3292,-3.3418,-3.3418,-3.3418,-3.3418,-3.3418,-3.3418,-3.3418,-3.3418,-3.4215,-3.5561,-3.6824,-3.8049,-3.9288,-4.0997,-4.209,-4.2819,-4.2819,-4.2819,-4.2819,-4.2819,-4.2819,-4.2747,-4.2386,-4.2289,-4.2217,-4.1798,-4.1701,-4.1769,-4.1865,-4.2127,-4.2364,-4.245,-4.2737,-4.2986,-4.2986,-4.3628,-4.4152,-4.4152,-4.5047,-4.5767,-4.5767,-4.6057,-4.6424,-4.6816,-4.7564,-4.8274,-4.905,-4.9473,-4.9717,-4.9717,-4.9717,-4.9717,-4.9717,-4.9717,-4.9717,-4.9717,-4.9717,-4.9717,-4.9717,-4.9717,-4.9717,-4.9717,-4.9717,-4.9717,-4.9717,-4.9717,-4.9717,-2.976,-3.0,-3.0312,-3.0781,-3.0898,-3.0898,-3.0898,-3.0898,-3.0898,-3.0898,-3.0898,-3.0898,-3.0898,-3.0898,-3.0898,-3.0898,-3.0898,-3.0937,-3.1094,-3.0536,-2.9666,-2.8381,-2.7117,-2.5769,-2.4128,-2.3611,-2.327,-2.2928,-2.2928,-2.2928,-2.2928,-2.2928,-2.2928,-2.2928,-2.2928,-2.2928,-2.3065,-2.4723,-2.6573,-2.8755,-3.1598,-3.3102,-3.3418,-3.3418,-3.3418,-3.3418,-3.3418,-3.3418,-3.3418,-3.3418,-3.3418,-3.3418,-3.3902,-3.4943,-3.6215,-3.7489,-3.8803,-4.0071,-4.1325,-4.1976,-4.2265,-4.2265,-4.2265,-4.2265,-4.2265,-4.2265,-4.2193,-4.1774,-4.1677,-4.1605,-4.1268,-4.1172,-4.1287,-4.1688,-4.1915,-4.2224,-4.2594,-4.2874,-4.3129,-4.3517,-4.4206,-4.4832,-4.5182,-4.6189,-4.7074,-4.7485,-4.7536,-4.7638,-4.7971,-4.8374,-4.8902,-4.962,-4.9717,-4.9717,-4.9717,-4.9717,-4.9717,-4.9717,-4.9717,-4.9717,-4.9717,-4.9717,-4.9717,-4.9717,-4.9717,-4.9717,-4.9717,-4.9717,-4.9717,-4.9717,-4.9717,-4.9717,-3.0037,-3.0215,-3.0332,-3.0781,-3.0898,-3.0898,-3.0898,-3.0898,-3.0898,-3.0898,-3.0898,-3.0898,-3.0898,-3.0898,-3.0898,-3.0898,-3.0898,-3.1035,-3.1465,-3.1404,-3.0667,-2.8835,-2.8185,-2.6903,-2.4263,-2.3611,-2.327,-2.2928,-2.2928,-2.2928,-2.2928,-2.2928,-2.2928,-2.2928,-2.2928,-2.3133,-2.3475,-2.4979,-2.7487,-3.0964,-3.232,-3.3102,-3.3418,-3.3418,-3.3418,-3.3418,-3.3418,-3.3418,-3.3418,-3.3418,-3.3418,-3.3544,-3.4881,-3.6154,-3.7467,-3.8744,-4.0083,-4.1172,-4.1172,-4.1172,-4.1172,-4.1172,-4.1172,-4.1172,-4.1172,-4.1172,-4.1172,-4.1172,-4.1172,-4.1172,-4.1172,-4.1172,-4.1344,-4.194,-4.211,-4.228,-4.2874,-4.2986,-4.3295,-4.4424,-4.467,-4.5154,-4.6267,-4.7383,-4.8424,-4.9522,-4.9717,-4.9326,-4.8223,-4.905,-4.9717,-4.9717,-4.9717,-4.9717,-4.9717,-4.9717,-4.9717,-4.9717,-4.9717,-4.9717,-4.9717,-4.9717,-4.9717,-4.9717,-4.9717,-4.9717,-4.9717,-4.9717,-4.9717,-4.9717,-4.9717,-4.9717,-3.0137,-3.0449,-3.0742,-3.0859,-3.0898,-3.0898,-3.0898,-3.0898,-3.0898,-3.0898,-3.0898,-3.0898,-3.0898,-3.0898,-3.0898,-3.0898,-3.0898,-3.1035,-3.1465,-2.9984,-2.8842,-2.8614,-2.6703,-2.5069,-2.4088,-2.3611,-2.327,-2.2928,-2.2928,-2.2928,-2.2928,-2.2928,-2.2928,-2.2928,-2.3133,-2.3802,-2.4926,-2.7949,-3.0578,-3.2746,-3.3102,-3.3292,-3.3418,-3.3418,-3.3418,-3.3418,-3.3418,-3.3418,-3.3418,-3.3418,-3.3418,-3.3544,-3.4881,-3.6154,-3.7467,-3.8744,-4.0083,-4.1172,-4.1172,-4.1172,-4.1172,-4.1172,-4.1172,-4.1172,-4.1172,-4.1172,-4.1172,-4.1172,-4.1172,-4.1172,-4.1172,-4.1172,-4.1287,-4.1606,-4.1915,-4.2224,-4.2538,-4.2793,-4.3098,-4.3351,-4.4752,-4.6556,-4.8474,-4.91,-4.9375,-4.9669,-4.9717,-4.962,-4.9326,-4.9522,-4.9717,-4.9717,-4.9717,-4.9717,-4.9717,-4.9717,-4.9717,-4.9717,-4.9717,-4.9717,-4.9717,-4.9717,-4.9717,-4.9717,-4.9717,-4.9717,-4.9717,-4.9717,-4.9717,-4.9717,-4.9717,-4.9717,-3.0449,-3.0703,-3.0898,-3.0898,-3.0898,-3.0898,-3.0898,-3.0898,-3.0898,-3.0898,-3.0898,-3.0898,-3.0898,-3.0898,-3.0957,-3.1133,-3.1172,-3.1387,-3.1992,-3.0958,-2.978,-2.8935,-2.734,-2.5749,-2.436,-2.3884,-2.3475,-2.3133,-2.2996,-2.2928,-2.2928,-2.3065,-2.3133,-2.3133,-2.4074,-2.5651,-2.7817,-2.993,-3.1835,-3.3418,-3.3418,-3.3418,-3.3418,-3.3418,-3.3418,-3.3418,-3.3418,-3.3418,-3.3418,-3.3418,-3.3733,-3.4403,-3.5725,-3.7006,-3.8328,-3.9592,-4.0571,-4.1172,-4.1172,-4.1172,-4.1172,-4.1172,-4.1172,-4.1172,-4.1172,-4.1172,-4.1172,-4.1172,-4.1172,-4.123,-4.1344,-4.1402,-4.1492,-4.1891,-4.2142,-4.2369,-4.265,-4.2874,-4.3295,-4.4235,-4.6267,-4.8195,-4.9473,-4.9717,-4.9717,-4.9717,-4.9717,-4.9717,-4.9717,-4.9717,-4.9717,-4.9717,-4.9717,-4.9717,-4.9717,-4.9717,-4.9717,-4.9717,-4.9717,-4.9717,-4.9717,-4.9717,-4.9717,-4.9717,-4.9717,-4.9717,-4.9717,-4.9717,-4.9717,-4.9717,-4.9717,-4.9717,-3.0781,-3.0898,-3.0898,-3.0898,-3.0898,-3.0898,-3.0898,-3.0898,-3.0898,-3.0898,-3.0898,-3.0898,-3.0898,-3.0898,-3.1035,-3.1445,-3.1523,-3.1816,-3.2676,-3.2463,-3.147,-2.9474,-2.8592,-2.727,-2.4766,-2.4238,-2.3884,-2.3543,-2.3201,-2.2996,-2.2996,-2.327,-2.3543,-2.3802,-2.5734,-2.8032,-3.0836,-3.1304,-3.2174,-3.3418,-3.3418,-3.3418,-3.3418,-3.3418,-3.3418,-3.3418,-3.3418,-3.3418,-3.3418,-3.3607,-3.434,-3.5561,-3.7006,-3.8209,-3.9334,-4.0687,-4.1172,-4.1172,-4.1172,-4.1172,-4.1172,-4.1172,-4.1172,-4.1172,-4.1172,-4.1172,-4.1172,-4.1172,-4.1172,-4.123,-4.1549,-4.1606,-4.1777,-4.2344,-4.2513,-4.2569,-4.293,-4.3129,-4.3878,-4.611,-4.8094,-4.9522,-4.9669,-4.9717,-4.9717,-4.9717,-4.9717,-4.9717,-4.9717,-4.9717,-4.9717,-4.9717,-4.9717,-4.9717,-4.9717,-4.9717,-4.9717,-4.9717,-4.9717,-4.9717,-4.9717,-4.9717,-4.9717,-4.9717,-4.9717,-4.9717,-4.9717,-4.9717,-4.9717,-4.9717,-4.9717,-4.964,-3.0859,-3.0898,-3.0898,-3.0898,-3.0898,-3.0898,-3.0898,-3.0898,-3.0898,-3.0898,-3.0898,-3.0898,-3.0898,-3.0898,-3.1035,-3.1445,-3.1523,-3.1816,-3.2676,-3.0799,-2.9334,-2.9213,-2.7153,-2.5375,-2.4563,-2.4428,-2.4292,-2.3884,-2.3816,-2.3679,-2.3338,-2.3406,-2.421,-2.6017,-2.8624,-3.0384,-3.1176,-3.2428,-3.3165,-3.3418,-3.3418,-3.3418,-3.3418,-3.3418,-3.3418,-3.3418,-3.3418,-3.3418,-3.3481,-3.459,-3.5191,-3.5623,-3.797,-3.898,-3.9334,-4.0687,-4.1172,-4.1172,-4.1172,-4.1172,-4.1172,-4.1172,-4.1172,-4.1172,-4.1172,-4.1172,-4.1172,-4.1172,-4.1172,-4.123,-4.1549,-4.1606,-4.1777,-4.2344,-4.2513,-4.2569,-4.293,-4.3713,-4.5047,-4.728,-4.8021,-4.8603,-4.9522,-4.9717,-4.9717,-4.9717,-4.9717,-4.9717,-4.9717,-4.9717,-4.9717,-4.9717,-4.9717,-4.9717,-4.9717,-4.9717,-4.9717,-4.9717,-4.9717,-4.9717,-4.9717,-4.9717,-4.9717,-4.9717,-4.9717,-4.9717,-4.9717,-4.9717,-4.9717,-4.9717,-4.9717,-4.9378,-3.0898,-3.0898,-3.0898,-3.0898,-3.0898,-3.0898,-3.0898,-3.0898,-3.0898,-3.0898,-3.0898,-3.0957,-3.1172,-3.1211,-3.1426,-3.207,-3.2187,-3.2402,-3.3027,-3.1954,-3.0655,-2.9361,-2.8015,-2.6635,-2.4984,-2.4781,-2.4645,-2.4306,-2.4238,-2.4088,-2.3747,-2.4549,-2.627,-2.8952,-3.0337,-3.1515,-3.2365,-3.3082,-3.3418,-3.3418,-3.3418,-3.3418,-3.3418,-3.3418,-3.3418,-3.3418,-3.3418,-3.3418,-3.3481,-3.4819,-3.5786,-3.6581,-3.8447,-3.965,-4.0316,-4.0942,-4.1172,-4.1172,-4.1172,-4.1172,-4.1172,-4.1172,-4.1172,-4.1172,-4.1172,-4.1172,-4.1172,-4.1172,-4.1172,-4.1287,-4.1745,-4.1859,-4.2029,-4.265,-4.324,-4.3713,-4.3823,-4.5208,-4.6712,-4.7819,-4.8474,-4.905,-4.962,-4.9717,-4.9717,-4.9717,-4.9717,-4.9717,-4.9717,-4.9717,-4.9717,-4.9717,-4.9717,-4.9717,-4.9717,-4.9717,-4.9717,-4.9717,-4.9717,-4.9717,-4.9717,-4.9717,-4.9717,-4.9717,-4.9717,-4.9717,-4.9717,-4.9717,-4.9717,-4.9717,-4.9717,-4.932,-3.0898,-3.0898,-3.0898,-3.0898,-3.0898,-3.0898,-3.0898,-3.0898,-3.0898,-3.0898,-3.0957,-3.1133,-3.1445,-3.1601,-3.1774,-3.2285,-3.2607,-3.2805,-3.2961,-3.2702,-3.1662,-2.9444,-2.8657,-2.7618,-2.5712,-2.5255,-2.5119,-2.5037,-2.5037,-2.4902,-2.4563,-2.647,-2.8772,-3.124,-3.1579,-3.2301,-3.3355,-3.3418,-3.3418,-3.3418,-3.3418,-3.3418,-3.3418,-3.3418,-3.3418,-3.3418,-3.3418,-3.3418,-3.3544,-3.5129,-3.6399,-3.7489,-3.9039,-4.0257,-4.1172,-4.1172,-4.1172,-4.1172,-4.1172,-4.1172,-4.1172,-4.1172,-4.1172,-4.1172,-4.1172,-4.1172,-4.1172,-4.1172,-4.1172,-4.1344,-4.194,-4.211,-4.2312,-4.3129,-4.4206,-4.5101,-4.5342,-4.6764,-4.8072,-4.8324,-4.91,-4.9717,-4.9717,-4.9717,-4.9717,-4.9717,-4.9717,-4.9717,-4.9717,-4.9717,-4.9717,-4.9717,-4.9717,-4.9717,-4.9717,-4.9717,-4.9717,-4.9717,-4.9717,-4.9717,-4.9717,-4.9717,-4.9717,-4.9717,-4.9717,-4.9717,-4.9717,-4.9717,-4.9717,-4.9717,-4.9524,-4.9117,-3.0898,-3.0898,-3.0898,-3.0898,-3.0898,-3.0898,-3.0898,-3.0898,-3.0898,-3.0898,-3.1191,-3.1465,-3.1504,-3.1836,-3.188,-3.1039,-3.1965,-3.2493,-3.1588,-3.0419,-2.9509,-2.9248,-2.702,-2.5846,-2.682,-2.5846,-2.5577,-2.6753,-2.6886,-2.6686,-2.6404,-2.923,-3.0983,-3.1304,-3.2556,-3.3292,-3.3418,-3.3418,-3.3418,-3.3418,-3.3418,-3.3418,-3.3418,-3.3418,-3.3418,-3.3418,-3.3418,-3.3418,-3.3607,-3.6093,-3.7188,-3.755,-4.0024,-4.1115,-4.1172,-4.1172,-4.1172,-4.1172,-4.1172,-4.1172,-4.1172,-4.1172,-4.1172,-4.1172,-4.1172,-4.1172,-4.1172,-4.1172,-4.1172,-4.1344,-4.194,-4.211,-4.2538,-4.4152,-4.5342,-4.6451,-4.7485,-4.7869,-4.8324,-4.9375,-4.962,-4.9717,-4.9717,-4.9717,-4.9717,-4.9717,-4.9717,-4.9717,-4.9717,-4.9717,-4.9717,-4.9717,-4.9717,-4.9717,-4.9717,-4.9717,-4.9717,-4.9717,-4.9717,-4.9717,-4.9717,-4.9717,-4.9717,-4.9717,-4.9717,-4.9717,-4.9717,-4.9717,-4.9717,-4.9717,-4.9088,-4.8478,-3.0898,-3.0898,-3.0898,-3.0898,-3.0898,-3.0898,-3.0898,-3.0898,-3.0957,-3.1211,-3.1406,-3.168,-3.2187,-3.2422,-3.249,-3.2314,-3.2055,-3.1795,-3.135,-3.0095,-2.9182,-2.9182,-2.8196,-2.7419,-2.7153,-2.7352,-2.7816,-2.8328,-2.9165,-2.9557,-2.9426,-3.0595,-3.1707,-3.2556,-3.3102,-3.3418,-3.3418,-3.3418,-3.3418,-3.3418,-3.3418,-3.3418,-3.3418,-3.3418,-3.3418,-3.3418,-3.3418,-3.3418,-3.3607,-3.6215,-3.7309,-3.755,-4.0199,-4.1172,-4.1172,-4.1172,-4.1172,-4.1172,-4.1172,-4.1172,-4.1172,-4.1172,-4.1172,-4.1172,-4.1172,-4.1172,-4.1172,-4.1172,-4.1344,-4.1573,-4.1997,-4.2849,-4.3962,-4.5342,-4.6503,-4.7434,-4.792,-4.8553,-4.9149,-4.962,-4.9717,-4.9717,-4.9717,-4.9717,-4.9717,-4.9717,-4.9717,-4.9717,-4.9717,-4.9717,-4.9717,-4.9717,-4.9717,-4.9717,-4.9717,-4.9717,-4.9717,-4.9717,-4.9717,-4.9717,-4.9717,-4.9717,-4.9717,-4.9717,-4.9717,-4.9717,-4.9717,-4.9717,-4.9465,-4.9088,-4.8827,-4.8188,-3.0898,-3.0898,-3.0898,-3.0898,-3.0898,-3.0898,-3.0898,-3.0996,-3.1152,-3.1445,-3.1719,-3.207,-3.2676,-3.2891,-3.2941,0.0,-3.2301,-3.1771,-3.1387,-3.0095,-2.9182,-2.9182,-2.846,-2.7949,-2.7734,-2.8986,-2.9835,-2.9835,-3.0725,-3.1515,-3.1899,-3.1899,-3.2365,-3.3355,-3.3418,-3.3418,-3.3418,-3.3418,-3.3418,-3.3418,-3.3418,-3.3418,-3.3418,-3.3418,-3.3418,-3.3418,-3.3859,-3.3965,-3.4215,-3.6803,-3.785,-3.8089,-4.0339,-4.1172,-4.1172,-4.1172,-4.1172,-4.1172,-4.1172,-4.1172,-4.1172,-4.1172,-4.1172,-4.1172,-4.1287,-4.123,-4.123,-4.1287,-4.1549,-4.1891,-4.2142,-4.3436,-4.4993,-4.6005,-4.7177,-4.8072,-4.8424,-4.91,-4.9717,-4.9717,-4.9717,-4.9717,-4.9717,-4.9717,-4.9717,-4.9717,-4.9717,-4.9717,-4.9717,-4.9717,-4.9717,-4.9717,-4.9717,-4.9717,-4.9717,-4.9717,-4.9717,-4.9717,-4.9717,-4.9717,-4.9717,-4.9717,-4.9717,-4.9717,-4.9717,-4.9717,-4.9717,-4.9717,-4.9349,-4.8663,-4.8537,-4.7753,-3.0898,-3.0898,-3.0898,-3.0898,-3.0898,-3.0898,-3.0898,-3.1211,-3.1504,-3.1523,-3.2187,-3.2793,-3.2793,-3.3144,-3.2956,-3.1579,-3.2492,-3.2892,-3.1515,-3.0095,-2.9182,-2.9182,-2.6835,-2.6234,-2.892,-3.0466,-3.1258,-3.1258,-3.1304,-3.1899,-3.3292,-3.3355,-3.3355,-3.3418,-3.3418,-3.3418,-3.3418,-3.3418,-3.3418,-3.3418,-3.3418,-3.3418,-3.3418,-3.3418,-3.3418,-3.3481,-3.4819,-3.5376,-3.5561,-3.8149,-3.9157,-3.9275,-4.0687,-4.1172,-4.1172,-4.1172,-4.1172,-4.1172,-4.1172,-4.1172,-4.1172,-4.1172,-4.1172,-4.123,-4.1492,-4.1402,-4.123,-4.1492,-4.2004,-4.2457,-4.2513,-4.3602,-4.4993,-4.6005,-4.7177,-4.8324,-4.9424,-4.9669,-4.9717,-4.9717,-4.9717,-4.9717,-4.9717,-4.9717,-4.9717,-4.9717,-4.9717,-4.9717,-4.9717,-4.9717,-4.9717,-4.9717,-4.9717,-4.9717,-4.9717,-4.9717,-4.9717,-4.9717,-4.9717,-4.9717,-4.9717,-4.9717,-4.9717,-4.9717,-4.9717,-4.9717,-4.9717,-4.9717,-4.9349,-4.8663,-4.8072,-4.7114,-3.0898,-3.0898,-3.0957,-3.125,-3.1328,-3.1387,-3.1699,-3.1875,-3.2051,-3.2324,-3.2598,-3.2871,-3.3164,-3.332,-3.3228,-3.2829,-3.2301,-3.1835,-3.1387,-3.0095,-2.9574,-3.0549,-2.9882,-3.0077,-3.1918,-3.1579,-3.1707,-3.2638,-3.2765,-3.2956,-3.3355,-3.3418,-3.3418,-3.3418,-3.3418,-3.3418,-3.3418,-3.3418,-3.3418,-3.3418,-3.3418,-3.3418,-3.3418,-3.3418,-3.3418,-3.3481,-3.4819,-3.5376,-3.5623,-3.8149,-3.9216,-3.9334,-4.0687,-4.1172,-4.1172,-4.1172,-4.1172,-4.1172,-4.1172,-4.1172,-4.1172,-4.1172,-4.1172,-4.123,-4.1287,-4.1402,-4.1549,-4.2061,-4.2344,-4.2737,-4.3768,-4.4344,-4.4993,-4.6005,-4.7177,-4.8072,-4.8424,-4.9149,-4.9717,-4.9717,-4.9717,-4.9717,-4.9717,-4.9717,-4.9717,-4.9717,-4.9717,-4.9717,-4.9717,-4.9717,-4.9717,-4.9717,-4.9717,-4.9717,-4.9717,-4.9717,-4.9717,-4.9717,-4.9717,-4.9717,-4.9717,-4.9717,-4.9717,-4.9717,-4.9717,-4.9717,-4.9717,-4.9233,-4.8478,-4.7358,-4.6766,-4.6272,0.0,-3.0996,-3.1191,-3.1445,-3.1641,-3.1836,-3.2109,-3.2285,0.0,0.0,0.0,0.0,-3.3379,-3.3418,-3.3418,-3.3418,-3.2638,-3.211,-3.211,-3.0872,-3.0095,-3.0484,-3.1001,-3.1643,-3.2492,-3.2301,-3.2428,-3.3355,-3.3418,-3.3418,-3.3418,-3.3418,-3.3418,-3.3418,-3.3418,-3.3418,-3.3418,-3.3418,-3.3418,-3.3418,-3.3418,-3.3418,-3.3418,-3.3418,-3.367,-3.4215,-3.5561,-3.6399,0.0,-3.9098,-3.9966,-4.0024,-4.0884,-4.1172,-4.1172,-4.1172,-4.1172,-4.1172,-4.1172,-4.1172,-4.1172,-4.1172,-4.1287,-4.1344,-4.1344,-4.1573,-4.1891,-4.2344,-4.2569,-4.3017,-4.4344,-4.467,-4.5101,-4.6608,-4.7485,-4.8122,-4.8553,-4.9198,-4.9717,-4.9717,-4.9717,-4.9717,-4.9717,-4.9717,-4.9717,-4.9717,-4.9717,-4.9717,-4.9717,-4.9717,-4.9717,-4.9717,-4.9717,-4.9717,-4.9717,-4.9717,-4.9717,-4.9717,-4.9717,-4.9717,-4.9717,-4.9717,-4.9717,-4.9717,-4.9717,-4.9553,-4.932,-4.8449,-4.7561,-4.6778,-4.6185,-4.5895,0.0,-3.123,-3.1523,-3.1601,-3.1914,-3.2226,-3.2307,0.0,0.0,0.0,0.0,0.0,-3.3418,-3.3418,-3.3418,-3.3418,-3.3418,-3.3418,-3.3418,-3.2301,-3.0936,-2.9639,-3.0678,-3.1451,-3.1451,-3.2638,-3.3418,-3.3418,-3.3418,-3.3418,-3.3418,-3.3418,-3.3418,-3.3418,-3.3418,-3.3418,-3.3418,-3.3418,-3.3418,-3.3418,-3.3418,-3.3418,-3.3544,-3.3544,-3.4278,-3.5623,-3.6885,-3.8089,-3.9275,-4.0629,-4.1172,-4.1172,-4.1172,-4.1172,-4.1172,-4.1172,-4.1172,-4.1172,-4.1172,-4.1172,-4.1172,-4.1172,-4.1402,-4.1606,-4.1606,-4.1859,-4.2167,-4.2425,-4.2706,-4.3184,-4.4261,-4.4615,-4.5208,-4.728,-4.7869,-4.8274,-4.9375,-4.962,-4.9717,-4.9717,-4.9717,-4.9717,-4.9717,-4.9717,-4.9717,-4.9717,-4.9717,-4.9717,-4.9717,-4.9717,-4.9717,-4.9717,-4.9717,-4.9717,-4.9717,-4.9717,-4.9717,-4.9717,-4.9717,-4.9717,-4.9717,-4.9717,-4.9688,-4.9611,-4.9601,-4.9233,-4.8547,-4.7358,-4.6749,-4.6691,-4.6156,-4.5895,-3.1367,0.0,-3.168,-3.2324,-3.2578,-3.2734,0.0,0.0,0.0,0.0,0.0,0.0,0.0,-3.3418,-3.3418,-3.3418,-3.3418,-3.3418,-3.3418,-3.3102,-3.2765,-3.2447,-3.2702,-3.2892,-3.2892,-3.3228,-3.3418,-3.3418,-3.3418,-3.3418,-3.3418,-3.3418,-3.3418,-3.3418,-3.3418,-3.3418,-3.3418,-3.3418,-3.3418,-3.3418,-3.3418,-3.3902,-3.4943,-3.4943,-3.5602,-3.6946,-3.8209,-3.8921,-3.9275,-4.0629,-4.1172,-4.1172,-4.1172,-4.1172,-4.1172,-4.1172,-4.1172,-4.1172,-4.1172,-4.1172,-4.1172,-4.1172,-4.123,-4.1344,-4.1549,-4.1859,-4.211,-4.2142,-4.2425,-4.2681,-4.2961,-4.3878,-4.4832,-4.5369,-4.6764,-4.8072,-4.8324,-4.905,-4.9717,-4.9717,-4.9717,-4.9717,-4.9717,-4.9717,-4.9717,-4.9717,-4.9717,-4.9717,-4.9717,-4.9717,-4.9717,-4.9717,-4.9717,-4.9717,-4.9717,-4.9717,-4.9717,-4.9717,-4.9717,-4.9717,-4.9717,-4.9717,-4.9436,-4.8972,-4.8478,-4.7927,-4.7242,-4.6923,-4.6592,-4.6098,-4.5953,-4.5895,-3.2051,-3.2109,-3.2207,-3.2676,-3.293,-3.3144,-3.3379,0.0,0.0,0.0,0.0,0.0,0.0,-3.3418,-3.3418,-3.3418,-3.3418,-3.3418,-3.3418,-3.3418,-3.3418,-3.3418,-3.3418,-3.3418,-3.3418,-3.3418,-3.3418,-3.3418,-3.3418,-3.3418,-3.3418,-3.3418,-3.3418,-3.3418,-3.3418,-3.3418,-3.3418,-3.3418,-3.3418,-3.3418,-3.3418,-3.409,-3.5376,-3.5376,-3.6399,-3.8209,-3.8921,-3.9533,-4.0141,-4.0884,-4.1172,-4.1172,-4.1172,-4.1172,-4.1172,-4.1172,-4.1172,-4.1172,-4.1172,-4.1172,-4.1172,-4.1172,-4.1172,-4.123,-4.1402,-4.1516,-4.1769,-4.2054,-4.2199,-4.2481,-4.3103,-4.3852,-4.4778,-4.5926,-4.7126,-4.8122,-4.8703,-4.9248,-4.9717,-4.9717,-4.9717,-4.9717,-4.9717,-4.9717,-4.9717,-4.9717,-4.9717,-4.9717,-4.9717,-4.9717,-4.9717,-4.9717,-4.9717,-4.9717,-4.9717,-4.9717,-4.9717,-4.9717,-4.9717,-4.9717,-4.9717,-4.9378,-4.8943,-4.8304,-4.7666,-4.7172,-4.6778,-4.6534,-4.6214,-4.5895,-4.5895,-4.5895,-3.2695,-3.2832,-3.2891,-3.2891,-3.3164,-3.3418,-3.3418,0.0,0.0,0.0,0.0,0.0,0.0,-3.3418,-3.3418,-3.3418,-3.3418,-3.3418,-3.3418,-3.3418,-3.3418,-3.3418,-3.3418,-3.3418,-3.3418,-3.3418,-3.3418,-3.3418,-3.3418,-3.3418,-3.3418,-3.3418,-3.3418,-3.3418,-3.3418,-3.3418,-3.3418,-3.3418,-3.3418,-3.3418,-3.3607,-3.4403,-3.5684,-3.5909,-3.7309,-3.9533,-3.9533,-4.0141,-4.1172,-4.1172,-4.1172,-4.1172,-4.1172,-4.1172,-4.1172,-4.1172,-4.1172,-4.1172,-4.1172,-4.1172,-4.1172,-4.1172,-4.1172,-4.1172,-4.1172,-4.1172,-4.1311,-4.1859,-4.2054,-4.2312,-4.3522,-4.4071,-4.4752,-4.6971,-4.7615,-4.8072,-4.9198,-4.9424,-4.9473,-4.9669,-4.9717,-4.9717,-4.9717,-4.9717,-4.9717,-4.9717,-4.9717,-4.9717,-4.9717,-4.9717,-4.9717,-4.9717,-4.9717,-4.9717,-4.9717,-4.963,-4.9524,-4.9524,-4.9524,-4.9494,-4.9427,-4.8769,-4.8188,-4.7637,-4.6998,-4.6633,-4.6633,-4.6156,-4.5895,-4.5895,-4.5895,-4.5895,-3.2773,-3.3066,-3.332,-3.332,-3.3379,-3.3418,-3.3418,0.0,0.0,0.0,0.0,0.0,0.0,-3.3418,-3.3418,-3.3418,-3.3418,-3.3418,-3.3418,-3.3418,-3.3418,-3.3418,-3.3418,-3.3418,-3.3418,-3.3418,-3.3418,-3.3418,-3.3418,-3.3418,-3.3418,-3.3418,-3.3418,-3.3418,-3.3418,-3.3418,-3.3418,-3.3418,-3.3418,-3.3418,-3.4528,-3.5786,-3.7067,-3.8149,-3.9474,-4.0884,-4.0884,-4.1,-4.1172,-4.1172,-4.1172,-4.1172,-4.1172,-4.1172,-4.1172,-4.1172,-4.1172,-4.1172,-4.1172,-4.1172,-4.1172,-4.1172,-4.1172,-4.1172,-4.1172,-4.1172,-4.1287,-4.1606,-4.1663,-4.1777,-4.2312,-4.3326,-4.4372,-4.5047,-4.5926,-4.6867,-4.8021,-4.8274,-4.8553,-4.9522,-4.9717,-4.9717,-4.9717,-4.9717,-4.9717,-4.9717,-4.9717,-4.9717,-4.9717,-4.9717,-4.9717,-4.9717,-4.9717,-4.9717,-4.9717,-4.9175,-4.8856,-4.8856,-4.8856,-4.8624,-4.8101,-4.7462,-4.7039,-4.6969,-4.6359,-4.604,-4.604,-4.5924,-4.5895,-4.5895,-4.5895,-4.5895,-3.3125,-3.3281,-3.3418,-3.3418,-3.3418,-3.3418,-3.3418,0.0,0.0,0.0,0.0,0.0,0.0,-3.3418,-3.3418,-3.3418,-3.3418,-3.3418,-3.3418,-3.3418,-3.3418,-3.3418,-3.3418,-3.3418,-3.3418,-3.3418,-3.3418,-3.3418,-3.3418,-3.3418,-3.3418,-3.3418,-3.3418,-3.3418,-3.3418,-3.3418,-3.3418,-3.409,-3.4465,-3.4465,-3.5129,-3.6399,-3.8328,-3.8921,-3.9943,-4.1172,0.0,-4.1172,-4.1172,-4.1172,-4.1172,-4.1172,-4.1172,-4.1172,-4.1172,-4.1172,-4.1172,-4.1172,-4.1172,-4.1172,-4.123,-4.1402,-4.1459,-4.1459,-4.1631,-4.1712,-4.1712,-4.1859,-4.172,-4.172,-4.2199,-4.2793,-4.3547,-4.4453,-4.5101,-4.5926,-4.7615,-4.8021,-4.8324,-4.9473,-4.9717,-4.9717,-4.9717,-4.9717,-4.9717,-4.9717,-4.9717,-4.9717,-4.9717,-4.9717,-4.9717,-4.9717,-4.9378,-4.9175,-4.9175,-4.8566,-4.8217,-4.8217,-4.8217,-4.7927,-4.7288,-4.6923,-4.6633,-4.633,-4.604,-4.5895,-4.5895,-4.5895,-4.5895,-4.5895,-4.5895,-4.5895,-3.3418,-3.3418,-3.3418,-3.3418,0.0,0.0,-3.3418,-3.3418,-3.3418,-3.3418,-3.3418,0.0,0.0,-3.3418,-3.3418,-3.3418,-3.3418,-3.3418,-3.3418,-3.3418,-3.3418,-3.3418,-3.3418,-3.3418,-3.3418,-3.3418,-3.3418,-3.3418,-3.3418,-3.3418,-3.3418,-3.3418,-3.3418,-3.3418,-3.3418,-3.3544,-3.3859,-3.4881,-3.5376,-3.5376,-3.5971,-3.7309,-3.9216,-3.9533,-4.0199,-4.1172,-4.1172,-4.1172,-4.1172,-4.1172,-4.1172,-4.1172,-4.1172,-4.1172,-4.1172,-4.1172,-4.1172,-4.1172,-4.1172,-4.1172,-4.123,-4.1435,-4.1492,-4.1549,-4.1859,-4.1972,-4.2029,-4.2142,-4.2029,-4.1948,-4.24,-4.2513,-4.2793,-4.4042,-4.4315,-4.4832,-4.6816,-4.7434,-4.7971,-4.905,-4.9522,-4.9717,-4.9717,-4.9717,-4.9717,-4.9717,-4.9553,-4.9465,-4.9465,-4.932,-4.9282,-4.9282,-4.8798,-4.8449,-4.8304,-4.784,-4.7491,-4.7346,-4.7462,-4.7288,-4.665,-4.6621,-4.6388,-4.5895,-4.5895,-4.5895,-4.5895,-4.5895,-4.5895,-4.5895,-4.5895,-4.5895,-3.3418,-3.3418,-3.3418,-3.3418,-3.3418,0.0,-3.3418,-3.3418,-3.3418,-3.3418,-3.3418,-3.3418,-3.3418,-3.3418,-3.3418,-3.3418,-3.3418,-3.3418,-3.3418,-3.3418,-3.3418,-3.3418,-3.3418,-3.3418,-3.3418,-3.3418,-3.3418,-3.3418,-3.3418,-3.3418,-3.3418,-3.3418,-3.3418,-3.3418,-3.3418,-3.3965,-3.5253,-3.5376,-3.5376,-3.5438,-3.779,-3.9039,-3.9216,-4.0513,-4.1115,-4.1172,-4.1172,-4.1172,-4.1172,-4.1172,-4.1172,-4.1172,-4.1172,-4.1172,-4.1172,-4.1172,-4.1172,-4.1172,-4.1172,-4.1172,-4.1172,-4.123,-4.123,-4.1287,-4.1549,-4.1663,-4.1777,-4.2287,-4.2457,-4.2457,-4.2457,-4.2513,-4.2625,-4.3017,-4.3129,-4.3462,-4.467,-4.5714,-4.6764,-4.792,-4.9001,-4.9717,-4.9717,-4.9717,-4.9717,-4.9717,-4.9175,-4.8798,-4.8798,-4.8275,-4.7927,-4.7927,-4.7869,-4.7608,-4.6981,-4.6865,-4.665,-4.6069,-4.6563,-4.6621,-4.5982,-4.5953,-4.5924,-4.5895,-4.5895,-4.5895,-4.5895,-4.5895,-4.5895,-4.5895,-4.5895,-4.5895,-3.3418,-3.4027,-3.4465,-3.3607,-3.4027,0.0,0.0,-3.3418,-3.3418,-3.3418,-3.3418,-3.3496,-3.3769,-3.3828,-3.3906,-3.418,-3.4219,-3.4121,-3.3867,-3.3828,-3.373,-3.3457,-3.3418,-3.3418,-3.3418,-3.3418,-3.3418,-3.3418,-3.3418,-3.3418,-3.3418,-3.3418,-3.3796,-3.4652,-3.4632,-3.5253,-3.6581,-3.7369,-3.7768,-3.779,-3.8744,-3.965,-4.0455,-4.1,-4.1172,-4.1172,-4.1172,-4.1172,-4.1172,-4.1172,-4.1172,-4.1172,-4.1172,-4.1172,-4.1172,-4.1172,-4.1172,-4.1172,-4.1172,-4.1172,-4.123,-4.1402,-4.1435,-4.1516,-4.1802,-4.2029,-4.2157,-4.2059,-4.2127,-4.2368,-4.2718,-4.2793,-4.2874,-4.2986,-4.2986,-4.3194,-4.3985,-4.4995,-4.5977,-4.6727,-4.7778,-4.8508,-4.8508,-4.8508,-4.8508,-4.8508,-4.8304,-4.813,-4.813,-4.7927,-4.7782,-4.7782,-4.7433,-4.694,-4.6301,-4.6243,-4.6127,-4.5895,-4.6098,-4.6127,-4.5895,-4.5895,-4.5895,-4.5895,-4.5895,-4.5895,-4.5895,-4.5895,-4.5895,-4.5895,-4.5895,-4.5895,-3.4027,-3.4694,-3.5191,-3.4278,0.0,0.0,-3.3607,-3.3418,-3.3457,-3.3594,-3.373,-3.3926,-3.4219,-3.4277,-3.4355,-3.4648,-3.4707,-3.4551,-3.4141,-3.4082,-3.3906,-3.3476,-3.3418,-3.3418,-3.3418,-3.3418,-3.3418,-3.3418,-3.3418,-3.3418,-3.3418,-3.3796,-3.4465,-3.5376,-3.5786,-3.6642,-3.791,-3.8744,-3.9416,-3.9826,-3.9826,-4.0316,-4.1172,-4.1172,-4.1172,-4.1172,-4.1172,-4.1172,-4.1172,-4.1287,-4.1344,-4.1344,-4.123,-4.1172,-4.1172,-4.1287,-4.1344,-4.1344,-4.1459,-4.1362,-4.1274,-4.142,-4.1355,-4.1264,-4.1625,-4.1849,-4.1941,-4.1679,-4.1743,-4.1982,-4.2359,-4.2459,-4.2459,-4.2459,-4.2459,-4.2553,-4.2933,-4.3887,-4.484,-4.5585,-4.6554,-4.7423,-4.7735,-4.7782,-4.7782,-4.7782,-4.7608,-4.7491,-4.7491,-4.7317,-4.7172,-4.7172,-4.6795,-4.6359,-4.5924,-4.5895,-4.5895,-4.5895,-4.5895,-4.5895,-4.5895,-4.5895,-4.5895,-4.5895,-4.5895,-4.5895,-4.5895,-4.5895,-4.5895,-4.5895,-4.5895,-4.5895,-3.5376,-3.5376,-3.5438,0.0,0.0,0.0,-3.3418,-3.3437,-3.3555,-3.3984,-3.4414,-3.4707,-3.4707,-3.4707,-3.4707,-3.4707,-3.4707,-3.457,-3.4141,-3.4082,-3.3926,-3.3476,-3.3418,-3.3418,-3.3418,-3.3418,-3.3418,-3.3418,-3.3418,-3.3418,-3.3418,-3.4715,-3.5438,-3.5438,-3.6642,-3.791,-3.9216,-3.9216,-3.9884,-4.1172,-4.1172,-4.1172,-4.1172,-4.1172,-4.1196,-4.1172,-4.1196,-4.1196,-4.123,-4.1492,-4.1582,-4.1549,-4.1263,-4.1172,-4.123,-4.1492,-4.1582,-4.1639,-4.1972,-4.1742,-4.1299,-4.1299,-4.0906,-4.0463,-4.0789,-4.0898,-4.0952,-4.1222,-4.1275,-4.1275,-4.1275,-4.1275,-4.1275,-4.1275,-4.1275,-4.1275,-4.1275,-4.2184,-4.3333,-4.4377,-4.5425,-4.6526,-4.7612,-4.7753,-4.7753,-4.7753,-4.723,-4.6778,-4.6778,-4.6272,-4.5895,-4.5895,-4.5895,-4.5895,-4.5895,-4.5895,-4.5895,-4.5895,-4.5895,-4.5895,-4.5895,-4.5895,-4.5895,-4.5895,-4.5895,-4.5895,-4.5895,-4.5895,-4.5895,-4.5895,-4.5895,-4.5895,-3.3965,-3.5376,0.0,-3.5623,0.0,0.0,0.0,-3.5224,0.0,-3.4434,-3.4609,-3.4805,-3.5137,-3.5176,-3.5293,-3.5586,-3.5625,-3.5488,-3.5059,-3.4726,-3.4355,-3.3926,-3.3613,-3.3418,-3.3418,-3.3418,-3.3796,-3.4777,-3.4839,-3.5191,-3.6093,-3.652,-3.7188,-3.8029,-3.8447,-3.9298,-4.0571,-4.0629,-4.0826,-4.1172,-4.1402,-4.1492,-4.1492,-4.1492,-4.1631,-4.1826,-4.1573,-4.1631,-4.1777,-4.1274,-4.1047,-4.0942,-4.0322,-4.0178,-4.0377,-4.0432,-4.0599,-4.0765,-4.0875,-4.0777,-4.0654,-4.0654,-4.0531,-4.0409,-4.0518,-4.0735,-4.0823,-4.0533,-4.0592,-4.0676,-4.0275,-4.0174,-4.0375,-4.11,-4.1275,-4.1175,-4.0852,-4.162,-4.2545,-4.3192,-4.418,-4.5204,-4.6309,-4.6446,-4.6446,-4.6446,-4.6272,-4.6156,-4.6156,-4.6011,-4.5895,-4.5895,-4.5895,-4.5895,-4.5895,-4.5895,-4.5895,-4.5895,-4.5895,-4.5895,-4.5895,-4.5895,-4.5895,-4.5895,-4.5895,-4.5895,-4.5895,-4.5895,-4.5895,-4.5895,-4.5895,-4.5895,-3.5602,0.0,0.0,-3.7127,-3.7862,-3.8739,-3.8693,-3.698,-3.5561,-3.5756,-3.5495,-3.5312,-3.5586,-3.5644,-3.5723,-3.5976,-3.6016,-3.5879,-3.5449,-3.5,-3.4551,-3.4121,-3.4179,-3.4215,-3.4215,-3.4632,-3.5294,-3.6093,-3.6154,-3.652,-3.7248,-3.779,-3.8387,-3.9157,-3.9709,-4.0432,-4.1344,-4.1344,-4.1402,-4.1598,-4.1745,-4.1834,-4.1948,-4.1834,-4.1915,-4.2086,-4.1638,-4.1654,-4.1885,-4.101,-4.0709,-4.0795,-4.0147,-4.0026,-4.0166,-4.0275,-4.0463,-4.0627,-4.0735,-4.0641,-4.0467,-4.0467,-4.0319,-4.0145,-4.0145,-4.0252,-4.0336,-4.0012,-4.0095,-4.0124,-3.9772,-3.9697,-3.9848,-4.0526,-4.0676,-4.0601,-4.0249,-4.0694,-4.1386,-4.2043,-4.3006,-4.4031,-4.511,-4.564,-4.5895,-4.5895,-4.5895,-4.5895,-4.5895,-4.5895,-4.5895,-4.5895,-4.5895,-4.5895,-4.5895,-4.5895,-4.5895,-4.5895,-4.5895,-4.5895,-4.5895,-4.5895,-4.5895,-4.5895,-4.5895,-4.5895,-4.5895,-4.5895,-4.5895,-4.5895,-4.5895,-4.5895,0.0,0.0,0.0,-3.9285,-3.898,0.0,-3.9655,-3.8873,-3.79,-3.777,-3.7044,-3.6403,-3.6403,-3.6403,-3.6403,-3.6403,-3.6403,-3.6285,-3.589,-3.5396,-3.4942,-3.4547,-3.5124,-3.5561,-3.5561,-3.6642,-3.7369,-3.7489,-3.7489,-3.755,-3.767,-3.8744,-3.9393,-3.9393,-4.0571,-4.1344,-4.1606,-4.1606,-4.1802,-4.211,-4.2061,-4.2182,-4.2382,-4.2182,-4.2069,-4.1995,-4.1502,-4.1422,-4.1538,-4.072,-4.0552,-4.0823,-4.037,-4.0261,-4.037,-4.0641,-4.0749,-4.0856,-4.1071,-4.0852,-4.045,-4.045,-4.0099,-3.9697,-3.9697,-3.9697,-3.9697,-3.9697,-3.9697,-3.9697,-3.9697,-3.9697,-3.9697,-3.9697,-3.9697,-3.9697,-3.9697,-3.9697,-3.9981,-4.0969,-4.2061,-4.3129,-4.4125,-4.5201,-4.5895,-4.5895,-4.5895,-4.5895,-4.5895,-4.5895,-4.5895,-4.5895,-4.5895,-4.5895,-4.5895,-4.5895,-4.5895,-4.5895,-4.5895,-4.5895,-4.5895,-4.5895,-4.5895,-4.5895,-4.5895,-4.5895,-4.5895,-4.5895,-4.5895,-4.5895,-4.5895,-4.5895,0.0,-3.8602,0.0,0.0,-4.1312,-4.2404,-4.2579,-4.1936,-4.0963,-3.9845,-3.9475,-3.9277,-3.9277,-3.9277,-3.9277,-3.9277,-3.9277,-3.9256,-3.9149,-3.8381,-3.7804,-3.7698,-3.7197,-3.6885,-3.6885,-3.7127,-3.773,-3.8744,-3.8803,-3.9239,-4.0339,-4.0629,-4.0745,-4.0745,-4.1263,-4.1549,-4.1606,-4.1859,-4.2029,-4.211,-4.1892,-4.1836,-4.1892,-4.1836,-4.1533,-4.1136,-4.1255,-4.118,-4.1022,-4.0422,-4.0198,-4.0202,-3.9463,-3.929,-3.9553,-3.9606,-3.9788,-3.9997,-3.9997,-3.9973,-3.9873,-3.9873,-3.9798,-3.9697,-3.9697,-3.9697,-3.9697,-3.9697,-3.9697,-3.9697,-3.9697,-3.9697,-3.9697,-3.9697,-3.9697,-3.9697,-3.9697,-3.9697,-3.9981,-4.0969,-4.2061,-4.3129,-4.4125,-4.5201,-4.5895,-4.5895,-4.5895,-4.5895,-4.5895,-4.5895,-4.5895,-4.5895,-4.5895,-4.5895,-4.5895,-4.5895,-4.5895,-4.5895,-4.5895,-4.5895,-4.5895,-4.5895,-4.5895,-4.5895,-4.5895,-4.5895,-4.5895,-4.5895,-4.5895,-4.5895,-4.5895,-4.5895,0.0,0.0,0.0,0.0,0.0,-4.3577,-4.3842,-4.355,-4.3051,-4.2333,-4.1097,-4.0192,-4.0192,-4.0192,-4.0192,-4.0192,-4.0192,-4.0192,-4.0192,-3.934,-3.8707,-3.8707,-3.8426,-3.8209,-3.8209,-3.8803,-3.9416,-4.0083,-4.0141,-4.0455,-4.1172,-4.1344,-4.1402,-4.1402,-4.1688,-4.1891,-4.2004,-4.2199,-4.2245,-4.214,-4.2008,-4.1663,-4.111,-4.1359,-4.1334,-4.1089,-4.0946,-4.0846,-4.0689,-4.014,-3.9915,-3.9865,-3.9434,-3.931,-3.949,-3.949,-3.9594,-3.9697,-3.9697,-3.9697,-3.9697,-3.9697,-3.9697,-3.9697,-3.9697,-3.9697,-3.9697,-3.9697,-3.9697,-3.9697,-3.9697,-3.9697,-3.9697,-3.9697,-3.9697,-3.9697,-3.9697,-3.9697,-3.9826,-4.0364,-4.1716,-4.2985,-4.3511,-4.4851,-4.5895,-4.5895,-4.5895,-4.5895,-4.5895,-4.5895,-4.5895,-4.5895,-4.5895,-4.5895,-4.5895,-4.5895,-4.5895,-4.5895,-4.5895,-4.5895,-4.5895,-4.5895,-4.5895,-4.5895,-4.5895,-4.5895,-4.5895,-4.5895,-4.5895,-4.5895,-4.5895,-4.5895,0.0,0.0,0.0,0.0,0.0,0.0,-4.4189,-4.4285,-4.4285,-4.4285,-4.246,-4.0904,-4.0904,-4.0904,-4.0904,-4.0904,-4.0904,-4.0904,-4.0904,-4.0104,-3.9503,-3.9415,-3.9545,-3.9626,-3.9533,-4.0571,-4.1172,-4.1172,-4.123,-4.1287,-4.1287,-4.1492,-4.1663,-4.1663,-4.1972,-4.2256,-4.2513,-4.2494,-4.2388,-4.2213,-4.2011,-4.1354,-4.04,-4.0852,-4.1,-4.0974,-4.0576,-4.0375,-4.035,-3.9873,-3.9697,-3.9697,-3.9697,-3.9697,-3.9697,-3.9697,-3.9697,-3.9697,-3.9697,-3.9697,-3.9697,-3.9697,-3.9697,-3.9697,-3.9697,-3.9697,-3.9697,-3.9697,-3.9697,-3.9697,-3.9697,-3.9697,-3.9697,-3.9697,-3.9697,-3.9697,-3.9697,-3.9697,-3.9697,-3.9697,-4.1395,-4.284,-4.3033,-4.462,-4.5895,-4.5895,-4.5895,-4.5895,-4.5895,-4.5895,-4.5895,-4.5895,-4.5895,-4.5895,-4.5895,-4.5895,-4.5895,-4.5895,-4.5895,-4.5895,-4.5895,-4.5895,-4.5895,-4.5895,-4.5895,-4.5895,-4.5895,-4.5895,-4.5895,-4.5895,-4.5895,-4.5895,0.0,0.0,0.0,0.0,0.0,-4.4189,0.0,0.0,-4.4285,-4.4285,-4.4037,-4.3764,-4.3764,-4.3764,-4.3764,-4.3764,-4.3764,-4.3764,-4.3764,-4.3217,-4.2732,-4.2304,-4.1852,-4.1444,-4.099,-4.1115,-4.1172,-4.1172,-4.1459,-4.1549,-4.1549,-4.1859,-4.2029,-4.2029,-4.2312,-4.2457,-4.2513,-4.2343,-4.2233,-4.2213,-4.1178,-4.04,-3.9798,-3.9873,-3.9923,-3.9898,-3.9848,-3.9798,-3.9798,-3.9722,-3.9697,-3.9697,-3.9697,-3.9697,-3.9697,-3.9697,-3.9697,-3.9697,-3.9697,-3.9697,-3.9697,-3.9697,-3.9697,-3.9697,-3.9697,-3.9697,-3.9697,-3.9697,-3.9697,-3.9697,-3.9697,-3.9697,-3.9697,-3.9697,-3.9697,-3.9697,-3.9697,-3.9697,-3.9697,-3.9697,-4.1395,-4.3081,-4.3937,-4.511,-4.5895,-4.5895,-4.5895,-4.5895,-4.5895,-4.5895,-4.5895,-4.5895,-4.5895,-4.5895,-4.5895,-4.5895,-4.5895,-4.5895,-4.5895,-4.5895,-4.5895,-4.5895,-4.5895,-4.5895,-4.5895,-4.5895,-4.5895,-4.5895,-4.5895,-4.5895,-4.5895,-4.5895,-4.2519,0.0,0.0,0.0,0.0,0.0,-4.4357,-4.4285,-4.4285,-4.4285,-4.4285,-4.4285,-4.4285,-4.4285,-4.4285,-4.4285,-4.4285,-4.4285,-4.4285,-4.3625,-4.3,-4.2843,-4.2038,-4.1437,-4.1196,-4.1172,-4.123,-4.1402,-4.1549,-4.1663,-4.1859,-4.2142,-4.2312,-4.2312,-4.265,-4.2668,-4.2343,-4.2228,-4.1911,-4.1229,-4.0425,-3.9923,-3.9697,-3.9697,-3.9697,-3.9697,-3.9697,-3.9697,-3.9697,-3.9697,-3.9697,-3.9697,-3.9697,-3.9697,-3.9697,-3.9697,-3.9697,-3.9697,-3.9697,-3.9697,-3.9697,-3.9697,-3.9697,-3.9697,-3.9697,-3.9697,-3.9697,-3.9697,-3.9697,-3.9697,-3.9697,-3.9697,-3.9697,-3.9697,-3.9697,-3.9697,-3.9697,-3.9697,-3.9878,-4.0415,-4.1766,-4.3129,-4.4125,-4.5201,-4.5895,-4.5895,-4.5895,-4.5895,-4.5895,-4.5895,-4.5895,-4.5895,-4.5895,-4.5895,-4.5895,-4.5895,-4.5895,-4.5895,-4.5895,-4.5895,-4.5895,-4.5895,-4.5895,-4.5895,-4.5895,-4.5895,-4.5895,-4.5895,-4.5895,-4.5895,-4.5895,-4.5956,0.0,0.0,0.0,0.0,0.0,0.0,0.0,0.0,-4.4577,-4.4433,-4.4409,-4.4409,-4.4409,-4.4347,-4.4285,-4.4285,-4.4285,-4.4285,-4.4285,-4.3529,-4.2904,-4.2843,-4.2059,-4.1432,-4.1196,-4.1344,-4.1459,-4.1606,-4.172,-4.1948,-4.2199,-4.2481,-4.2625,-4.2625,-4.2724,-4.2615,-4.2213,-4.1936,-4.1254,-4.03,-3.9898,-3.9697,-3.9697,-3.9697,-3.9697,-3.9697,-3.9697,-3.9697,-3.9697,-3.9697,-3.9697,-3.9697,-3.9697,-3.9697,-3.9697,-3.9697,-3.9697,-3.9697,-3.9697,-3.9697,-3.9697,-3.9697,-3.9697,-3.9697,-3.9697,-3.9697,-3.9697,-3.9697,-3.9697,-3.9697,-3.9697,-3.9697,-3.9697,-3.9697,-3.9697,-3.9697,-3.9697,-3.9697,-3.9929,-4.0642,-4.1914,-4.3033,-4.3796,-4.5018,-4.5895,-4.5895,-4.5895,-4.5895,-4.5895,-4.5895,-4.5895,-4.5895,-4.5895,-4.5895,-4.5895,-4.5895,-4.5895,-4.5895,-4.5895,-4.5895,-4.5895,-4.5895,-4.5895,-4.5895,-4.5895,-4.5895,-4.5895,-4.5895,-4.594,-4.5956,-4.5956,-4.609,-4.4069,-4.5005,0.0,0.0,0.0,0.0,0.0,0.0,-4.5386,-4.4876,-4.4779,-4.4779,-4.4779,-4.4532,-4.4285,-4.4285,-4.4285,-4.4285,-4.4285,-4.3842,-4.3289,-4.2867,-4.2549,-4.205,-4.1278,-4.1712,-4.1915,-4.1606,-4.2118,-4.2457,-4.2457,-4.2818,-4.2986,-4.2986,-4.2514,-4.2238,-4.2213,-4.1128,-4.03,-3.9747,-3.9697,-3.9697,-3.9697,-3.9697,-3.9697,-3.9697,-3.9697,-3.9697,-3.9697,-3.9697,-3.9697,-3.9697,-3.9697,-3.9697,-3.9697,-3.9697,-3.9697,-3.9697,-3.9697,-3.9697,-3.9697,-3.9697,-3.9697,-3.9697,-3.9697,-3.9697,-3.9697,-3.9697,-3.9697,-3.9697,-3.9697,-3.9697,-3.9697,-3.9697,-3.9697,-3.9697,-3.9697,-3.9697,-3.9749,-3.98,-4.1395,-4.284,-4.2889,-4.4573,-4.5895,-4.5895,-4.5895,-4.5895,-4.5895,-4.5895,-4.5895,-4.5895,-4.5895,-4.5895,-4.5895,-4.5895,-4.5895,-4.5895,-4.5895,-4.5895,-4.5895,-4.5895,-4.5895,-4.5895,-4.5895,-4.5895,-4.5895,-4.5895,-4.6001,-4.618,-4.618,-4.6314,-4.4549,0.0,0.0,0.0,0.0,-4.652,-4.5649,-4.5681,-4.5759,-4.5245,-4.4963,-4.4779,-4.4779,-4.4532,-4.4285,-4.4285,-4.4285,-4.4165,-4.3866,-4.3361,-4.2951,-4.2573,-4.2156,-4.1882,-4.1769,-4.1997,-4.2086,-4.2174,-4.24,-4.2569,-4.2793,-4.2905,-4.2986,-4.2986,-4.2489,-4.1861,-4.1103,-4.035,-3.9898,-3.9697,-3.9697,-3.9697,-3.9697,-3.9697,-3.9697,-3.9697,-3.9697,-3.9697,-3.9697,-3.9697,-3.9697,-3.9697,-3.9697,-3.9697,-3.9697,-3.9697,-3.9697,-3.9697,-3.9697,-3.9697,-3.9697,-3.9697,-3.9697,-3.9697,-3.9697,-3.9697,-3.9697,-3.9697,-3.9697,-3.9697,-3.9697,-3.9697,-3.9697,-3.9697,-3.9697,-3.9697,-3.9697,-3.9697,-3.9878,-4.0567,-4.1815,-4.3033,-4.3654,-4.4943,-4.5895,-4.5895,-4.5895,-4.5895,-4.5895,-4.5895,-4.5895,-4.5895,-4.5895,-4.5895,-4.5895,-4.5895,-4.5895,-4.5895,-4.5895,-4.5895,-4.5895,-4.5895,-4.5895,-4.5895,-4.6001,-4.6001,-4.5895,-4.6001,-4.6135,-4.6225,-4.6358,-4.658,-4.49,-4.5525,0.0,0.0,0.0,-4.6811,-4.5915,-4.5949,-4.6029,-4.5514,-4.5085,-4.4779,-4.4779,-4.4532,-4.4285,-4.4285,-4.4117,-4.3938,-4.3699,-4.3107,-4.2646,-4.2574,-4.2152,-4.1948,-4.211,-4.228,-4.2425,-4.2538,-4.2569,-4.2762,-4.2986,-4.2986,-4.2811,-4.2434,-4.1882,-4.1178,-4.0249,-3.9873,-3.9697,-3.9697,-3.9697,-3.9697,-3.9697,-3.9697,-3.9697,-3.9697,-3.9697,-3.9697,-3.9697,-3.9697,-3.9697,-3.9697,-3.9697,-3.9697,-3.9697,-3.9697,-3.9697,-3.9697,-3.9697,-3.9697,-3.9697,-3.9697,-3.9697,-3.9697,-3.9697,-3.9697,-3.9697,-3.9697,-3.9697,-3.9697,-3.9697,-3.9697,-3.9697,-3.9697,-3.9697,-3.9697,-3.9697,-3.9697,-3.9981,-4.0969,-4.2061,-4.3129,-4.4125,-4.5201,-4.5895,-4.5895,-4.5895,-4.5895,-4.5895,-4.5895,-4.5895,-4.5895,-4.5895,-4.5895,-4.5895,-4.5895,-4.5895,-4.5895,-4.5895,-4.5895,-4.5895,-4.5895,-4.594,-4.6001,-4.6135,-4.618,-4.6164,-4.6269,-4.6358,-4.6447,-4.6624,-4.68,0.0,0.0,0.0,-4.5934,-4.6319,0.0,-4.6006,0.0,-4.6226,-4.5667,-4.5095,-4.473,-4.473,-4.4484,-4.4237,-4.4237,-4.3866,-4.3626,-4.3929,-4.3065,-4.2525,-4.2839,-4.269,-4.2425,-4.2167,-4.265,-4.2874,-4.2513,-4.2818,-4.2986,-4.2986,-4.2961,-4.2459,-4.1326,-4.0802,-4.0249,-3.9697,-3.9697,-3.9697,-3.9697,-3.9697,-3.9697,-3.9697,-3.9697,-3.9697,-3.9697,-3.9697,-3.9697,-3.9697,-3.9697,-3.9697,-3.9697,-3.9697,-3.9697,-3.9697,-3.9697,-3.9697,-3.9697,-3.9697,-3.9697,-3.9697,-3.9697,-3.9697,-3.9697,-3.9697,-3.9697,-3.9697,-3.9697,-3.9697,-3.9697,-3.9697,-3.9697,-3.9697,-3.9697,-3.9697,-3.9697,-3.9697,-3.9749,-4.0032,-4.1019,-4.211,-4.3129,-4.4172,-4.5201,-4.5895,-4.5895,-4.5895,-4.5895,-4.5895,-4.5895,-4.5895,-4.5895,-4.5895,-4.5895,-4.5895,-4.5895,-4.5895,-4.5895,-4.5895,-4.5895,-4.5895,-4.594,-4.6001,-4.6225,-4.6195,-4.6358,-4.6609,-4.6609,-4.6712,-4.6931,-4.6931,-4.7062,-4.4933,0.0,0.0,0.0,0.0,0.0,-4.531,0.0,-4.538,-4.4424,-4.3926,-4.3649,-4.3649,-4.3553,-4.3493,-4.3493,-4.3711,-4.3626,-4.2968,-4.2778,-4.2749,-4.2641,-4.2556,-4.2569,-4.2762,-4.293,-4.2986,-4.2874,-4.2986,-4.2986,-4.2986,-4.2665,-4.2057,-4.13,-4.0802,-4.0249,-3.9697,-3.9697,-3.9697,-3.9697,-3.9697,-3.9697,-3.9697,-3.9697,-3.9697,-3.9697,-3.9697,-3.9697,-3.9697,-3.9697,-3.9697,-3.9697,-3.9697,-3.9697,-3.9697,-3.9697,-3.9697,-3.9697,-3.9697,-3.9697,-3.9697,-3.9697,-3.9697,-3.9697,-3.9697,-3.9697,-3.9697,-3.9697,-3.9697,-3.9697,-3.9697,-3.9697,-3.9697,-3.9697,-3.9697,-3.9697,-3.9697,-4.0262,-4.1095,-4.2159,-4.2598,-4.3368,-4.5155,-4.5685,-4.5895,-4.5895,-4.5895,-4.5895,-4.5895,-4.5895,-4.5895,-4.5895,-4.5895,-4.5895,-4.5895,-4.5895,-4.5895,-4.5895,-4.5895,-4.5895,-4.5895,-4.6046,-4.6135,-4.6225,-4.6535,-4.6756,-4.68,-4.68,-4.6844,-4.6931,-4.7106,-4.7222,-4.4669,-4.4741,-4.4813,-4.5125,0.0,0.0,-4.4925,-4.4793,-4.4694,-4.4151,-4.3737,-4.3389,-4.3389,-4.3413,-4.334,-4.312,-4.3458,-4.3492,-4.283,-4.2758,-4.2715,-4.2731,-4.2681,-4.2818,-4.2986,-4.2986,-4.2986,-4.2986,-4.2986,-4.2986,-4.2986,-4.2233,-4.1656,-4.13,-4.0576,-4.0023,-3.9697,-3.9697,-3.9697,-3.9697,-3.9697,-3.9697,-3.9697,-3.9697,-3.9697,-3.9697,-3.9697,-3.9697,-3.9697,-3.9697,-3.9697,-3.9697,-3.9697,-3.9697,-3.9697,-3.9697,-3.9697,-3.9697,-3.9697,-3.9697,-3.9697,-3.9697,-3.9697,-3.9697,-3.9697,-3.9697,-3.9697,-3.9697,-3.9697,-3.9697,-3.9697,-3.9697,-3.9697,-3.9697,-3.9697,-3.9697,-3.9697,-4.0516,-4.1518,-4.2598,-4.3129,-4.3937,-4.5595,-4.5895,-4.5895,-4.5895,-4.5895,-4.5895,-4.5895,-4.5895,-4.5895,-4.5895,-4.5895,-4.5895,-4.5895,-4.5895,-4.5895,-4.5895,-4.5956,-4.6001,-4.5895,-4.618,-4.6358,-4.6358,-4.6712,-4.6975,-4.7062,-4.7062,-4.7062,-4.7062,-4.7222,-4.7309,-4.4285,-4.4285,-4.4285,-4.4285,-4.4237,0.0,-4.4548,-4.4172,-4.3843,-4.4094,-4.3762,-4.3419,-4.3477,-4.3477,-4.3389,-4.2955,-4.3086,-4.3233,-4.3233,-4.2836,-4.2706,-4.2986,-4.2986,-4.2986,-4.2986,-4.2986,-4.2986,-4.2986,-4.2986,-4.2961,-4.2886,-4.1907,-4.125,-4.12,-4.0249,-3.9697,-3.9697,-3.9697,-3.9697,-3.9697,-3.9697,-3.9697,-3.9697,-3.9697,-3.9697,-3.9697,-3.9697,-3.9697,-3.9697,-3.9697,-3.9697,-3.9697,-3.9697,-3.9697,-3.9697,-3.9697,-3.9697,-3.9697,-3.9697,-3.9697,-3.9697,-3.9697,-3.9697,-3.9697,-3.9697,-3.9697,-3.9697,-3.9697,-3.9697,-3.9697,-3.9697,-3.9697,-3.9697,-3.9697,-3.9697,-3.9697,-3.9697,-4.0516,-4.1518,-4.2598,-4.3606,-4.4666,-4.573,-4.5895,-4.5895,-4.5895,-4.5895,-4.5895,-4.5895,-4.5895,-4.5895,-4.5895,-4.5895,-4.5895,-4.5895,-4.594,-4.594,-4.5895,-4.609,-4.609,-4.594,-4.6358,-4.6609,-4.6609,-4.6844,-4.7062,-4.7309,-4.7309,-4.7309,-4.7309,-4.7309,-4.7309,-4.4285,-4.4285,-4.4285,-4.4285,-4.401,0.0,-4.3289,-4.2782,-4.2276,-4.19,-4.1731,-4.1774,-4.198,-4.2234,-4.2438,-4.2542,-4.2856,-4.2969,-4.2687,-4.2812,-4.293,-4.2986,-4.2986,-4.2986,-4.2986,-4.2986,-4.2986,-4.2986,-4.2986,-4.2841,-4.2389,-4.1706,-4.1075,-4.0701,-4.0049,-3.9697,-3.9697,-3.9697,-3.9697,-3.9697,-3.9697,-3.9697,-3.9697,-3.9697,-3.9697,-3.9697,-3.9697,-3.9697,-3.9697,-3.9697,-3.9697,-3.9697,-3.9697,-3.9697,-3.9697,-3.9697,-3.9697,-3.9697,-3.9697,-3.9697,-3.9697,-3.9697,-3.9697,-3.9697,-3.9697,-3.9697,-3.9697,-3.9697,-3.9697,-3.9697,-3.9697,-3.9697,-3.9697,-3.9697,-3.9697,-3.9697,-3.9697,-4.0516,-4.1518,-4.2598,-4.3606,-4.4666,-4.573,-4.5895,-4.5895,-4.5895,-4.5895,-4.5895,-4.5895,-4.5895,-4.5895,-4.5895,-4.5895,-4.5895,-4.5895,-4.6046,-4.609,-4.594,-4.609,-4.609,-4.594,-4.6358,-4.6609,-4.6609,-4.6975,-4.7266,-4.7309,-4.7309,-4.7309,-4.7309,-4.7309,-4.7309,-4.4285,-4.4285,-4.4213,-4.401,-4.3529,0.0,0.0,-4.2292,-4.2029,-4.185,-4.1972,-4.2142,-4.2287,-4.2425,-4.2594,-4.2762,-4.2874,-4.293,-4.2737,-4.2905,-4.2986,-4.2986,-4.2986,-4.2986,-4.2986,-4.2986,-4.2986,-4.2986,-4.2766,-4.2489,-4.2213,-4.1379,-4.0802,-4.0526,-3.9973,-3.9697,-3.9697,-3.9697,-3.9697,-3.9697,-3.9697,-3.9697,-3.9697,-3.9697,-3.9697,-3.9697,-3.9697,-3.9697,-3.9697,-3.9697,-3.9697,-3.9697,-3.9697,-3.9697,-3.9697,-3.9697,-3.9697,-3.9697,-3.9697,-3.9697,-3.9697,-3.9697,-3.9697,-3.9697,-3.9697,-3.9697,-3.9697,-3.9697,-3.9697,-3.9697,-3.9697,-3.9697,-3.9697,-3.9697,-3.9697,-3.9697,-3.9697,-4.0516,-4.1369,-4.1914,-4.3245,-4.4666,-4.573,-4.5895,-4.5895,-4.5895,-4.5895,-4.5895,-4.5895,-4.5895,-4.5895,-4.5895,-4.5895,-4.5895,-4.5895,-4.6001,-4.6001,-4.594,-4.6225,-4.6269,-4.6046,-4.6624,-4.6961,-4.6961,-4.7179,-4.7309,-4.7309,-4.7309,-4.7309,-4.7309,-4.7309,-4.7309,-4.4285,-4.4213,-4.4021,-4.3625,-4.3108,-4.2673,0.0,0.0,0.0,-4.2369,-4.265,-4.2818,-4.2874,-4.293,-4.293,-4.2986,-4.2986,-4.2986,-4.2986,-4.2986,-4.2986,-4.2986,-4.2986,-4.2986,-4.2986,-4.2986,-4.2986,-4.2986,-4.2514,-4.2162,-4.2062,-4.1053,-4.0475,-4.035,-3.9923,-3.9697,-3.9697,-3.9697,-3.9697,-3.9697,-3.9697,-3.9697,-3.9697,-3.9697,-3.9697,-3.9697,-3.9697,-3.9697,-3.9697,-3.9697,-3.9697,-3.9697,-3.9697,-3.9697,-3.9697,-3.9697,-3.9697,-3.9697,-3.9697,-3.9697,-3.9697,-3.9697,-3.9697,-3.9697,-3.9697,-3.9697,-3.9697,-3.9697,-3.9697,-3.9697,-3.9697,-3.9697,-3.9697,-3.9697,-3.9697,-3.9697,-3.9697,-4.0364,-4.0995,-4.1169,-4.2716,-4.4359,-4.5384,-4.573,-4.5895,-4.5895,-4.5895,-4.5895,-4.5895,-4.5895,-4.5895,-4.5895,-4.5895,-4.5895,-4.5895,-4.594,-4.5956,-4.5956,-4.6358,-4.6491,-4.6314,-4.6887,-4.7266,-4.7309,-4.7309,-4.7309,-4.7309,-4.7309,-4.7309,-4.7309,-4.7309,-4.7309,-4.4285,-4.3925,-4.3601,-4.3529,-4.2938,-4.2423,-4.2409,0.0,-4.211,-4.2167,0.0,-4.2256,-4.2538,0.0,0.0,-4.2986,-4.2986,-4.2986,-4.2986,-4.2986,-4.2986,-4.2986,-4.2986,-4.2986,-4.2986,-4.2986,-4.2986,-4.2986,-4.2514,-4.1957,-4.1401,-4.0852,-4.03,-3.9798,-3.9722,-3.9697,-3.9697,-3.9697,-3.9697,-3.9697,-3.9697,-3.9697,-3.9697,-3.9697,-3.9697,-3.9697,-3.9697,-3.9697,-3.9697,-3.9697,-3.9697,-3.9697,-3.9697,-3.9697,-3.9697,-3.9697,-3.9697,-3.9697,-3.9697,-3.9697,-3.9697,-3.9697,-3.9697,-3.9697,-3.9697,-3.9697,-3.9697,-3.9697,-3.9697,-3.9697,-3.9697,-3.9697,-3.9697,-3.9697,-3.9697,-3.9697,-3.9697,-3.98,-4.0134,-4.1019,-4.2159,-4.3321,-4.4312,-4.5293,-4.5895,-4.5895,-4.5895,-4.5895,-4.5895,-4.5895,-4.5895,-4.5895,-4.5895,-4.5895,-4.5895,-4.6046,-4.618,-4.618,-4.6447,-4.6609,-4.6535,-4.68,-4.7062,-4.7309,-4.7309,-4.7309,-4.7309,-4.7309,-4.7309,-4.7309,-4.7309,-4.7309,-4.3615,-4.3385,-4.312,-4.3103,-4.2749,-4.2369,-4.225,-4.229,-4.2312,-4.2312,0.0,0.0,0.0,0.0,0.0,0.0,-4.2986,-4.2986,-4.2986,-4.2986,-4.2986,-4.2986,-4.2986,-4.2986,-4.2986,-4.2986,-4.2836,-4.259,-4.1982,-4.1455,-4.0902,-4.035,-3.9923,-3.9697,-3.9697,-3.9697,-3.9697,-3.9697,-3.9697,-3.9697,-3.9697,-3.9697,-3.9697,-3.9697,-3.9697,-3.9697,-3.9697,-3.9697,-3.9697,-3.9697,-3.9697,-3.9697,-3.9697,-3.9697,-3.9697,-3.9697,-3.9697,-3.9697,-3.9697,-3.9697,-3.9697,-3.9697,-3.9697,-3.9697,-3.9697,-3.9697,-3.9697,-3.9697,-3.9697,-3.9697,-3.9697,-3.9697,-3.9697,-3.9697,-3.9697,-3.9697,-3.9697,-3.9697,-3.9826,-4.0262,-4.1667,-4.2937,-4.3368,-4.4805,-4.5895,-4.5895,-4.5895,-4.5895,-4.5895,-4.5895,-4.5895,-4.5895,-4.5895,-4.594,-4.6046,-4.618,-4.6269,-4.6403,-4.6624,-4.6844,-4.7005,-4.7092,-4.7222,-4.7309,-4.7309,-4.7309,-4.7309,-4.7309,-4.7309,-4.7309,-4.7309,-4.7309,-4.3117,-4.2961,-4.2743,-4.2879,-4.2659,-4.2381,-4.2241,-4.2425,-4.2625,-4.2625,-4.2818,0.0,0.0,0.0,-4.2986,-4.2986,0.0,-4.2986,-4.2986,-4.2986,-4.2986,-4.2986,-4.2986,-4.2986,-4.2986,-4.2986,-4.2816,-4.2263,-4.1656,-4.105,-4.0551,-3.9998,-3.9697,-3.9697,-3.9697,-3.9697,-3.9697,-3.9697,-3.9697,-3.9697,-3.9697,-3.9697,-3.9697,-3.9697,-3.9697,-3.9697,-3.9697,-3.9697,-3.9697,-3.9697,-3.9697,-3.9697,-3.9697,-3.9697,-3.9697,-3.9697,-3.9697,-3.9697,-3.9697,-3.9697,-3.9697,-3.9697,-3.9697,-3.9697,-3.9697,-3.9697,-3.9697,-3.9697,-3.9697,-3.9697,-3.9697,-3.9697,-3.9697,-3.9697,-3.9697,-3.9697,-3.9697,-3.9697,-3.98,-4.0083,-4.1594,-4.2889,-4.3177,-4.4712,-4.5895,-4.5895,-4.5895,-4.5895,-4.5895,-4.5895,-4.5895,-4.5895,-4.5895,-4.5956,-4.609,-4.6135,-4.6269,-4.658,-4.6844,-4.7106,-4.7309,-4.7309,-4.7309,-4.7309,-4.7309,-4.7309,-4.7309,-4.7309,-4.7309,-4.7309,-4.7309,-4.7309,-4.3117,-4.2788,-4.2491,-4.2781,-4.2732,-4.2481,-4.2481,-4.2762,-4.2986,-4.2986,-4.2986,-4.2986,-4.2986,-4.2986,-4.2986,-4.2986,-4.2986,0.0,0.0,-4.2986,-4.2986,-4.2986,-4.2986,-4.2986,-4.2986,-4.2986,-4.2816,-4.2263,-4.1656,-4.105,-4.0551,-3.9998,-3.9697,-3.9697,-3.9697,-3.9697,-3.9697,-3.9697,-3.9697,-3.9697,-3.9697,-3.9697,-3.9697,-3.9697,-3.9697,-3.9697,-3.9697,-3.9697,-3.9697,-3.9697,-3.9697,-3.9697,-3.9697,-3.9697,-3.9697,-3.9697,-3.9697,-3.9697,-3.9697,-3.9697,-3.9697,-3.9697,-3.9697,-3.9697,-3.9697,-3.9697,-3.9697,-3.9697,-3.9697,-3.9697,-3.9697,-3.9697,-3.9697,-3.9697,-3.9697,-3.9697,-3.9697,-3.9697,-3.9981,-4.0995,-4.2061,-4.3129,-4.4078,-4.5155,-4.5895,-4.5895,-4.5895,-4.5895,-4.5895,-4.5895,-4.5895,-4.5895,-4.5895,-4.5895,-4.594,-4.594,-4.612,-4.6535,-4.7048,-4.7309,-4.7309,-4.7309,-4.7309,-4.7309,-4.7309,-4.7309,-4.7309,-4.7309,-4.7309,-4.7309,-4.7309,-4.7309,-4.2421,-4.2332,-4.2299,-4.2868,-4.2718,-4.2569,-4.2818,-4.293,-4.2986,-4.2986,-4.2986,-4.2986,-4.2986,-4.2986,-4.2986,-4.2986,-4.2986,-4.2986,0.0,-4.2986,-4.2986,-4.2986,-4.2986,-4.2986,-4.2986,-4.2986,-4.2816,-4.2263,-4.1656,-4.105,-4.0551,-3.9998,-3.9697,-3.9697,-3.9697,-3.9697,-3.9697,-3.9697,-3.9697,-3.9697,-3.9697,-3.9697,-3.9697,-3.9697,-3.9697,-3.9697,-3.9697,-3.9697,-3.9697,-3.9697,-3.9697,-3.9697,-3.9697,-3.9697,-3.9697,-3.9697,-3.9697,-3.9697,-3.9697,-3.9697,-3.9697,-3.9697,-3.9697,-3.9697,-3.9697,-3.9697,-3.9697,-3.9697,-3.9697,-3.9697,-3.9697,-3.9697,-3.9697,-3.9697,-3.9697,-3.9697,-3.9697,-3.9697,-3.9981,-4.0969,-4.2061,-4.3129,-4.4125,-4.5201,-4.5895,-4.5895,-4.5895,-4.5895,-4.5895,-4.5895,-4.5956,-4.609,-4.609,-4.6225,-4.6535,-4.6712,-4.6887,-4.7048,-4.7222,-4.7309,-4.7309,-4.7309,-4.7309,-4.7309,-4.7309,-4.7309,-4.7309,-4.7309,-4.7309,-4.7309,-4.7309,-4.7309,-4.2142,-4.2256,-4.2369,-4.2874,-4.2874,-4.2737,-4.2986,-4.2986,-4.2986,-4.2986,-4.2986,-4.2986,-4.2986,-4.2986,-4.2986,-4.2986,-4.2986,-4.2986,0.0,-4.2986,-4.2986,-4.2986,-4.2986,-4.2986,-4.2986,-4.2986,-4.2816,-4.2263,-4.1831,-4.1304,-4.0551,-4.0174,-3.9898,-3.9697,-3.9697,-3.9697,-3.9697,-3.9697,-3.9697,-3.9697,-3.9697,-3.9697,-3.9697,-3.9697,-3.9697,-3.9697,-3.9697,-3.9697,-3.9697,-3.9697,-3.9697,-3.9697,-3.9697,-3.9697,-3.9697,-3.9697,-3.9697,-3.9697,-3.9697,-3.9697,-3.9697,-3.9697,-3.9697,-3.9697,-3.9697,-3.9697,-3.9647,-3.9446,-3.9546,-3.9647,-3.9446,-3.9546,-3.9697,-3.9697,-3.9697,-3.9697,-3.9697,-3.9981,-4.0567,-4.1568,-4.262,-4.3654,-4.4712,-4.5429,-4.5895,-4.5895,-4.5895,-4.5895,-4.5895,-4.5895,-4.5956,-4.618,-4.6135,-4.6269,-4.6624,-4.6887,-4.7092,-4.7149,-4.7266,-4.7309,-4.7309,-4.7309,-4.7189,-4.695,-4.7189,-4.7189,-4.695,-4.7189,-4.7309,-4.7309,-4.7309,-4.7309]}]]